<?xml version="1.0" encoding="UTF-8" standalone="no" ?>
<gpx xmlns="http://www.topografix.com/GPX/1/1" xmlns:xsi="http://www.w3.org/2001/XMLSchema-instance" xsi:schemaLocation="http://www.topografix.com/GPX/1/1 http://www.topografix.com/GPX/1/1/gpx.xsd" version="1.1" creator="VisuGPX - https://www.visugpx.com">
  <metadata>
    <name>Gr20 étape 6</name>
    <desc><![CDATA[Du col Vergio àManganu]]></desc>
  </metadata>
  <trk>
    <name><![CDATA[2015-09-09 14:16:37]]></name>
    <trkseg>
      <trkpt lat="42.28696" lon="8.89412">
        <ele>1406.55</ele>
        <time>2015-09-09T05:02:32Z</time>
      </trkpt>
      <trkpt lat="42.28696" lon="8.89412">
        <ele>1406.55</ele>
        <time>2015-09-09T05:02:33Z</time>
      </trkpt>
      <trkpt lat="42.28696" lon="8.89415">
        <ele>1406.07</ele>
        <time>2015-09-09T05:03:02Z</time>
      </trkpt>
      <trkpt lat="42.28692" lon="8.89412">
        <ele>1406.07</ele>
        <time>2015-09-09T05:03:19Z</time>
      </trkpt>
      <trkpt lat="42.28693" lon="8.89412">
        <ele>1406.07</ele>
        <time>2015-09-09T05:03:40Z</time>
      </trkpt>
      <trkpt lat="42.28692" lon="8.89411">
        <ele>1406.07</ele>
        <time>2015-09-09T05:04:00Z</time>
      </trkpt>
      <trkpt lat="42.28691" lon="8.89411">
        <ele>1406.07</ele>
        <time>2015-09-09T05:04:10Z</time>
      </trkpt>
      <trkpt lat="42.28688" lon="8.89399">
        <ele>1406.07</ele>
        <time>2015-09-09T05:04:23Z</time>
      </trkpt>
      <trkpt lat="42.28684" lon="8.89378">
        <ele>1407.03</ele>
        <time>2015-09-09T05:04:42Z</time>
      </trkpt>
      <trkpt lat="42.2868" lon="8.89372">
        <ele>1407.03</ele>
        <time>2015-09-09T05:05:01Z</time>
      </trkpt>
      <trkpt lat="42.28679" lon="8.89374">
        <ele>1406.55</ele>
        <time>2015-09-09T05:05:41Z</time>
      </trkpt>
      <trkpt lat="42.28679" lon="8.8937">
        <ele>1406.55</ele>
        <time>2015-09-09T05:06:14Z</time>
      </trkpt>
      <trkpt lat="42.28679" lon="8.8937">
        <ele>1406.55</ele>
        <time>2015-09-09T05:06:41Z</time>
      </trkpt>
      <trkpt lat="42.28679" lon="8.8937">
        <ele>1406.55</ele>
        <time>2015-09-09T05:07:13Z</time>
      </trkpt>
      <trkpt lat="42.28679" lon="8.8937">
        <ele>1406.55</ele>
        <time>2015-09-09T05:07:42Z</time>
      </trkpt>
      <trkpt lat="42.2868" lon="8.8937">
        <ele>1406.55</ele>
        <time>2015-09-09T05:08:12Z</time>
      </trkpt>
      <trkpt lat="42.28676" lon="8.89365">
        <ele>1406.55</ele>
        <time>2015-09-09T05:08:31Z</time>
      </trkpt>
      <trkpt lat="42.28673" lon="8.8936">
        <ele>1406.55</ele>
        <time>2015-09-09T05:08:35Z</time>
      </trkpt>
      <trkpt lat="42.28666" lon="8.89348">
        <ele>1406.07</ele>
        <time>2015-09-09T05:08:51Z</time>
      </trkpt>
      <trkpt lat="42.28655" lon="8.8935">
        <ele>1406.07</ele>
        <time>2015-09-09T05:09:05Z</time>
      </trkpt>
      <trkpt lat="42.28652" lon="8.8936">
        <ele>1406.07</ele>
        <time>2015-09-09T05:09:12Z</time>
      </trkpt>
      <trkpt lat="42.28652" lon="8.89365">
        <ele>1404.62</ele>
        <time>2015-09-09T05:09:15Z</time>
      </trkpt>
      <trkpt lat="42.2865" lon="8.89396">
        <ele>1404.14</ele>
        <time>2015-09-09T05:09:35Z</time>
      </trkpt>
      <trkpt lat="42.28648" lon="8.89426">
        <ele>1403.18</ele>
        <time>2015-09-09T05:09:54Z</time>
      </trkpt>
      <trkpt lat="42.2864" lon="8.89451">
        <ele>1402.22</ele>
        <time>2015-09-09T05:10:14Z</time>
      </trkpt>
      <trkpt lat="42.28629" lon="8.89462">
        <ele>1399.34</ele>
        <time>2015-09-09T05:10:33Z</time>
      </trkpt>
      <trkpt lat="42.28619" lon="8.89465">
        <ele>1395.97</ele>
        <time>2015-09-09T05:10:47Z</time>
      </trkpt>
      <trkpt lat="42.28612" lon="8.89467">
        <ele>1393.09</ele>
        <time>2015-09-09T05:11:02Z</time>
      </trkpt>
      <trkpt lat="42.28592" lon="8.89448">
        <ele>1390.2</ele>
        <time>2015-09-09T05:11:22Z</time>
      </trkpt>
      <trkpt lat="42.28586" lon="8.89437">
        <ele>1386.84</ele>
        <time>2015-09-09T05:11:37Z</time>
      </trkpt>
      <trkpt lat="42.2858" lon="8.89431">
        <ele>1383.96</ele>
        <time>2015-09-09T05:11:50Z</time>
      </trkpt>
      <trkpt lat="42.28561" lon="8.89427">
        <ele>1380.59</ele>
        <time>2015-09-09T05:12:02Z</time>
      </trkpt>
      <trkpt lat="42.28551" lon="8.89423">
        <ele>1377.23</ele>
        <time>2015-09-09T05:12:18Z</time>
      </trkpt>
      <trkpt lat="42.28544" lon="8.89422">
        <ele>1374.34</ele>
        <time>2015-09-09T05:12:34Z</time>
      </trkpt>
      <trkpt lat="42.28538" lon="8.89427">
        <ele>1370.98</ele>
        <time>2015-09-09T05:12:49Z</time>
      </trkpt>
      <trkpt lat="42.2852" lon="8.8943">
        <ele>1368.09</ele>
        <time>2015-09-09T05:13:04Z</time>
      </trkpt>
      <trkpt lat="42.28512" lon="8.89432">
        <ele>1364.73</ele>
        <time>2015-09-09T05:13:19Z</time>
      </trkpt>
      <trkpt lat="42.28492" lon="8.89445">
        <ele>1361.36</ele>
        <time>2015-09-09T05:13:37Z</time>
      </trkpt>
      <trkpt lat="42.28472" lon="8.89453">
        <ele>1358.48</ele>
        <time>2015-09-09T05:14:00Z</time>
      </trkpt>
      <trkpt lat="42.28462" lon="8.89456">
        <ele>1355.12</ele>
        <time>2015-09-09T05:14:15Z</time>
      </trkpt>
      <trkpt lat="42.2845" lon="8.89463">
        <ele>1351.75</ele>
        <time>2015-09-09T05:14:30Z</time>
      </trkpt>
      <trkpt lat="42.28437" lon="8.89469">
        <ele>1348.87</ele>
        <time>2015-09-09T05:14:46Z</time>
      </trkpt>
      <trkpt lat="42.28422" lon="8.89466">
        <ele>1345.98</ele>
        <time>2015-09-09T05:15:05Z</time>
      </trkpt>
      <trkpt lat="42.28409" lon="8.89464">
        <ele>1342.62</ele>
        <time>2015-09-09T05:15:20Z</time>
      </trkpt>
      <trkpt lat="42.28394" lon="8.89459">
        <ele>1339.73</ele>
        <time>2015-09-09T05:15:39Z</time>
      </trkpt>
      <trkpt lat="42.28379" lon="8.89467">
        <ele>1336.37</ele>
        <time>2015-09-09T05:16:02Z</time>
      </trkpt>
      <trkpt lat="42.28367" lon="8.89477">
        <ele>1333.01</ele>
        <time>2015-09-09T05:16:19Z</time>
      </trkpt>
      <trkpt lat="42.28362" lon="8.8949">
        <ele>1329.64</ele>
        <time>2015-09-09T05:16:33Z</time>
      </trkpt>
      <trkpt lat="42.28343" lon="8.89521">
        <ele>1328.2</ele>
        <time>2015-09-09T05:16:56Z</time>
      </trkpt>
      <trkpt lat="42.28334" lon="8.89513">
        <ele>1328.2</ele>
        <time>2015-09-09T05:17:14Z</time>
      </trkpt>
      <trkpt lat="42.28327" lon="8.89503">
        <ele>1328.2</ele>
        <time>2015-09-09T05:17:25Z</time>
      </trkpt>
      <trkpt lat="42.28315" lon="8.89487">
        <ele>1327.24</ele>
        <time>2015-09-09T05:17:44Z</time>
      </trkpt>
      <trkpt lat="42.2831" lon="8.89466">
        <ele>1327.24</ele>
        <time>2015-09-09T05:18:04Z</time>
      </trkpt>
      <trkpt lat="42.28302" lon="8.89445">
        <ele>1327.24</ele>
        <time>2015-09-09T05:18:20Z</time>
      </trkpt>
      <trkpt lat="42.28298" lon="8.89429">
        <ele>1327.24</ele>
        <time>2015-09-09T05:18:29Z</time>
      </trkpt>
      <trkpt lat="42.28294" lon="8.89406">
        <ele>1326.28</ele>
        <time>2015-09-09T05:18:45Z</time>
      </trkpt>
      <trkpt lat="42.28294" lon="8.89403">
        <ele>1326.28</ele>
        <time>2015-09-09T05:18:48Z</time>
      </trkpt>
      <trkpt lat="42.28293" lon="8.89384">
        <ele>1326.28</ele>
        <time>2015-09-09T05:19:03Z</time>
      </trkpt>
      <trkpt lat="42.28294" lon="8.89357">
        <ele>1326.28</ele>
        <time>2015-09-09T05:19:20Z</time>
      </trkpt>
      <trkpt lat="42.28296" lon="8.89339">
        <ele>1326.28</ele>
        <time>2015-09-09T05:19:35Z</time>
      </trkpt>
      <trkpt lat="42.28298" lon="8.89319">
        <ele>1326.28</ele>
        <time>2015-09-09T05:19:48Z</time>
      </trkpt>
      <trkpt lat="42.28299" lon="8.89299">
        <ele>1327.72</ele>
        <time>2015-09-09T05:20:03Z</time>
      </trkpt>
      <trkpt lat="42.28306" lon="8.8928">
        <ele>1327.72</ele>
        <time>2015-09-09T05:20:20Z</time>
      </trkpt>
      <trkpt lat="42.28301" lon="8.89262">
        <ele>1327.72</ele>
        <time>2015-09-09T05:20:35Z</time>
      </trkpt>
      <trkpt lat="42.28289" lon="8.89242">
        <ele>1327.72</ele>
        <time>2015-09-09T05:20:54Z</time>
      </trkpt>
      <trkpt lat="42.28278" lon="8.8923">
        <ele>1327.72</ele>
        <time>2015-09-09T05:21:14Z</time>
      </trkpt>
      <trkpt lat="42.28267" lon="8.8921">
        <ele>1327.72</ele>
        <time>2015-09-09T05:21:33Z</time>
      </trkpt>
      <trkpt lat="42.28256" lon="8.89188">
        <ele>1327.72</ele>
        <time>2015-09-09T05:21:50Z</time>
      </trkpt>
      <trkpt lat="42.28255" lon="8.89189">
        <ele>1327.72</ele>
        <time>2015-09-09T05:21:51Z</time>
      </trkpt>
      <trkpt lat="42.28253" lon="8.89192">
        <ele>1327.72</ele>
        <time>2015-09-09T05:21:55Z</time>
      </trkpt>
      <trkpt lat="42.28246" lon="8.89195">
        <ele>1327.72</ele>
        <time>2015-09-09T05:22:02Z</time>
      </trkpt>
      <trkpt lat="42.28232" lon="8.89202">
        <ele>1327.72</ele>
        <time>2015-09-09T05:22:20Z</time>
      </trkpt>
      <trkpt lat="42.28228" lon="8.89203">
        <ele>1327.72</ele>
        <time>2015-09-09T05:22:24Z</time>
      </trkpt>
      <trkpt lat="42.28203" lon="8.89203">
        <ele>1327.72</ele>
        <time>2015-09-09T05:22:44Z</time>
      </trkpt>
      <trkpt lat="42.28187" lon="8.89189">
        <ele>1327.72</ele>
        <time>2015-09-09T05:23:04Z</time>
      </trkpt>
      <trkpt lat="42.2818" lon="8.8917">
        <ele>1327.72</ele>
        <time>2015-09-09T05:23:22Z</time>
      </trkpt>
      <trkpt lat="42.28172" lon="8.89156">
        <ele>1326.76</ele>
        <time>2015-09-09T05:23:37Z</time>
      </trkpt>
      <trkpt lat="42.28166" lon="8.89144">
        <ele>1326.76</ele>
        <time>2015-09-09T05:23:49Z</time>
      </trkpt>
      <trkpt lat="42.28165" lon="8.8912">
        <ele>1326.28</ele>
        <time>2015-09-09T05:24:04Z</time>
      </trkpt>
      <trkpt lat="42.28151" lon="8.89097">
        <ele>1326.28</ele>
        <time>2015-09-09T05:24:21Z</time>
      </trkpt>
      <trkpt lat="42.28139" lon="8.8909">
        <ele>1327.72</ele>
        <time>2015-09-09T05:24:38Z</time>
      </trkpt>
      <trkpt lat="42.28132" lon="8.89086">
        <ele>1327.72</ele>
        <time>2015-09-09T05:24:47Z</time>
      </trkpt>
      <trkpt lat="42.28106" lon="8.8909">
        <ele>1327.72</ele>
        <time>2015-09-09T05:25:07Z</time>
      </trkpt>
      <trkpt lat="42.28093" lon="8.89083">
        <ele>1327.72</ele>
        <time>2015-09-09T05:25:21Z</time>
      </trkpt>
      <trkpt lat="42.28082" lon="8.89078">
        <ele>1328.2</ele>
        <time>2015-09-09T05:25:40Z</time>
      </trkpt>
      <trkpt lat="42.28065" lon="8.89067">
        <ele>1328.68</ele>
        <time>2015-09-09T05:25:58Z</time>
      </trkpt>
      <trkpt lat="42.28041" lon="8.89048">
        <ele>1329.64</ele>
        <time>2015-09-09T05:26:18Z</time>
      </trkpt>
      <trkpt lat="42.28027" lon="8.89041">
        <ele>1329.64</ele>
        <time>2015-09-09T05:26:37Z</time>
      </trkpt>
      <trkpt lat="42.28006" lon="8.89018">
        <ele>1329.64</ele>
        <time>2015-09-09T05:26:59Z</time>
      </trkpt>
      <trkpt lat="42.27994" lon="8.89007">
        <ele>1329.64</ele>
        <time>2015-09-09T05:27:15Z</time>
      </trkpt>
      <trkpt lat="42.27979" lon="8.8899">
        <ele>1330.12</ele>
        <time>2015-09-09T05:27:34Z</time>
      </trkpt>
      <trkpt lat="42.27973" lon="8.88967">
        <ele>1330.6</ele>
        <time>2015-09-09T05:27:52Z</time>
      </trkpt>
      <trkpt lat="42.27965" lon="8.88954">
        <ele>1331.56</ele>
        <time>2015-09-09T05:28:09Z</time>
      </trkpt>
      <trkpt lat="42.27956" lon="8.88945">
        <ele>1332.04</ele>
        <time>2015-09-09T05:28:26Z</time>
      </trkpt>
      <trkpt lat="42.27946" lon="8.8893">
        <ele>1332.04</ele>
        <time>2015-09-09T05:28:38Z</time>
      </trkpt>
      <trkpt lat="42.27935" lon="8.88925">
        <ele>1332.52</ele>
        <time>2015-09-09T05:28:58Z</time>
      </trkpt>
      <trkpt lat="42.27902" lon="8.88926">
        <ele>1332.52</ele>
        <time>2015-09-09T05:29:18Z</time>
      </trkpt>
      <trkpt lat="42.27899" lon="8.88929">
        <ele>1332.52</ele>
        <time>2015-09-09T05:29:22Z</time>
      </trkpt>
      <trkpt lat="42.27888" lon="8.88939">
        <ele>1332.52</ele>
        <time>2015-09-09T05:29:39Z</time>
      </trkpt>
      <trkpt lat="42.27865" lon="8.88949">
        <ele>1332.52</ele>
        <time>2015-09-09T05:29:59Z</time>
      </trkpt>
      <trkpt lat="42.27849" lon="8.88954">
        <ele>1332.52</ele>
        <time>2015-09-09T05:30:20Z</time>
      </trkpt>
      <trkpt lat="42.27844" lon="8.88953">
        <ele>1332.52</ele>
        <time>2015-09-09T05:30:28Z</time>
      </trkpt>
      <trkpt lat="42.2783" lon="8.88957">
        <ele>1332.52</ele>
        <time>2015-09-09T05:30:42Z</time>
      </trkpt>
      <trkpt lat="42.27818" lon="8.88971">
        <ele>1332.52</ele>
        <time>2015-09-09T05:30:57Z</time>
      </trkpt>
      <trkpt lat="42.27809" lon="8.88976">
        <ele>1332.52</ele>
        <time>2015-09-09T05:31:15Z</time>
      </trkpt>
      <trkpt lat="42.2779" lon="8.88964">
        <ele>1332.52</ele>
        <time>2015-09-09T05:31:34Z</time>
      </trkpt>
      <trkpt lat="42.27778" lon="8.88964">
        <ele>1332.52</ele>
        <time>2015-09-09T05:31:51Z</time>
      </trkpt>
      <trkpt lat="42.27766" lon="8.88977">
        <ele>1333.01</ele>
        <time>2015-09-09T05:32:08Z</time>
      </trkpt>
      <trkpt lat="42.27759" lon="8.89003">
        <ele>1333.01</ele>
        <time>2015-09-09T05:32:29Z</time>
      </trkpt>
      <trkpt lat="42.27748" lon="8.89015">
        <ele>1333.01</ele>
        <time>2015-09-09T05:32:45Z</time>
      </trkpt>
      <trkpt lat="42.27731" lon="8.89033">
        <ele>1333.01</ele>
        <time>2015-09-09T05:33:04Z</time>
      </trkpt>
      <trkpt lat="42.27717" lon="8.89038">
        <ele>1333.01</ele>
        <time>2015-09-09T05:33:23Z</time>
      </trkpt>
      <trkpt lat="42.27702" lon="8.89041">
        <ele>1332.04</ele>
        <time>2015-09-09T05:33:41Z</time>
      </trkpt>
      <trkpt lat="42.27694" lon="8.89036">
        <ele>1332.04</ele>
        <time>2015-09-09T05:33:50Z</time>
      </trkpt>
      <trkpt lat="42.27689" lon="8.89035">
        <ele>1331.56</ele>
        <time>2015-09-09T05:33:54Z</time>
      </trkpt>
      <trkpt lat="42.2767" lon="8.89029">
        <ele>1331.56</ele>
        <time>2015-09-09T05:34:09Z</time>
      </trkpt>
      <trkpt lat="42.27655" lon="8.89039">
        <ele>1331.08</ele>
        <time>2015-09-09T05:34:26Z</time>
      </trkpt>
      <trkpt lat="42.27643" lon="8.89043">
        <ele>1330.6</ele>
        <time>2015-09-09T05:34:41Z</time>
      </trkpt>
      <trkpt lat="42.27636" lon="8.89036">
        <ele>1330.6</ele>
        <time>2015-09-09T05:34:56Z</time>
      </trkpt>
      <trkpt lat="42.27619" lon="8.89034">
        <ele>1332.04</ele>
        <time>2015-09-09T05:35:12Z</time>
      </trkpt>
      <trkpt lat="42.27618" lon="8.89035">
        <ele>1332.04</ele>
        <time>2015-09-09T05:35:13Z</time>
      </trkpt>
      <trkpt lat="42.27605" lon="8.89041">
        <ele>1333.01</ele>
        <time>2015-09-09T05:35:30Z</time>
      </trkpt>
      <trkpt lat="42.27603" lon="8.89039">
        <ele>1333.01</ele>
        <time>2015-09-09T05:35:55Z</time>
      </trkpt>
      <trkpt lat="42.27598" lon="8.89043">
        <ele>1333.01</ele>
        <time>2015-09-09T05:36:24Z</time>
      </trkpt>
      <trkpt lat="42.27588" lon="8.89069">
        <ele>1332.04</ele>
        <time>2015-09-09T05:36:42Z</time>
      </trkpt>
      <trkpt lat="42.27576" lon="8.89077">
        <ele>1332.04</ele>
        <time>2015-09-09T05:36:58Z</time>
      </trkpt>
      <trkpt lat="42.27562" lon="8.8908">
        <ele>1332.04</ele>
        <time>2015-09-09T05:37:14Z</time>
      </trkpt>
      <trkpt lat="42.27543" lon="8.89088">
        <ele>1333.49</ele>
        <time>2015-09-09T05:37:37Z</time>
      </trkpt>
      <trkpt lat="42.27531" lon="8.89105">
        <ele>1333.49</ele>
        <time>2015-09-09T05:37:56Z</time>
      </trkpt>
      <trkpt lat="42.2753" lon="8.89126">
        <ele>1333.49</ele>
        <time>2015-09-09T05:38:15Z</time>
      </trkpt>
      <trkpt lat="42.27528" lon="8.89145">
        <ele>1333.97</ele>
        <time>2015-09-09T05:38:31Z</time>
      </trkpt>
      <trkpt lat="42.27524" lon="8.8916">
        <ele>1334.45</ele>
        <time>2015-09-09T05:38:47Z</time>
      </trkpt>
      <trkpt lat="42.27519" lon="8.89191">
        <ele>1334.93</ele>
        <time>2015-09-09T05:39:08Z</time>
      </trkpt>
      <trkpt lat="42.27523" lon="8.8921">
        <ele>1335.41</ele>
        <time>2015-09-09T05:39:21Z</time>
      </trkpt>
      <trkpt lat="42.27527" lon="8.89234">
        <ele>1335.89</ele>
        <time>2015-09-09T05:39:38Z</time>
      </trkpt>
      <trkpt lat="42.27523" lon="8.89253">
        <ele>1335.89</ele>
        <time>2015-09-09T05:39:54Z</time>
      </trkpt>
      <trkpt lat="42.27521" lon="8.89272">
        <ele>1336.85</ele>
        <time>2015-09-09T05:40:14Z</time>
      </trkpt>
      <trkpt lat="42.27521" lon="8.89274">
        <ele>1336.85</ele>
        <time>2015-09-09T05:40:15Z</time>
      </trkpt>
      <trkpt lat="42.27516" lon="8.89293">
        <ele>1336.85</ele>
        <time>2015-09-09T05:40:31Z</time>
      </trkpt>
      <trkpt lat="42.27514" lon="8.89304">
        <ele>1336.85</ele>
        <time>2015-09-09T05:40:39Z</time>
      </trkpt>
      <trkpt lat="42.27502" lon="8.89329">
        <ele>1336.85</ele>
        <time>2015-09-09T05:40:58Z</time>
      </trkpt>
      <trkpt lat="42.27484" lon="8.89339">
        <ele>1336.37</ele>
        <time>2015-09-09T05:41:16Z</time>
      </trkpt>
      <trkpt lat="42.27466" lon="8.89343">
        <ele>1336.37</ele>
        <time>2015-09-09T05:41:32Z</time>
      </trkpt>
      <trkpt lat="42.27455" lon="8.89347">
        <ele>1336.37</ele>
        <time>2015-09-09T05:41:47Z</time>
      </trkpt>
      <trkpt lat="42.2744" lon="8.89351">
        <ele>1337.33</ele>
        <time>2015-09-09T05:42:04Z</time>
      </trkpt>
      <trkpt lat="42.27423" lon="8.89349">
        <ele>1337.81</ele>
        <time>2015-09-09T05:42:22Z</time>
      </trkpt>
      <trkpt lat="42.27405" lon="8.89355">
        <ele>1337.81</ele>
        <time>2015-09-09T05:42:39Z</time>
      </trkpt>
      <trkpt lat="42.27398" lon="8.89358">
        <ele>1337.81</ele>
        <time>2015-09-09T05:42:59Z</time>
      </trkpt>
      <trkpt lat="42.27386" lon="8.89378">
        <ele>1337.81</ele>
        <time>2015-09-09T05:43:13Z</time>
      </trkpt>
      <trkpt lat="42.27371" lon="8.89382">
        <ele>1337.81</ele>
        <time>2015-09-09T05:43:30Z</time>
      </trkpt>
      <trkpt lat="42.27352" lon="8.89383">
        <ele>1337.81</ele>
        <time>2015-09-09T05:43:50Z</time>
      </trkpt>
      <trkpt lat="42.27342" lon="8.89387">
        <ele>1337.81</ele>
        <time>2015-09-09T05:43:58Z</time>
      </trkpt>
      <trkpt lat="42.27339" lon="8.89387">
        <ele>1337.81</ele>
        <time>2015-09-09T05:44:01Z</time>
      </trkpt>
      <trkpt lat="42.27334" lon="8.89388">
        <ele>1337.81</ele>
        <time>2015-09-09T05:44:05Z</time>
      </trkpt>
      <trkpt lat="42.27324" lon="8.894">
        <ele>1337.81</ele>
        <time>2015-09-09T05:44:21Z</time>
      </trkpt>
      <trkpt lat="42.27316" lon="8.89407">
        <ele>1337.81</ele>
        <time>2015-09-09T05:44:32Z</time>
      </trkpt>
      <trkpt lat="42.27303" lon="8.89421">
        <ele>1337.81</ele>
        <time>2015-09-09T05:44:49Z</time>
      </trkpt>
      <trkpt lat="42.27297" lon="8.8942">
        <ele>1337.81</ele>
        <time>2015-09-09T05:44:55Z</time>
      </trkpt>
      <trkpt lat="42.27283" lon="8.89427">
        <ele>1338.29</ele>
        <time>2015-09-09T05:45:12Z</time>
      </trkpt>
      <trkpt lat="42.27267" lon="8.8943">
        <ele>1339.25</ele>
        <time>2015-09-09T05:45:29Z</time>
      </trkpt>
      <trkpt lat="42.27257" lon="8.8944">
        <ele>1339.25</ele>
        <time>2015-09-09T05:45:45Z</time>
      </trkpt>
      <trkpt lat="42.27257" lon="8.89449">
        <ele>1339.25</ele>
        <time>2015-09-09T05:45:54Z</time>
      </trkpt>
      <trkpt lat="42.27252" lon="8.89459">
        <ele>1339.25</ele>
        <time>2015-09-09T05:46:01Z</time>
      </trkpt>
      <trkpt lat="42.2725" lon="8.8946">
        <ele>1339.25</ele>
        <time>2015-09-09T05:46:04Z</time>
      </trkpt>
      <trkpt lat="42.27242" lon="8.89461">
        <ele>1339.73</ele>
        <time>2015-09-09T05:46:13Z</time>
      </trkpt>
      <trkpt lat="42.27241" lon="8.89465">
        <ele>1339.73</ele>
        <time>2015-09-09T05:46:16Z</time>
      </trkpt>
      <trkpt lat="42.2723" lon="8.89468">
        <ele>1338.29</ele>
        <time>2015-09-09T05:46:26Z</time>
      </trkpt>
      <trkpt lat="42.27219" lon="8.89465">
        <ele>1338.29</ele>
        <time>2015-09-09T05:46:41Z</time>
      </trkpt>
      <trkpt lat="42.27208" lon="8.89457">
        <ele>1338.29</ele>
        <time>2015-09-09T05:46:55Z</time>
      </trkpt>
      <trkpt lat="42.27196" lon="8.8944">
        <ele>1337.81</ele>
        <time>2015-09-09T05:47:14Z</time>
      </trkpt>
      <trkpt lat="42.27185" lon="8.8942">
        <ele>1337.81</ele>
        <time>2015-09-09T05:47:30Z</time>
      </trkpt>
      <trkpt lat="42.2718" lon="8.89409">
        <ele>1337.81</ele>
        <time>2015-09-09T05:47:44Z</time>
      </trkpt>
      <trkpt lat="42.27168" lon="8.8939">
        <ele>1337.81</ele>
        <time>2015-09-09T05:48:01Z</time>
      </trkpt>
      <trkpt lat="42.2716" lon="8.89364">
        <ele>1337.81</ele>
        <time>2015-09-09T05:48:18Z</time>
      </trkpt>
      <trkpt lat="42.27155" lon="8.89357">
        <ele>1337.81</ele>
        <time>2015-09-09T05:48:25Z</time>
      </trkpt>
      <trkpt lat="42.27141" lon="8.8934">
        <ele>1339.25</ele>
        <time>2015-09-09T05:48:42Z</time>
      </trkpt>
      <trkpt lat="42.27135" lon="8.89325">
        <ele>1339.25</ele>
        <time>2015-09-09T05:48:59Z</time>
      </trkpt>
      <trkpt lat="42.27131" lon="8.89316">
        <ele>1339.25</ele>
        <time>2015-09-09T05:49:04Z</time>
      </trkpt>
      <trkpt lat="42.27126" lon="8.89311">
        <ele>1338.29</ele>
        <time>2015-09-09T05:49:09Z</time>
      </trkpt>
      <trkpt lat="42.27117" lon="8.89285">
        <ele>1338.29</ele>
        <time>2015-09-09T05:49:29Z</time>
      </trkpt>
      <trkpt lat="42.2711" lon="8.89259">
        <ele>1338.29</ele>
        <time>2015-09-09T05:49:48Z</time>
      </trkpt>
      <trkpt lat="42.27104" lon="8.89238">
        <ele>1337.81</ele>
        <time>2015-09-09T05:50:04Z</time>
      </trkpt>
      <trkpt lat="42.27101" lon="8.89223">
        <ele>1337.81</ele>
        <time>2015-09-09T05:50:18Z</time>
      </trkpt>
      <trkpt lat="42.27091" lon="8.89203">
        <ele>1337.81</ele>
        <time>2015-09-09T05:50:32Z</time>
      </trkpt>
      <trkpt lat="42.27085" lon="8.89187">
        <ele>1338.77</ele>
        <time>2015-09-09T05:50:53Z</time>
      </trkpt>
      <trkpt lat="42.27077" lon="8.89169">
        <ele>1339.73</ele>
        <time>2015-09-09T05:51:11Z</time>
      </trkpt>
      <trkpt lat="42.2707" lon="8.89141">
        <ele>1340.22</ele>
        <time>2015-09-09T05:51:30Z</time>
      </trkpt>
      <trkpt lat="42.27065" lon="8.8911">
        <ele>1341.18</ele>
        <time>2015-09-09T05:51:48Z</time>
      </trkpt>
      <trkpt lat="42.27065" lon="8.89108">
        <ele>1341.18</ele>
        <time>2015-09-09T05:51:49Z</time>
      </trkpt>
      <trkpt lat="42.27062" lon="8.89094">
        <ele>1341.66</ele>
        <time>2015-09-09T05:52:05Z</time>
      </trkpt>
      <trkpt lat="42.2706" lon="8.89085">
        <ele>1342.62</ele>
        <time>2015-09-09T05:52:20Z</time>
      </trkpt>
      <trkpt lat="42.27053" lon="8.8907">
        <ele>1341.18</ele>
        <time>2015-09-09T05:52:36Z</time>
      </trkpt>
      <trkpt lat="42.27046" lon="8.8908">
        <ele>1343.1</ele>
        <time>2015-09-09T05:52:57Z</time>
      </trkpt>
      <trkpt lat="42.27034" lon="8.89086">
        <ele>1344.06</ele>
        <time>2015-09-09T05:53:10Z</time>
      </trkpt>
      <trkpt lat="42.27023" lon="8.89092">
        <ele>1344.06</ele>
        <time>2015-09-09T05:53:28Z</time>
      </trkpt>
      <trkpt lat="42.27009" lon="8.89099">
        <ele>1344.54</ele>
        <time>2015-09-09T05:53:45Z</time>
      </trkpt>
      <trkpt lat="42.26995" lon="8.89107">
        <ele>1345.02</ele>
        <time>2015-09-09T05:54:00Z</time>
      </trkpt>
      <trkpt lat="42.26985" lon="8.89117">
        <ele>1345.5</ele>
        <time>2015-09-09T05:54:13Z</time>
      </trkpt>
      <trkpt lat="42.26982" lon="8.89132">
        <ele>1345.98</ele>
        <time>2015-09-09T05:54:28Z</time>
      </trkpt>
      <trkpt lat="42.26969" lon="8.89151">
        <ele>1347.43</ele>
        <time>2015-09-09T05:54:44Z</time>
      </trkpt>
      <trkpt lat="42.26967" lon="8.89155">
        <ele>1347.43</ele>
        <time>2015-09-09T05:54:51Z</time>
      </trkpt>
      <trkpt lat="42.26956" lon="8.89162">
        <ele>1347.91</ele>
        <time>2015-09-09T05:55:04Z</time>
      </trkpt>
      <trkpt lat="42.26944" lon="8.8917">
        <ele>1347.91</ele>
        <time>2015-09-09T05:55:20Z</time>
      </trkpt>
      <trkpt lat="42.26944" lon="8.89174">
        <ele>1347.91</ele>
        <time>2015-09-09T05:55:25Z</time>
      </trkpt>
      <trkpt lat="42.26937" lon="8.89191">
        <ele>1348.39</ele>
        <time>2015-09-09T05:55:41Z</time>
      </trkpt>
      <trkpt lat="42.26936" lon="8.89198">
        <ele>1348.39</ele>
        <time>2015-09-09T05:55:47Z</time>
      </trkpt>
      <trkpt lat="42.26932" lon="8.89227">
        <ele>1350.31</ele>
        <time>2015-09-09T05:56:04Z</time>
      </trkpt>
      <trkpt lat="42.26932" lon="8.89228">
        <ele>1350.31</ele>
        <time>2015-09-09T05:56:05Z</time>
      </trkpt>
      <trkpt lat="42.26928" lon="8.8925">
        <ele>1350.79</ele>
        <time>2015-09-09T05:56:22Z</time>
      </trkpt>
      <trkpt lat="42.26924" lon="8.89267">
        <ele>1351.27</ele>
        <time>2015-09-09T05:56:37Z</time>
      </trkpt>
      <trkpt lat="42.26917" lon="8.89283">
        <ele>1351.27</ele>
        <time>2015-09-09T05:56:55Z</time>
      </trkpt>
      <trkpt lat="42.26911" lon="8.89301">
        <ele>1352.23</ele>
        <time>2015-09-09T05:57:11Z</time>
      </trkpt>
      <trkpt lat="42.26911" lon="8.89305">
        <ele>1352.23</ele>
        <time>2015-09-09T05:57:14Z</time>
      </trkpt>
      <trkpt lat="42.26907" lon="8.89318">
        <ele>1352.23</ele>
        <time>2015-09-09T05:57:28Z</time>
      </trkpt>
      <trkpt lat="42.26902" lon="8.89326">
        <ele>1352.71</ele>
        <time>2015-09-09T05:57:38Z</time>
      </trkpt>
      <trkpt lat="42.26892" lon="8.89336">
        <ele>1353.67</ele>
        <time>2015-09-09T05:57:54Z</time>
      </trkpt>
      <trkpt lat="42.26885" lon="8.8935">
        <ele>1354.15</ele>
        <time>2015-09-09T05:58:08Z</time>
      </trkpt>
      <trkpt lat="42.26876" lon="8.89357">
        <ele>1354.15</ele>
        <time>2015-09-09T05:58:20Z</time>
      </trkpt>
      <trkpt lat="42.26873" lon="8.8936">
        <ele>1354.15</ele>
        <time>2015-09-09T05:58:24Z</time>
      </trkpt>
      <trkpt lat="42.26863" lon="8.89365">
        <ele>1354.15</ele>
        <time>2015-09-09T05:58:37Z</time>
      </trkpt>
      <trkpt lat="42.26843" lon="8.89358">
        <ele>1354.63</ele>
        <time>2015-09-09T05:58:56Z</time>
      </trkpt>
      <trkpt lat="42.26832" lon="8.89355">
        <ele>1354.63</ele>
        <time>2015-09-09T05:59:12Z</time>
      </trkpt>
      <trkpt lat="42.26816" lon="8.89352">
        <ele>1355.12</ele>
        <time>2015-09-09T05:59:31Z</time>
      </trkpt>
      <trkpt lat="42.26809" lon="8.89345">
        <ele>1355.6</ele>
        <time>2015-09-09T05:59:45Z</time>
      </trkpt>
      <trkpt lat="42.26796" lon="8.89341">
        <ele>1355.6</ele>
        <time>2015-09-09T06:00:03Z</time>
      </trkpt>
      <trkpt lat="42.26779" lon="8.89338">
        <ele>1355.6</ele>
        <time>2015-09-09T06:00:16Z</time>
      </trkpt>
      <trkpt lat="42.26764" lon="8.89329">
        <ele>1355.6</ele>
        <time>2015-09-09T06:00:34Z</time>
      </trkpt>
      <trkpt lat="42.26756" lon="8.8932">
        <ele>1355.6</ele>
        <time>2015-09-09T06:00:49Z</time>
      </trkpt>
      <trkpt lat="42.26747" lon="8.89312">
        <ele>1355.6</ele>
        <time>2015-09-09T06:00:59Z</time>
      </trkpt>
      <trkpt lat="42.26739" lon="8.89316">
        <ele>1355.6</ele>
        <time>2015-09-09T06:01:11Z</time>
      </trkpt>
      <trkpt lat="42.26732" lon="8.8933">
        <ele>1355.6</ele>
        <time>2015-09-09T06:01:24Z</time>
      </trkpt>
      <trkpt lat="42.26732" lon="8.89335">
        <ele>1354.63</ele>
        <time>2015-09-09T06:01:27Z</time>
      </trkpt>
      <trkpt lat="42.26725" lon="8.89349">
        <ele>1355.6</ele>
        <time>2015-09-09T06:01:42Z</time>
      </trkpt>
      <trkpt lat="42.26725" lon="8.89351">
        <ele>1355.6</ele>
        <time>2015-09-09T06:01:44Z</time>
      </trkpt>
      <trkpt lat="42.26719" lon="8.89365">
        <ele>1356.08</ele>
        <time>2015-09-09T06:01:59Z</time>
      </trkpt>
      <trkpt lat="42.26708" lon="8.89372">
        <ele>1356.56</ele>
        <time>2015-09-09T06:02:14Z</time>
      </trkpt>
      <trkpt lat="42.26697" lon="8.89374">
        <ele>1357.04</ele>
        <time>2015-09-09T06:02:29Z</time>
      </trkpt>
      <trkpt lat="42.26686" lon="8.89366">
        <ele>1357.52</ele>
        <time>2015-09-09T06:02:43Z</time>
      </trkpt>
      <trkpt lat="42.2668" lon="8.8936">
        <ele>1357.52</ele>
        <time>2015-09-09T06:02:50Z</time>
      </trkpt>
      <trkpt lat="42.26668" lon="8.8935">
        <ele>1358.48</ele>
        <time>2015-09-09T06:03:08Z</time>
      </trkpt>
      <trkpt lat="42.26665" lon="8.89345">
        <ele>1358.96</ele>
        <time>2015-09-09T06:03:26Z</time>
      </trkpt>
      <trkpt lat="42.26661" lon="8.89339">
        <ele>1358.96</ele>
        <time>2015-09-09T06:03:47Z</time>
      </trkpt>
      <trkpt lat="42.26661" lon="8.89342">
        <ele>1358.96</ele>
        <time>2015-09-09T06:04:16Z</time>
      </trkpt>
      <trkpt lat="42.26672" lon="8.89333">
        <ele>1358.96</ele>
        <time>2015-09-09T06:04:42Z</time>
      </trkpt>
      <trkpt lat="42.26665" lon="8.8934">
        <ele>1358.96</ele>
        <time>2015-09-09T06:05:06Z</time>
      </trkpt>
      <trkpt lat="42.26656" lon="8.89344">
        <ele>1358.96</ele>
        <time>2015-09-09T06:05:39Z</time>
      </trkpt>
      <trkpt lat="42.2666" lon="8.89349">
        <ele>1359.44</ele>
        <time>2015-09-09T06:06:09Z</time>
      </trkpt>
      <trkpt lat="42.26663" lon="8.89357">
        <ele>1359.44</ele>
        <time>2015-09-09T06:06:38Z</time>
      </trkpt>
      <trkpt lat="42.26665" lon="8.89354">
        <ele>1359.92</ele>
        <time>2015-09-09T06:07:10Z</time>
      </trkpt>
      <trkpt lat="42.26662" lon="8.89353">
        <ele>1360.4</ele>
        <time>2015-09-09T06:07:37Z</time>
      </trkpt>
      <trkpt lat="42.26663" lon="8.89345">
        <ele>1360.4</ele>
        <time>2015-09-09T06:08:05Z</time>
      </trkpt>
      <trkpt lat="42.26663" lon="8.8935">
        <ele>1360.88</ele>
        <time>2015-09-09T06:08:32Z</time>
      </trkpt>
      <trkpt lat="42.26662" lon="8.89354">
        <ele>1360.88</ele>
        <time>2015-09-09T06:08:58Z</time>
      </trkpt>
      <trkpt lat="42.26657" lon="8.89349">
        <ele>1360.88</ele>
        <time>2015-09-09T06:09:21Z</time>
      </trkpt>
      <trkpt lat="42.26648" lon="8.8936">
        <ele>1360.88</ele>
        <time>2015-09-09T06:09:36Z</time>
      </trkpt>
      <trkpt lat="42.26639" lon="8.89368">
        <ele>1360.88</ele>
        <time>2015-09-09T06:09:50Z</time>
      </trkpt>
      <trkpt lat="42.26627" lon="8.89378">
        <ele>1360.88</ele>
        <time>2015-09-09T06:10:06Z</time>
      </trkpt>
      <trkpt lat="42.26614" lon="8.89387">
        <ele>1360.88</ele>
        <time>2015-09-09T06:10:20Z</time>
      </trkpt>
      <trkpt lat="42.26601" lon="8.89386">
        <ele>1360.88</ele>
        <time>2015-09-09T06:10:36Z</time>
      </trkpt>
      <trkpt lat="42.2659" lon="8.89383">
        <ele>1360.88</ele>
        <time>2015-09-09T06:10:51Z</time>
      </trkpt>
      <trkpt lat="42.26588" lon="8.89381">
        <ele>1361.36</ele>
        <time>2015-09-09T06:10:53Z</time>
      </trkpt>
      <trkpt lat="42.26569" lon="8.89367">
        <ele>1361.84</ele>
        <time>2015-09-09T06:11:11Z</time>
      </trkpt>
      <trkpt lat="42.26567" lon="8.89368">
        <ele>1361.84</ele>
        <time>2015-09-09T06:11:12Z</time>
      </trkpt>
      <trkpt lat="42.26552" lon="8.89375">
        <ele>1362.33</ele>
        <time>2015-09-09T06:11:30Z</time>
      </trkpt>
      <trkpt lat="42.26536" lon="8.8938">
        <ele>1362.81</ele>
        <time>2015-09-09T06:11:46Z</time>
      </trkpt>
      <trkpt lat="42.26521" lon="8.89378">
        <ele>1363.77</ele>
        <time>2015-09-09T06:12:01Z</time>
      </trkpt>
      <trkpt lat="42.26504" lon="8.89388">
        <ele>1364.25</ele>
        <time>2015-09-09T06:12:19Z</time>
      </trkpt>
      <trkpt lat="42.26501" lon="8.89398">
        <ele>1364.73</ele>
        <time>2015-09-09T06:12:28Z</time>
      </trkpt>
      <trkpt lat="42.26507" lon="8.8942">
        <ele>1364.73</ele>
        <time>2015-09-09T06:12:44Z</time>
      </trkpt>
      <trkpt lat="42.26509" lon="8.89428">
        <ele>1364.73</ele>
        <time>2015-09-09T06:13:02Z</time>
      </trkpt>
      <trkpt lat="42.26508" lon="8.89438">
        <ele>1364.73</ele>
        <time>2015-09-09T06:13:19Z</time>
      </trkpt>
      <trkpt lat="42.26514" lon="8.89452">
        <ele>1363.77</ele>
        <time>2015-09-09T06:13:36Z</time>
      </trkpt>
      <trkpt lat="42.26519" lon="8.89453">
        <ele>1363.77</ele>
        <time>2015-09-09T06:14:02Z</time>
      </trkpt>
      <trkpt lat="42.26519" lon="8.89454">
        <ele>1363.77</ele>
        <time>2015-09-09T06:14:03Z</time>
      </trkpt>
      <trkpt lat="42.26517" lon="8.89482">
        <ele>1363.77</ele>
        <time>2015-09-09T06:14:22Z</time>
      </trkpt>
      <trkpt lat="42.26519" lon="8.89502">
        <ele>1363.77</ele>
        <time>2015-09-09T06:14:37Z</time>
      </trkpt>
      <trkpt lat="42.2652" lon="8.89516">
        <ele>1363.29</ele>
        <time>2015-09-09T06:14:47Z</time>
      </trkpt>
      <trkpt lat="42.26519" lon="8.89538">
        <ele>1363.29</ele>
        <time>2015-09-09T06:15:01Z</time>
      </trkpt>
      <trkpt lat="42.26518" lon="8.89554">
        <ele>1363.29</ele>
        <time>2015-09-09T06:15:11Z</time>
      </trkpt>
      <trkpt lat="42.26518" lon="8.89574">
        <ele>1363.29</ele>
        <time>2015-09-09T06:15:27Z</time>
      </trkpt>
      <trkpt lat="42.26514" lon="8.89575">
        <ele>1365.21</ele>
        <time>2015-09-09T06:15:40Z</time>
      </trkpt>
      <trkpt lat="42.26511" lon="8.89572">
        <ele>1367.13</ele>
        <time>2015-09-09T06:15:55Z</time>
      </trkpt>
      <trkpt lat="42.26507" lon="8.89573">
        <ele>1368.57</ele>
        <time>2015-09-09T06:16:10Z</time>
      </trkpt>
      <trkpt lat="42.26504" lon="8.89567">
        <ele>1370.02</ele>
        <time>2015-09-09T06:16:25Z</time>
      </trkpt>
      <trkpt lat="42.26499" lon="8.89569">
        <ele>1371.94</ele>
        <time>2015-09-09T06:16:40Z</time>
      </trkpt>
      <trkpt lat="42.26496" lon="8.89567">
        <ele>1373.38</ele>
        <time>2015-09-09T06:16:54Z</time>
      </trkpt>
      <trkpt lat="42.26492" lon="8.89565">
        <ele>1374.82</ele>
        <time>2015-09-09T06:17:09Z</time>
      </trkpt>
      <trkpt lat="42.26489" lon="8.89555">
        <ele>1378.19</ele>
        <time>2015-09-09T06:17:30Z</time>
      </trkpt>
      <trkpt lat="42.26486" lon="8.89546">
        <ele>1379.63</ele>
        <time>2015-09-09T06:17:44Z</time>
      </trkpt>
      <trkpt lat="42.26488" lon="8.89532">
        <ele>1381.07</ele>
        <time>2015-09-09T06:17:59Z</time>
      </trkpt>
      <trkpt lat="42.26485" lon="8.89518">
        <ele>1382.51</ele>
        <time>2015-09-09T06:18:16Z</time>
      </trkpt>
      <trkpt lat="42.26478" lon="8.89508">
        <ele>1384.92</ele>
        <time>2015-09-09T06:18:34Z</time>
      </trkpt>
      <trkpt lat="42.26471" lon="8.89494">
        <ele>1386.36</ele>
        <time>2015-09-09T06:18:51Z</time>
      </trkpt>
      <trkpt lat="42.26466" lon="8.89483">
        <ele>1388.28</ele>
        <time>2015-09-09T06:19:06Z</time>
      </trkpt>
      <trkpt lat="42.26461" lon="8.89471">
        <ele>1389.72</ele>
        <time>2015-09-09T06:19:21Z</time>
      </trkpt>
      <trkpt lat="42.26453" lon="8.89454">
        <ele>1390.68</ele>
        <time>2015-09-09T06:19:37Z</time>
      </trkpt>
      <trkpt lat="42.2645" lon="8.89437">
        <ele>1392.61</ele>
        <time>2015-09-09T06:19:54Z</time>
      </trkpt>
      <trkpt lat="42.26454" lon="8.89424">
        <ele>1393.57</ele>
        <time>2015-09-09T06:20:09Z</time>
      </trkpt>
      <trkpt lat="42.26452" lon="8.89412">
        <ele>1394.53</ele>
        <time>2015-09-09T06:20:26Z</time>
      </trkpt>
      <trkpt lat="42.26444" lon="8.89399">
        <ele>1396.45</ele>
        <time>2015-09-09T06:20:42Z</time>
      </trkpt>
      <trkpt lat="42.26432" lon="8.89381">
        <ele>1397.89</ele>
        <time>2015-09-09T06:20:59Z</time>
      </trkpt>
      <trkpt lat="42.26429" lon="8.89368">
        <ele>1399.82</ele>
        <time>2015-09-09T06:21:18Z</time>
      </trkpt>
      <trkpt lat="42.26433" lon="8.89355">
        <ele>1401.26</ele>
        <time>2015-09-09T06:21:32Z</time>
      </trkpt>
      <trkpt lat="42.26434" lon="8.89344">
        <ele>1402.7</ele>
        <time>2015-09-09T06:21:49Z</time>
      </trkpt>
      <trkpt lat="42.26432" lon="8.89336">
        <ele>1404.14</ele>
        <time>2015-09-09T06:22:03Z</time>
      </trkpt>
      <trkpt lat="42.26431" lon="8.89323">
        <ele>1405.58</ele>
        <time>2015-09-09T06:22:20Z</time>
      </trkpt>
      <trkpt lat="42.26427" lon="8.8931">
        <ele>1407.03</ele>
        <time>2015-09-09T06:22:36Z</time>
      </trkpt>
      <trkpt lat="42.26425" lon="8.89296">
        <ele>1409.43</ele>
        <time>2015-09-09T06:22:54Z</time>
      </trkpt>
      <trkpt lat="42.26435" lon="8.89287">
        <ele>1410.39</ele>
        <time>2015-09-09T06:23:11Z</time>
      </trkpt>
      <trkpt lat="42.26447" lon="8.89283">
        <ele>1411.35</ele>
        <time>2015-09-09T06:23:31Z</time>
      </trkpt>
      <trkpt lat="42.26458" lon="8.89284">
        <ele>1412.31</ele>
        <time>2015-09-09T06:23:47Z</time>
      </trkpt>
      <trkpt lat="42.26472" lon="8.89282">
        <ele>1412.79</ele>
        <time>2015-09-09T06:24:03Z</time>
      </trkpt>
      <trkpt lat="42.26475" lon="8.89274">
        <ele>1414.24</ele>
        <time>2015-09-09T06:24:17Z</time>
      </trkpt>
      <trkpt lat="42.2648" lon="8.89267">
        <ele>1416.64</ele>
        <time>2015-09-09T06:24:33Z</time>
      </trkpt>
      <trkpt lat="42.26487" lon="8.89263">
        <ele>1418.08</ele>
        <time>2015-09-09T06:24:49Z</time>
      </trkpt>
      <trkpt lat="42.26479" lon="8.89261">
        <ele>1419.52</ele>
        <time>2015-09-09T06:25:07Z</time>
      </trkpt>
      <trkpt lat="42.26467" lon="8.89262">
        <ele>1421.93</ele>
        <time>2015-09-09T06:25:25Z</time>
      </trkpt>
      <trkpt lat="42.26458" lon="8.89261">
        <ele>1422.41</ele>
        <time>2015-09-09T06:25:38Z</time>
      </trkpt>
      <trkpt lat="42.26447" lon="8.89258">
        <ele>1424.33</ele>
        <time>2015-09-09T06:25:54Z</time>
      </trkpt>
      <trkpt lat="42.26436" lon="8.89255">
        <ele>1426.73</ele>
        <time>2015-09-09T06:26:11Z</time>
      </trkpt>
      <trkpt lat="42.26425" lon="8.89253">
        <ele>1428.66</ele>
        <time>2015-09-09T06:26:29Z</time>
      </trkpt>
      <trkpt lat="42.26419" lon="8.89253">
        <ele>1429.62</ele>
        <time>2015-09-09T06:26:39Z</time>
      </trkpt>
      <trkpt lat="42.26409" lon="8.89253">
        <ele>1431.06</ele>
        <time>2015-09-09T06:26:54Z</time>
      </trkpt>
      <trkpt lat="42.264" lon="8.89251">
        <ele>1432.98</ele>
        <time>2015-09-09T06:27:11Z</time>
      </trkpt>
      <trkpt lat="42.26391" lon="8.89254">
        <ele>1433.94</ele>
        <time>2015-09-09T06:27:25Z</time>
      </trkpt>
      <trkpt lat="42.26381" lon="8.89266">
        <ele>1435.87</ele>
        <time>2015-09-09T06:27:42Z</time>
      </trkpt>
      <trkpt lat="42.26375" lon="8.89281">
        <ele>1437.31</ele>
        <time>2015-09-09T06:28:00Z</time>
      </trkpt>
      <trkpt lat="42.26366" lon="8.89292">
        <ele>1439.23</ele>
        <time>2015-09-09T06:28:20Z</time>
      </trkpt>
      <trkpt lat="42.26364" lon="8.89303">
        <ele>1442.11</ele>
        <time>2015-09-09T06:28:37Z</time>
      </trkpt>
      <trkpt lat="42.26363" lon="8.89313">
        <ele>1444.04</ele>
        <time>2015-09-09T06:28:50Z</time>
      </trkpt>
      <trkpt lat="42.26357" lon="8.89325">
        <ele>1445.48</ele>
        <time>2015-09-09T06:29:05Z</time>
      </trkpt>
      <trkpt lat="42.26353" lon="8.89337">
        <ele>1446.44</ele>
        <time>2015-09-09T06:29:21Z</time>
      </trkpt>
      <trkpt lat="42.26349" lon="8.89347">
        <ele>1448.36</ele>
        <time>2015-09-09T06:29:35Z</time>
      </trkpt>
      <trkpt lat="42.26344" lon="8.89345">
        <ele>1450.29</ele>
        <time>2015-09-09T06:29:52Z</time>
      </trkpt>
      <trkpt lat="42.26347" lon="8.89345">
        <ele>1450.77</ele>
        <time>2015-09-09T06:30:13Z</time>
      </trkpt>
      <trkpt lat="42.26344" lon="8.89337">
        <ele>1451.25</ele>
        <time>2015-09-09T06:30:33Z</time>
      </trkpt>
      <trkpt lat="42.2634" lon="8.89323">
        <ele>1453.65</ele>
        <time>2015-09-09T06:30:49Z</time>
      </trkpt>
      <trkpt lat="42.26337" lon="8.89308">
        <ele>1456.05</ele>
        <time>2015-09-09T06:31:05Z</time>
      </trkpt>
      <trkpt lat="42.26334" lon="8.89306">
        <ele>1456.53</ele>
        <time>2015-09-09T06:31:11Z</time>
      </trkpt>
      <trkpt lat="42.26325" lon="8.89302">
        <ele>1458.94</ele>
        <time>2015-09-09T06:31:25Z</time>
      </trkpt>
      <trkpt lat="42.26322" lon="8.89306">
        <ele>1459.42</ele>
        <time>2015-09-09T06:31:31Z</time>
      </trkpt>
      <trkpt lat="42.26322" lon="8.89309">
        <ele>1459.9</ele>
        <time>2015-09-09T06:31:34Z</time>
      </trkpt>
      <trkpt lat="42.26321" lon="8.89315">
        <ele>1459.9</ele>
        <time>2015-09-09T06:31:40Z</time>
      </trkpt>
      <trkpt lat="42.26316" lon="8.89325">
        <ele>1461.34</ele>
        <time>2015-09-09T06:31:56Z</time>
      </trkpt>
      <trkpt lat="42.26315" lon="8.89333">
        <ele>1462.78</ele>
        <time>2015-09-09T06:32:10Z</time>
      </trkpt>
      <trkpt lat="42.26306" lon="8.89331">
        <ele>1465.67</ele>
        <time>2015-09-09T06:32:26Z</time>
      </trkpt>
      <trkpt lat="42.26304" lon="8.89343">
        <ele>1467.11</ele>
        <time>2015-09-09T06:32:44Z</time>
      </trkpt>
      <trkpt lat="42.263" lon="8.89354">
        <ele>1469.51</ele>
        <time>2015-09-09T06:33:03Z</time>
      </trkpt>
      <trkpt lat="42.26293" lon="8.89362">
        <ele>1470.95</ele>
        <time>2015-09-09T06:33:21Z</time>
      </trkpt>
      <trkpt lat="42.26288" lon="8.89367">
        <ele>1472.4</ele>
        <time>2015-09-09T06:33:39Z</time>
      </trkpt>
      <trkpt lat="42.26287" lon="8.89374">
        <ele>1474.8</ele>
        <time>2015-09-09T06:33:54Z</time>
      </trkpt>
      <trkpt lat="42.26289" lon="8.89385">
        <ele>1476.72</ele>
        <time>2015-09-09T06:34:11Z</time>
      </trkpt>
      <trkpt lat="42.2629" lon="8.89396">
        <ele>1477.68</ele>
        <time>2015-09-09T06:34:25Z</time>
      </trkpt>
      <trkpt lat="42.26287" lon="8.894">
        <ele>1478.16</ele>
        <time>2015-09-09T06:34:39Z</time>
      </trkpt>
      <trkpt lat="42.26278" lon="8.89396">
        <ele>1480.57</ele>
        <time>2015-09-09T06:34:55Z</time>
      </trkpt>
      <trkpt lat="42.26274" lon="8.89406">
        <ele>1482.49</ele>
        <time>2015-09-09T06:35:11Z</time>
      </trkpt>
      <trkpt lat="42.26275" lon="8.8942">
        <ele>1482.97</ele>
        <time>2015-09-09T06:35:28Z</time>
      </trkpt>
      <trkpt lat="42.26275" lon="8.89427">
        <ele>1483.93</ele>
        <time>2015-09-09T06:35:42Z</time>
      </trkpt>
      <trkpt lat="42.26276" lon="8.89427">
        <ele>1483.93</ele>
        <time>2015-09-09T06:36:04Z</time>
      </trkpt>
      <trkpt lat="42.26275" lon="8.8943">
        <ele>1483.93</ele>
        <time>2015-09-09T06:36:06Z</time>
      </trkpt>
      <trkpt lat="42.26268" lon="8.89441">
        <ele>1485.85</ele>
        <time>2015-09-09T06:36:21Z</time>
      </trkpt>
      <trkpt lat="42.26258" lon="8.89448">
        <ele>1487.78</ele>
        <time>2015-09-09T06:36:34Z</time>
      </trkpt>
      <trkpt lat="42.26248" lon="8.89458">
        <ele>1489.22</ele>
        <time>2015-09-09T06:36:51Z</time>
      </trkpt>
      <trkpt lat="42.26238" lon="8.89461">
        <ele>1491.14</ele>
        <time>2015-09-09T06:37:08Z</time>
      </trkpt>
      <trkpt lat="42.26234" lon="8.89471">
        <ele>1492.58</ele>
        <time>2015-09-09T06:37:22Z</time>
      </trkpt>
      <trkpt lat="42.26227" lon="8.89479">
        <ele>1495.47</ele>
        <time>2015-09-09T06:37:39Z</time>
      </trkpt>
      <trkpt lat="42.26229" lon="8.89491">
        <ele>1496.43</ele>
        <time>2015-09-09T06:37:54Z</time>
      </trkpt>
      <trkpt lat="42.26223" lon="8.89502">
        <ele>1498.35</ele>
        <time>2015-09-09T06:38:11Z</time>
      </trkpt>
      <trkpt lat="42.26221" lon="8.89501">
        <ele>1498.83</ele>
        <time>2015-09-09T06:38:16Z</time>
      </trkpt>
      <trkpt lat="42.26211" lon="8.89501">
        <ele>1501.24</ele>
        <time>2015-09-09T06:38:34Z</time>
      </trkpt>
      <trkpt lat="42.26207" lon="8.89506">
        <ele>1504.6</ele>
        <time>2015-09-09T06:38:46Z</time>
      </trkpt>
      <trkpt lat="42.26199" lon="8.89505">
        <ele>1506.52</ele>
        <time>2015-09-09T06:39:02Z</time>
      </trkpt>
      <trkpt lat="42.26193" lon="8.89504">
        <ele>1508.93</ele>
        <time>2015-09-09T06:39:17Z</time>
      </trkpt>
      <trkpt lat="42.26182" lon="8.89506">
        <ele>1511.81</ele>
        <time>2015-09-09T06:39:34Z</time>
      </trkpt>
      <trkpt lat="42.26172" lon="8.8951">
        <ele>1514.69</ele>
        <time>2015-09-09T06:39:54Z</time>
      </trkpt>
      <trkpt lat="42.26162" lon="8.89515">
        <ele>1517.1</ele>
        <time>2015-09-09T06:40:12Z</time>
      </trkpt>
      <trkpt lat="42.26153" lon="8.8952">
        <ele>1517.58</ele>
        <time>2015-09-09T06:40:32Z</time>
      </trkpt>
      <trkpt lat="42.26151" lon="8.8952">
        <ele>1519.5</ele>
        <time>2015-09-09T06:40:34Z</time>
      </trkpt>
      <trkpt lat="42.26142" lon="8.89522">
        <ele>1519.5</ele>
        <time>2015-09-09T06:40:49Z</time>
      </trkpt>
      <trkpt lat="42.26133" lon="8.89519">
        <ele>1519.98</ele>
        <time>2015-09-09T06:41:07Z</time>
      </trkpt>
      <trkpt lat="42.26121" lon="8.89518">
        <ele>1520.46</ele>
        <time>2015-09-09T06:41:22Z</time>
      </trkpt>
      <trkpt lat="42.26111" lon="8.89516">
        <ele>1521.42</ele>
        <time>2015-09-09T06:41:38Z</time>
      </trkpt>
      <trkpt lat="42.261" lon="8.89515">
        <ele>1522.87</ele>
        <time>2015-09-09T06:41:55Z</time>
      </trkpt>
      <trkpt lat="42.26096" lon="8.89521">
        <ele>1526.23</ele>
        <time>2015-09-09T06:42:14Z</time>
      </trkpt>
      <trkpt lat="42.26098" lon="8.89531">
        <ele>1528.15</ele>
        <time>2015-09-09T06:42:29Z</time>
      </trkpt>
      <trkpt lat="42.26104" lon="8.89542">
        <ele>1530.56</ele>
        <time>2015-09-09T06:42:48Z</time>
      </trkpt>
      <trkpt lat="42.26108" lon="8.89552">
        <ele>1532.48</ele>
        <time>2015-09-09T06:43:02Z</time>
      </trkpt>
      <trkpt lat="42.26109" lon="8.89561">
        <ele>1535.36</ele>
        <time>2015-09-09T06:43:15Z</time>
      </trkpt>
      <trkpt lat="42.26099" lon="8.89557">
        <ele>1535.36</ele>
        <time>2015-09-09T06:43:30Z</time>
      </trkpt>
      <trkpt lat="42.26091" lon="8.89551">
        <ele>1535.84</ele>
        <time>2015-09-09T06:43:44Z</time>
      </trkpt>
      <trkpt lat="42.26083" lon="8.89547">
        <ele>1536.8</ele>
        <time>2015-09-09T06:43:59Z</time>
      </trkpt>
      <trkpt lat="42.26073" lon="8.89542">
        <ele>1537.77</ele>
        <time>2015-09-09T06:44:15Z</time>
      </trkpt>
      <trkpt lat="42.26073" lon="8.8955">
        <ele>1539.21</ele>
        <time>2015-09-09T06:44:29Z</time>
      </trkpt>
      <trkpt lat="42.26082" lon="8.89562">
        <ele>1540.65</ele>
        <time>2015-09-09T06:44:45Z</time>
      </trkpt>
      <trkpt lat="42.26087" lon="8.89572">
        <ele>1544.01</ele>
        <time>2015-09-09T06:44:59Z</time>
      </trkpt>
      <trkpt lat="42.26086" lon="8.89572">
        <ele>1544.01</ele>
        <time>2015-09-09T06:45:00Z</time>
      </trkpt>
      <trkpt lat="42.26075" lon="8.8957">
        <ele>1544.98</ele>
        <time>2015-09-09T06:45:18Z</time>
      </trkpt>
      <trkpt lat="42.26066" lon="8.89564">
        <ele>1545.46</ele>
        <time>2015-09-09T06:45:33Z</time>
      </trkpt>
      <trkpt lat="42.26066" lon="8.89573">
        <ele>1547.86</ele>
        <time>2015-09-09T06:45:50Z</time>
      </trkpt>
      <trkpt lat="42.26065" lon="8.89584">
        <ele>1550.26</ele>
        <time>2015-09-09T06:46:08Z</time>
      </trkpt>
      <trkpt lat="42.26058" lon="8.89591">
        <ele>1551.71</ele>
        <time>2015-09-09T06:46:24Z</time>
      </trkpt>
      <trkpt lat="42.26049" lon="8.89592">
        <ele>1553.15</ele>
        <time>2015-09-09T06:46:38Z</time>
      </trkpt>
      <trkpt lat="42.26039" lon="8.89596">
        <ele>1554.11</ele>
        <time>2015-09-09T06:46:54Z</time>
      </trkpt>
      <trkpt lat="42.26032" lon="8.896">
        <ele>1555.55</ele>
        <time>2015-09-09T06:47:10Z</time>
      </trkpt>
      <trkpt lat="42.26036" lon="8.89612">
        <ele>1556.99</ele>
        <time>2015-09-09T06:47:25Z</time>
      </trkpt>
      <trkpt lat="42.26038" lon="8.89624">
        <ele>1558.43</ele>
        <time>2015-09-09T06:47:40Z</time>
      </trkpt>
      <trkpt lat="42.26034" lon="8.89635">
        <ele>1560.84</ele>
        <time>2015-09-09T06:47:55Z</time>
      </trkpt>
      <trkpt lat="42.26027" lon="8.89649">
        <ele>1561.8</ele>
        <time>2015-09-09T06:48:13Z</time>
      </trkpt>
      <trkpt lat="42.26018" lon="8.89658">
        <ele>1563.24</ele>
        <time>2015-09-09T06:48:29Z</time>
      </trkpt>
      <trkpt lat="42.26008" lon="8.89665">
        <ele>1564.2</ele>
        <time>2015-09-09T06:48:45Z</time>
      </trkpt>
      <trkpt lat="42.26002" lon="8.89671">
        <ele>1564.68</ele>
        <time>2015-09-09T06:48:56Z</time>
      </trkpt>
      <trkpt lat="42.25991" lon="8.8968">
        <ele>1566.12</ele>
        <time>2015-09-09T06:49:13Z</time>
      </trkpt>
      <trkpt lat="42.25996" lon="8.89686">
        <ele>1568.05</ele>
        <time>2015-09-09T06:49:29Z</time>
      </trkpt>
      <trkpt lat="42.26006" lon="8.89691">
        <ele>1569.49</ele>
        <time>2015-09-09T06:49:44Z</time>
      </trkpt>
      <trkpt lat="42.26011" lon="8.89701">
        <ele>1571.89</ele>
        <time>2015-09-09T06:50:00Z</time>
      </trkpt>
      <trkpt lat="42.26006" lon="8.89712">
        <ele>1573.33</ele>
        <time>2015-09-09T06:50:16Z</time>
      </trkpt>
      <trkpt lat="42.25995" lon="8.89715">
        <ele>1574.78</ele>
        <time>2015-09-09T06:50:32Z</time>
      </trkpt>
      <trkpt lat="42.25993" lon="8.89715">
        <ele>1575.26</ele>
        <time>2015-09-09T06:50:51Z</time>
      </trkpt>
      <trkpt lat="42.25995" lon="8.8972">
        <ele>1575.74</ele>
        <time>2015-09-09T06:51:08Z</time>
      </trkpt>
      <trkpt lat="42.25998" lon="8.89729">
        <ele>1577.18</ele>
        <time>2015-09-09T06:51:23Z</time>
      </trkpt>
      <trkpt lat="42.25999" lon="8.89729">
        <ele>1577.18</ele>
        <time>2015-09-09T06:51:47Z</time>
      </trkpt>
      <trkpt lat="42.25998" lon="8.89729">
        <ele>1577.18</ele>
        <time>2015-09-09T06:52:04Z</time>
      </trkpt>
      <trkpt lat="42.25998" lon="8.89729">
        <ele>1577.18</ele>
        <time>2015-09-09T06:52:27Z</time>
      </trkpt>
      <trkpt lat="42.25997" lon="8.89729">
        <ele>1577.66</ele>
        <time>2015-09-09T06:52:51Z</time>
      </trkpt>
      <trkpt lat="42.25997" lon="8.89728">
        <ele>1577.66</ele>
        <time>2015-09-09T06:53:22Z</time>
      </trkpt>
      <trkpt lat="42.25992" lon="8.89735">
        <ele>1577.66</ele>
        <time>2015-09-09T06:53:37Z</time>
      </trkpt>
      <trkpt lat="42.25979" lon="8.89744">
        <ele>1579.58</ele>
        <time>2015-09-09T06:53:57Z</time>
      </trkpt>
      <trkpt lat="42.25971" lon="8.89748">
        <ele>1580.54</ele>
        <time>2015-09-09T06:54:11Z</time>
      </trkpt>
      <trkpt lat="42.25967" lon="8.8976">
        <ele>1582.95</ele>
        <time>2015-09-09T06:54:29Z</time>
      </trkpt>
      <trkpt lat="42.25968" lon="8.89773">
        <ele>1584.87</ele>
        <time>2015-09-09T06:54:45Z</time>
      </trkpt>
      <trkpt lat="42.25965" lon="8.89783">
        <ele>1585.83</ele>
        <time>2015-09-09T06:55:02Z</time>
      </trkpt>
      <trkpt lat="42.25963" lon="8.8979">
        <ele>1587.27</ele>
        <time>2015-09-09T06:55:17Z</time>
      </trkpt>
      <trkpt lat="42.2596" lon="8.89794">
        <ele>1587.75</ele>
        <time>2015-09-09T06:55:45Z</time>
      </trkpt>
      <trkpt lat="42.25951" lon="8.89803">
        <ele>1589.2</ele>
        <time>2015-09-09T06:56:01Z</time>
      </trkpt>
      <trkpt lat="42.25943" lon="8.89811">
        <ele>1590.16</ele>
        <time>2015-09-09T06:56:16Z</time>
      </trkpt>
      <trkpt lat="42.25929" lon="8.89818">
        <ele>1591.6</ele>
        <time>2015-09-09T06:56:35Z</time>
      </trkpt>
      <trkpt lat="42.2593" lon="8.89821">
        <ele>1592.56</ele>
        <time>2015-09-09T06:56:49Z</time>
      </trkpt>
      <trkpt lat="42.25932" lon="8.89833">
        <ele>1594.48</ele>
        <time>2015-09-09T06:57:11Z</time>
      </trkpt>
      <trkpt lat="42.25935" lon="8.89846">
        <ele>1595.93</ele>
        <time>2015-09-09T06:57:27Z</time>
      </trkpt>
      <trkpt lat="42.25931" lon="8.89861">
        <ele>1597.85</ele>
        <time>2015-09-09T06:57:44Z</time>
      </trkpt>
      <trkpt lat="42.25926" lon="8.89874">
        <ele>1598.81</ele>
        <time>2015-09-09T06:58:00Z</time>
      </trkpt>
      <trkpt lat="42.2592" lon="8.89889">
        <ele>1600.73</ele>
        <time>2015-09-09T06:58:16Z</time>
      </trkpt>
      <trkpt lat="42.25915" lon="8.89907">
        <ele>1601.69</ele>
        <time>2015-09-09T06:58:36Z</time>
      </trkpt>
      <trkpt lat="42.25906" lon="8.89924">
        <ele>1603.62</ele>
        <time>2015-09-09T06:58:55Z</time>
      </trkpt>
      <trkpt lat="42.25895" lon="8.89937">
        <ele>1605.06</ele>
        <time>2015-09-09T06:59:14Z</time>
      </trkpt>
      <trkpt lat="42.25885" lon="8.89943">
        <ele>1606.5</ele>
        <time>2015-09-09T06:59:32Z</time>
      </trkpt>
      <trkpt lat="42.25882" lon="8.89954">
        <ele>1607.94</ele>
        <time>2015-09-09T06:59:47Z</time>
      </trkpt>
      <trkpt lat="42.2588" lon="8.89969">
        <ele>1609.38</ele>
        <time>2015-09-09T07:00:05Z</time>
      </trkpt>
      <trkpt lat="42.25876" lon="8.89984">
        <ele>1610.83</ele>
        <time>2015-09-09T07:00:24Z</time>
      </trkpt>
      <trkpt lat="42.2587" lon="8.89997">
        <ele>1612.75</ele>
        <time>2015-09-09T07:00:44Z</time>
      </trkpt>
      <trkpt lat="42.25865" lon="8.90013">
        <ele>1615.63</ele>
        <time>2015-09-09T07:01:03Z</time>
      </trkpt>
      <trkpt lat="42.25858" lon="8.90024">
        <ele>1617.56</ele>
        <time>2015-09-09T07:01:22Z</time>
      </trkpt>
      <trkpt lat="42.25852" lon="8.90043">
        <ele>1618.52</ele>
        <time>2015-09-09T07:01:41Z</time>
      </trkpt>
      <trkpt lat="42.25848" lon="8.90057">
        <ele>1620.44</ele>
        <time>2015-09-09T07:01:58Z</time>
      </trkpt>
      <trkpt lat="42.25843" lon="8.90071">
        <ele>1621.88</ele>
        <time>2015-09-09T07:02:16Z</time>
      </trkpt>
      <trkpt lat="42.25834" lon="8.90093">
        <ele>1622.84</ele>
        <time>2015-09-09T07:02:38Z</time>
      </trkpt>
      <trkpt lat="42.25827" lon="8.90108">
        <ele>1624.77</ele>
        <time>2015-09-09T07:02:57Z</time>
      </trkpt>
      <trkpt lat="42.25826" lon="8.90121">
        <ele>1626.69</ele>
        <time>2015-09-09T07:03:14Z</time>
      </trkpt>
      <trkpt lat="42.25823" lon="8.90133">
        <ele>1628.61</ele>
        <time>2015-09-09T07:03:30Z</time>
      </trkpt>
      <trkpt lat="42.25819" lon="8.90145">
        <ele>1629.57</ele>
        <time>2015-09-09T07:03:46Z</time>
      </trkpt>
      <trkpt lat="42.25818" lon="8.90159">
        <ele>1631.49</ele>
        <time>2015-09-09T07:04:02Z</time>
      </trkpt>
      <trkpt lat="42.25816" lon="8.90176">
        <ele>1632.46</ele>
        <time>2015-09-09T07:04:20Z</time>
      </trkpt>
      <trkpt lat="42.25815" lon="8.90192">
        <ele>1634.38</ele>
        <time>2015-09-09T07:04:37Z</time>
      </trkpt>
      <trkpt lat="42.25811" lon="8.90211">
        <ele>1635.82</ele>
        <time>2015-09-09T07:05:00Z</time>
      </trkpt>
      <trkpt lat="42.25804" lon="8.90228">
        <ele>1637.26</ele>
        <time>2015-09-09T07:05:19Z</time>
      </trkpt>
      <trkpt lat="42.25792" lon="8.90237">
        <ele>1638.22</ele>
        <time>2015-09-09T07:05:37Z</time>
      </trkpt>
      <trkpt lat="42.25778" lon="8.90242">
        <ele>1639.19</ele>
        <time>2015-09-09T07:05:56Z</time>
      </trkpt>
      <trkpt lat="42.25765" lon="8.90248">
        <ele>1640.15</ele>
        <time>2015-09-09T07:06:14Z</time>
      </trkpt>
      <trkpt lat="42.25754" lon="8.90252">
        <ele>1641.11</ele>
        <time>2015-09-09T07:06:32Z</time>
      </trkpt>
      <trkpt lat="42.25746" lon="8.9026">
        <ele>1642.55</ele>
        <time>2015-09-09T07:06:50Z</time>
      </trkpt>
      <trkpt lat="42.25735" lon="8.90273">
        <ele>1643.51</ele>
        <time>2015-09-09T07:07:12Z</time>
      </trkpt>
      <trkpt lat="42.25725" lon="8.90281">
        <ele>1643.99</ele>
        <time>2015-09-09T07:07:31Z</time>
      </trkpt>
      <trkpt lat="42.25715" lon="8.90291">
        <ele>1646.4</ele>
        <time>2015-09-09T07:07:53Z</time>
      </trkpt>
      <trkpt lat="42.25706" lon="8.90312">
        <ele>1645.43</ele>
        <time>2015-09-09T07:08:11Z</time>
      </trkpt>
      <trkpt lat="42.25693" lon="8.90322">
        <ele>1645.43</ele>
        <time>2015-09-09T07:08:27Z</time>
      </trkpt>
      <trkpt lat="42.25691" lon="8.90324">
        <ele>1646.88</ele>
        <time>2015-09-09T07:08:30Z</time>
      </trkpt>
      <trkpt lat="42.25679" lon="8.90332">
        <ele>1647.36</ele>
        <time>2015-09-09T07:08:49Z</time>
      </trkpt>
      <trkpt lat="42.2567" lon="8.9034">
        <ele>1647.84</ele>
        <time>2015-09-09T07:09:04Z</time>
      </trkpt>
      <trkpt lat="42.25662" lon="8.90349">
        <ele>1649.76</ele>
        <time>2015-09-09T07:09:21Z</time>
      </trkpt>
      <trkpt lat="42.25656" lon="8.90357">
        <ele>1651.2</ele>
        <time>2015-09-09T07:09:36Z</time>
      </trkpt>
      <trkpt lat="42.25648" lon="8.90367">
        <ele>1652.16</ele>
        <time>2015-09-09T07:09:56Z</time>
      </trkpt>
      <trkpt lat="42.25639" lon="8.90375">
        <ele>1654.09</ele>
        <time>2015-09-09T07:10:16Z</time>
      </trkpt>
      <trkpt lat="42.25636" lon="8.90384">
        <ele>1655.05</ele>
        <time>2015-09-09T07:10:30Z</time>
      </trkpt>
      <trkpt lat="42.25629" lon="8.90391">
        <ele>1657.45</ele>
        <time>2015-09-09T07:10:51Z</time>
      </trkpt>
      <trkpt lat="42.25627" lon="8.90397">
        <ele>1657.93</ele>
        <time>2015-09-09T07:11:11Z</time>
      </trkpt>
      <trkpt lat="42.2563" lon="8.90397">
        <ele>1658.41</ele>
        <time>2015-09-09T07:11:36Z</time>
      </trkpt>
      <trkpt lat="42.25631" lon="8.90399">
        <ele>1658.41</ele>
        <time>2015-09-09T07:12:01Z</time>
      </trkpt>
      <trkpt lat="42.25628" lon="8.90398">
        <ele>1658.41</ele>
        <time>2015-09-09T07:12:23Z</time>
      </trkpt>
      <trkpt lat="42.25628" lon="8.90399">
        <ele>1658.89</ele>
        <time>2015-09-09T07:12:49Z</time>
      </trkpt>
      <trkpt lat="42.2563" lon="8.90398">
        <ele>1658.89</ele>
        <time>2015-09-09T07:13:17Z</time>
      </trkpt>
      <trkpt lat="42.25628" lon="8.90398">
        <ele>1659.37</ele>
        <time>2015-09-09T07:13:42Z</time>
      </trkpt>
      <trkpt lat="42.2563" lon="8.90395">
        <ele>1659.37</ele>
        <time>2015-09-09T07:14:10Z</time>
      </trkpt>
      <trkpt lat="42.25626" lon="8.90398">
        <ele>1658.89</ele>
        <time>2015-09-09T07:14:31Z</time>
      </trkpt>
      <trkpt lat="42.25626" lon="8.90401">
        <ele>1659.37</ele>
        <time>2015-09-09T07:14:51Z</time>
      </trkpt>
      <trkpt lat="42.25631" lon="8.90399">
        <ele>1659.37</ele>
        <time>2015-09-09T07:15:17Z</time>
      </trkpt>
      <trkpt lat="42.25633" lon="8.90401">
        <ele>1659.37</ele>
        <time>2015-09-09T07:15:42Z</time>
      </trkpt>
      <trkpt lat="42.25632" lon="8.90401">
        <ele>1659.37</ele>
        <time>2015-09-09T07:16:15Z</time>
      </trkpt>
      <trkpt lat="42.25631" lon="8.90399">
        <ele>1658.89</ele>
        <time>2015-09-09T07:16:46Z</time>
      </trkpt>
      <trkpt lat="42.25629" lon="8.90402">
        <ele>1658.89</ele>
        <time>2015-09-09T07:17:16Z</time>
      </trkpt>
      <trkpt lat="42.25628" lon="8.904">
        <ele>1659.37</ele>
        <time>2015-09-09T07:17:49Z</time>
      </trkpt>
      <trkpt lat="42.25624" lon="8.904">
        <ele>1659.37</ele>
        <time>2015-09-09T07:18:10Z</time>
      </trkpt>
      <trkpt lat="42.25616" lon="8.9041">
        <ele>1660.81</ele>
        <time>2015-09-09T07:18:26Z</time>
      </trkpt>
      <trkpt lat="42.25612" lon="8.90422">
        <ele>1661.3</ele>
        <time>2015-09-09T07:18:40Z</time>
      </trkpt>
      <trkpt lat="42.2561" lon="8.90439">
        <ele>1662.74</ele>
        <time>2015-09-09T07:18:56Z</time>
      </trkpt>
      <trkpt lat="42.2561" lon="8.90453">
        <ele>1662.74</ele>
        <time>2015-09-09T07:19:09Z</time>
      </trkpt>
      <trkpt lat="42.2561" lon="8.90454">
        <ele>1662.74</ele>
        <time>2015-09-09T07:19:10Z</time>
      </trkpt>
      <trkpt lat="42.25607" lon="8.90469">
        <ele>1662.74</ele>
        <time>2015-09-09T07:19:25Z</time>
      </trkpt>
      <trkpt lat="42.25605" lon="8.90482">
        <ele>1662.74</ele>
        <time>2015-09-09T07:19:37Z</time>
      </trkpt>
      <trkpt lat="42.256" lon="8.90496">
        <ele>1664.18</ele>
        <time>2015-09-09T07:19:52Z</time>
      </trkpt>
      <trkpt lat="42.25596" lon="8.9051">
        <ele>1665.62</ele>
        <time>2015-09-09T07:20:10Z</time>
      </trkpt>
      <trkpt lat="42.25595" lon="8.90522">
        <ele>1666.58</ele>
        <time>2015-09-09T07:20:24Z</time>
      </trkpt>
      <trkpt lat="42.25595" lon="8.90536">
        <ele>1668.51</ele>
        <time>2015-09-09T07:20:41Z</time>
      </trkpt>
      <trkpt lat="42.25595" lon="8.90549">
        <ele>1668.99</ele>
        <time>2015-09-09T07:20:55Z</time>
      </trkpt>
      <trkpt lat="42.25596" lon="8.90565">
        <ele>1670.43</ele>
        <time>2015-09-09T07:21:12Z</time>
      </trkpt>
      <trkpt lat="42.25596" lon="8.90579">
        <ele>1672.35</ele>
        <time>2015-09-09T07:21:29Z</time>
      </trkpt>
      <trkpt lat="42.25595" lon="8.90591">
        <ele>1673.79</ele>
        <time>2015-09-09T07:21:46Z</time>
      </trkpt>
      <trkpt lat="42.25592" lon="8.90603">
        <ele>1675.23</ele>
        <time>2015-09-09T07:22:01Z</time>
      </trkpt>
      <trkpt lat="42.25591" lon="8.90621">
        <ele>1676.2</ele>
        <time>2015-09-09T07:22:18Z</time>
      </trkpt>
      <trkpt lat="42.25589" lon="8.90636">
        <ele>1677.16</ele>
        <time>2015-09-09T07:22:34Z</time>
      </trkpt>
      <trkpt lat="42.25591" lon="8.90653">
        <ele>1679.56</ele>
        <time>2015-09-09T07:22:51Z</time>
      </trkpt>
      <trkpt lat="42.25587" lon="8.90654">
        <ele>1681</ele>
        <time>2015-09-09T07:23:08Z</time>
      </trkpt>
      <trkpt lat="42.25582" lon="8.9064">
        <ele>1682.93</ele>
        <time>2015-09-09T07:23:25Z</time>
      </trkpt>
      <trkpt lat="42.25579" lon="8.9062">
        <ele>1683.89</ele>
        <time>2015-09-09T07:23:42Z</time>
      </trkpt>
      <trkpt lat="42.25576" lon="8.90604">
        <ele>1684.85</ele>
        <time>2015-09-09T07:23:59Z</time>
      </trkpt>
      <trkpt lat="42.25571" lon="8.90596">
        <ele>1686.77</ele>
        <time>2015-09-09T07:24:14Z</time>
      </trkpt>
      <trkpt lat="42.25564" lon="8.90596">
        <ele>1689.17</ele>
        <time>2015-09-09T07:24:33Z</time>
      </trkpt>
      <trkpt lat="42.25558" lon="8.90607">
        <ele>1691.1</ele>
        <time>2015-09-09T07:24:50Z</time>
      </trkpt>
      <trkpt lat="42.25558" lon="8.90619">
        <ele>1692.06</ele>
        <time>2015-09-09T07:25:05Z</time>
      </trkpt>
      <trkpt lat="42.25558" lon="8.90627">
        <ele>1693.02</ele>
        <time>2015-09-09T07:25:17Z</time>
      </trkpt>
      <trkpt lat="42.25556" lon="8.90637">
        <ele>1694.94</ele>
        <time>2015-09-09T07:25:34Z</time>
      </trkpt>
      <trkpt lat="42.25557" lon="8.90651">
        <ele>1695.9</ele>
        <time>2015-09-09T07:25:48Z</time>
      </trkpt>
      <trkpt lat="42.25565" lon="8.90665">
        <ele>1696.86</ele>
        <time>2015-09-09T07:26:05Z</time>
      </trkpt>
      <trkpt lat="42.2557" lon="8.90678">
        <ele>1697.83</ele>
        <time>2015-09-09T07:26:22Z</time>
      </trkpt>
      <trkpt lat="42.25579" lon="8.90688">
        <ele>1699.27</ele>
        <time>2015-09-09T07:26:39Z</time>
      </trkpt>
      <trkpt lat="42.25585" lon="8.90702">
        <ele>1700.71</ele>
        <time>2015-09-09T07:26:57Z</time>
      </trkpt>
      <trkpt lat="42.25591" lon="8.90714">
        <ele>1703.11</ele>
        <time>2015-09-09T07:27:15Z</time>
      </trkpt>
      <trkpt lat="42.25593" lon="8.90727">
        <ele>1704.55</ele>
        <time>2015-09-09T07:27:34Z</time>
      </trkpt>
      <trkpt lat="42.25593" lon="8.90737">
        <ele>1706.48</ele>
        <time>2015-09-09T07:27:49Z</time>
      </trkpt>
      <trkpt lat="42.25586" lon="8.90734">
        <ele>1708.88</ele>
        <time>2015-09-09T07:28:07Z</time>
      </trkpt>
      <trkpt lat="42.25577" lon="8.90722">
        <ele>1709.36</ele>
        <time>2015-09-09T07:28:25Z</time>
      </trkpt>
      <trkpt lat="42.25568" lon="8.90715">
        <ele>1710.8</ele>
        <time>2015-09-09T07:28:43Z</time>
      </trkpt>
      <trkpt lat="42.2556" lon="8.9071">
        <ele>1711.76</ele>
        <time>2015-09-09T07:28:57Z</time>
      </trkpt>
      <trkpt lat="42.25548" lon="8.90702">
        <ele>1713.21</ele>
        <time>2015-09-09T07:29:16Z</time>
      </trkpt>
      <trkpt lat="42.25537" lon="8.90698">
        <ele>1714.17</ele>
        <time>2015-09-09T07:29:31Z</time>
      </trkpt>
      <trkpt lat="42.25533" lon="8.90681">
        <ele>1713.69</ele>
        <time>2015-09-09T07:29:48Z</time>
      </trkpt>
      <trkpt lat="42.25525" lon="8.90672">
        <ele>1715.61</ele>
        <time>2015-09-09T07:30:03Z</time>
      </trkpt>
      <trkpt lat="42.25518" lon="8.90668">
        <ele>1717.53</ele>
        <time>2015-09-09T07:30:19Z</time>
      </trkpt>
      <trkpt lat="42.25509" lon="8.90666">
        <ele>1718.97</ele>
        <time>2015-09-09T07:30:36Z</time>
      </trkpt>
      <trkpt lat="42.25506" lon="8.90669">
        <ele>1721.38</ele>
        <time>2015-09-09T07:30:52Z</time>
      </trkpt>
      <trkpt lat="42.2551" lon="8.9068">
        <ele>1723.3</ele>
        <time>2015-09-09T07:31:07Z</time>
      </trkpt>
      <trkpt lat="42.25518" lon="8.90692">
        <ele>1724.26</ele>
        <time>2015-09-09T07:31:24Z</time>
      </trkpt>
      <trkpt lat="42.25526" lon="8.90705">
        <ele>1725.7</ele>
        <time>2015-09-09T07:31:43Z</time>
      </trkpt>
      <trkpt lat="42.25529" lon="8.90718">
        <ele>1727.15</ele>
        <time>2015-09-09T07:32:00Z</time>
      </trkpt>
      <trkpt lat="42.25537" lon="8.90732">
        <ele>1727.63</ele>
        <time>2015-09-09T07:32:16Z</time>
      </trkpt>
      <trkpt lat="42.25543" lon="8.90748">
        <ele>1728.59</ele>
        <time>2015-09-09T07:32:32Z</time>
      </trkpt>
      <trkpt lat="42.25543" lon="8.90761">
        <ele>1730.99</ele>
        <time>2015-09-09T07:32:49Z</time>
      </trkpt>
      <trkpt lat="42.2554" lon="8.90771">
        <ele>1733.88</ele>
        <time>2015-09-09T07:33:07Z</time>
      </trkpt>
      <trkpt lat="42.25539" lon="8.90777">
        <ele>1735.32</ele>
        <time>2015-09-09T07:33:25Z</time>
      </trkpt>
      <trkpt lat="42.25538" lon="8.90789">
        <ele>1738.68</ele>
        <time>2015-09-09T07:33:43Z</time>
      </trkpt>
      <trkpt lat="42.25536" lon="8.90804">
        <ele>1741.08</ele>
        <time>2015-09-09T07:34:02Z</time>
      </trkpt>
      <trkpt lat="42.25535" lon="8.90812">
        <ele>1739.16</ele>
        <time>2015-09-09T07:34:17Z</time>
      </trkpt>
      <trkpt lat="42.25532" lon="8.90827">
        <ele>1737.72</ele>
        <time>2015-09-09T07:34:33Z</time>
      </trkpt>
      <trkpt lat="42.25528" lon="8.9084">
        <ele>1737.72</ele>
        <time>2015-09-09T07:34:49Z</time>
      </trkpt>
      <trkpt lat="42.25527" lon="8.90843">
        <ele>1739.16</ele>
        <time>2015-09-09T07:34:54Z</time>
      </trkpt>
      <trkpt lat="42.25524" lon="8.9085">
        <ele>1741.08</ele>
        <time>2015-09-09T07:35:11Z</time>
      </trkpt>
      <trkpt lat="42.25522" lon="8.90856">
        <ele>1743.49</ele>
        <time>2015-09-09T07:35:28Z</time>
      </trkpt>
      <trkpt lat="42.25519" lon="8.90858">
        <ele>1745.41</ele>
        <time>2015-09-09T07:35:46Z</time>
      </trkpt>
      <trkpt lat="42.25515" lon="8.90853">
        <ele>1747.33</ele>
        <time>2015-09-09T07:36:04Z</time>
      </trkpt>
      <trkpt lat="42.2551" lon="8.90859">
        <ele>1748.29</ele>
        <time>2015-09-09T07:36:28Z</time>
      </trkpt>
      <trkpt lat="42.25507" lon="8.90868">
        <ele>1749.74</ele>
        <time>2015-09-09T07:36:42Z</time>
      </trkpt>
      <trkpt lat="42.25504" lon="8.90876">
        <ele>1751.66</ele>
        <time>2015-09-09T07:36:57Z</time>
      </trkpt>
      <trkpt lat="42.25499" lon="8.90892">
        <ele>1752.14</ele>
        <time>2015-09-09T07:37:14Z</time>
      </trkpt>
      <trkpt lat="42.25497" lon="8.90907">
        <ele>1753.58</ele>
        <time>2015-09-09T07:37:30Z</time>
      </trkpt>
      <trkpt lat="42.25497" lon="8.90922">
        <ele>1755.5</ele>
        <time>2015-09-09T07:37:46Z</time>
      </trkpt>
      <trkpt lat="42.255" lon="8.90937">
        <ele>1755.5</ele>
        <time>2015-09-09T07:38:00Z</time>
      </trkpt>
      <trkpt lat="42.25501" lon="8.90955">
        <ele>1757.91</ele>
        <time>2015-09-09T07:38:17Z</time>
      </trkpt>
      <trkpt lat="42.255" lon="8.90968">
        <ele>1759.83</ele>
        <time>2015-09-09T07:38:32Z</time>
      </trkpt>
      <trkpt lat="42.25498" lon="8.90979">
        <ele>1759.83</ele>
        <time>2015-09-09T07:38:49Z</time>
      </trkpt>
      <trkpt lat="42.25498" lon="8.90979">
        <ele>1763.2</ele>
        <time>2015-09-09T07:39:06Z</time>
      </trkpt>
      <trkpt lat="42.25498" lon="8.90979">
        <ele>1764.16</ele>
        <time>2015-09-09T07:39:25Z</time>
      </trkpt>
      <trkpt lat="42.255" lon="8.90985">
        <ele>1761.75</ele>
        <time>2015-09-09T07:39:52Z</time>
      </trkpt>
      <trkpt lat="42.25499" lon="8.90986">
        <ele>1762.71</ele>
        <time>2015-09-09T07:40:08Z</time>
      </trkpt>
      <trkpt lat="42.25502" lon="8.90989">
        <ele>1763.2</ele>
        <time>2015-09-09T07:40:13Z</time>
      </trkpt>
      <trkpt lat="42.25504" lon="8.90991">
        <ele>1763.2</ele>
        <time>2015-09-09T07:40:16Z</time>
      </trkpt>
      <trkpt lat="42.25509" lon="8.90999">
        <ele>1761.75</ele>
        <time>2015-09-09T07:40:25Z</time>
      </trkpt>
      <trkpt lat="42.25512" lon="8.91003">
        <ele>1761.75</ele>
        <time>2015-09-09T07:40:31Z</time>
      </trkpt>
      <trkpt lat="42.2552" lon="8.91019">
        <ele>1760.79</ele>
        <time>2015-09-09T07:40:48Z</time>
      </trkpt>
      <trkpt lat="42.25525" lon="8.91025">
        <ele>1762.23</ele>
        <time>2015-09-09T07:40:59Z</time>
      </trkpt>
      <trkpt lat="42.2553" lon="8.91038">
        <ele>1764.64</ele>
        <time>2015-09-09T07:41:14Z</time>
      </trkpt>
      <trkpt lat="42.25533" lon="8.91048">
        <ele>1764.64</ele>
        <time>2015-09-09T07:41:30Z</time>
      </trkpt>
      <trkpt lat="42.25534" lon="8.91052">
        <ele>1764.64</ele>
        <time>2015-09-09T07:41:54Z</time>
      </trkpt>
      <trkpt lat="42.2554" lon="8.91067">
        <ele>1763.68</ele>
        <time>2015-09-09T07:42:10Z</time>
      </trkpt>
      <trkpt lat="42.25542" lon="8.91081">
        <ele>1765.6</ele>
        <time>2015-09-09T07:42:24Z</time>
      </trkpt>
      <trkpt lat="42.25541" lon="8.91089">
        <ele>1766.56</ele>
        <time>2015-09-09T07:42:40Z</time>
      </trkpt>
      <trkpt lat="42.25542" lon="8.91104">
        <ele>1767.52</ele>
        <time>2015-09-09T07:42:57Z</time>
      </trkpt>
      <trkpt lat="42.25544" lon="8.91122">
        <ele>1768.96</ele>
        <time>2015-09-09T07:43:13Z</time>
      </trkpt>
      <trkpt lat="42.25543" lon="8.91142">
        <ele>1770.89</ele>
        <time>2015-09-09T07:43:30Z</time>
      </trkpt>
      <trkpt lat="42.25539" lon="8.9116">
        <ele>1771.37</ele>
        <time>2015-09-09T07:43:46Z</time>
      </trkpt>
      <trkpt lat="42.25534" lon="8.91182">
        <ele>1772.33</ele>
        <time>2015-09-09T07:44:06Z</time>
      </trkpt>
      <trkpt lat="42.2553" lon="8.91202">
        <ele>1774.25</ele>
        <time>2015-09-09T07:44:24Z</time>
      </trkpt>
      <trkpt lat="42.25528" lon="8.91222">
        <ele>1775.69</ele>
        <time>2015-09-09T07:44:41Z</time>
      </trkpt>
      <trkpt lat="42.25524" lon="8.91241">
        <ele>1776.65</ele>
        <time>2015-09-09T07:44:58Z</time>
      </trkpt>
      <trkpt lat="42.25522" lon="8.91249">
        <ele>1777.61</ele>
        <time>2015-09-09T07:45:05Z</time>
      </trkpt>
      <trkpt lat="42.2552" lon="8.91271">
        <ele>1777.61</ele>
        <time>2015-09-09T07:45:21Z</time>
      </trkpt>
      <trkpt lat="42.25518" lon="8.91291">
        <ele>1778.1</ele>
        <time>2015-09-09T07:45:37Z</time>
      </trkpt>
      <trkpt lat="42.25517" lon="8.91309">
        <ele>1779.54</ele>
        <time>2015-09-09T07:45:54Z</time>
      </trkpt>
      <trkpt lat="42.25514" lon="8.9131">
        <ele>1780.98</ele>
        <time>2015-09-09T07:46:12Z</time>
      </trkpt>
      <trkpt lat="42.25515" lon="8.9131">
        <ele>1779.06</ele>
        <time>2015-09-09T07:46:21Z</time>
      </trkpt>
      <trkpt lat="42.25515" lon="8.9131">
        <ele>1780.98</ele>
        <time>2015-09-09T07:46:26Z</time>
      </trkpt>
      <trkpt lat="42.25517" lon="8.91317">
        <ele>1779.54</ele>
        <time>2015-09-09T07:46:41Z</time>
      </trkpt>
      <trkpt lat="42.25515" lon="8.91334">
        <ele>1779.54</ele>
        <time>2015-09-09T07:46:56Z</time>
      </trkpt>
      <trkpt lat="42.25511" lon="8.91344">
        <ele>1780.98</ele>
        <time>2015-09-09T07:47:07Z</time>
      </trkpt>
      <trkpt lat="42.25511" lon="8.91359">
        <ele>1780.98</ele>
        <time>2015-09-09T07:47:24Z</time>
      </trkpt>
      <trkpt lat="42.25513" lon="8.91367">
        <ele>1781.46</ele>
        <time>2015-09-09T07:47:32Z</time>
      </trkpt>
      <trkpt lat="42.25513" lon="8.91382">
        <ele>1784.34</ele>
        <time>2015-09-09T07:47:48Z</time>
      </trkpt>
      <trkpt lat="42.25515" lon="8.91396">
        <ele>1786.27</ele>
        <time>2015-09-09T07:48:05Z</time>
      </trkpt>
      <trkpt lat="42.25517" lon="8.91408">
        <ele>1786.27</ele>
        <time>2015-09-09T07:48:22Z</time>
      </trkpt>
      <trkpt lat="42.25519" lon="8.91421">
        <ele>1787.71</ele>
        <time>2015-09-09T07:48:41Z</time>
      </trkpt>
      <trkpt lat="42.25522" lon="8.91434">
        <ele>1788.67</ele>
        <time>2015-09-09T07:48:59Z</time>
      </trkpt>
      <trkpt lat="42.25524" lon="8.91447">
        <ele>1790.59</ele>
        <time>2015-09-09T07:49:17Z</time>
      </trkpt>
      <trkpt lat="42.25523" lon="8.91462">
        <ele>1792.52</ele>
        <time>2015-09-09T07:49:36Z</time>
      </trkpt>
      <trkpt lat="42.25526" lon="8.91477">
        <ele>1793.96</ele>
        <time>2015-09-09T07:49:55Z</time>
      </trkpt>
      <trkpt lat="42.25527" lon="8.9149">
        <ele>1795.4</ele>
        <time>2015-09-09T07:50:10Z</time>
      </trkpt>
      <trkpt lat="42.25528" lon="8.91502">
        <ele>1797.8</ele>
        <time>2015-09-09T07:50:27Z</time>
      </trkpt>
      <trkpt lat="42.25528" lon="8.91507">
        <ele>1798.76</ele>
        <time>2015-09-09T07:50:45Z</time>
      </trkpt>
      <trkpt lat="42.2553" lon="8.91519">
        <ele>1800.69</ele>
        <time>2015-09-09T07:51:03Z</time>
      </trkpt>
      <trkpt lat="42.25532" lon="8.91532">
        <ele>1802.13</ele>
        <time>2015-09-09T07:51:17Z</time>
      </trkpt>
      <trkpt lat="42.25538" lon="8.91548">
        <ele>1801.65</ele>
        <time>2015-09-09T07:51:33Z</time>
      </trkpt>
      <trkpt lat="42.25538" lon="8.91549">
        <ele>1801.65</ele>
        <time>2015-09-09T07:51:34Z</time>
      </trkpt>
      <trkpt lat="42.25539" lon="8.91553">
        <ele>1801.65</ele>
        <time>2015-09-09T07:51:37Z</time>
      </trkpt>
      <trkpt lat="42.25539" lon="8.91569">
        <ele>1803.57</ele>
        <time>2015-09-09T07:51:52Z</time>
      </trkpt>
      <trkpt lat="42.25536" lon="8.91578">
        <ele>1804.53</ele>
        <time>2015-09-09T07:52:11Z</time>
      </trkpt>
      <trkpt lat="42.25535" lon="8.91583">
        <ele>1804.53</ele>
        <time>2015-09-09T07:52:28Z</time>
      </trkpt>
      <trkpt lat="42.25535" lon="8.91593">
        <ele>1804.05</ele>
        <time>2015-09-09T07:52:50Z</time>
      </trkpt>
      <trkpt lat="42.25535" lon="8.91598">
        <ele>1803.09</ele>
        <time>2015-09-09T07:53:07Z</time>
      </trkpt>
      <trkpt lat="42.25537" lon="8.91605">
        <ele>1802.61</ele>
        <time>2015-09-09T07:53:22Z</time>
      </trkpt>
      <trkpt lat="42.25537" lon="8.91605">
        <ele>1802.61</ele>
        <time>2015-09-09T07:53:23Z</time>
      </trkpt>
      <trkpt lat="42.25537" lon="8.91609">
        <ele>1801.65</ele>
        <time>2015-09-09T07:53:29Z</time>
      </trkpt>
      <trkpt lat="42.25534" lon="8.91609">
        <ele>1798.28</ele>
        <time>2015-09-09T07:53:45Z</time>
      </trkpt>
      <trkpt lat="42.25532" lon="8.91609">
        <ele>1796.36</ele>
        <time>2015-09-09T07:53:59Z</time>
      </trkpt>
      <trkpt lat="42.2553" lon="8.91614">
        <ele>1794.44</ele>
        <time>2015-09-09T07:54:19Z</time>
      </trkpt>
      <trkpt lat="42.25532" lon="8.91624">
        <ele>1792.52</ele>
        <time>2015-09-09T07:54:37Z</time>
      </trkpt>
      <trkpt lat="42.2553" lon="8.91626">
        <ele>1791.07</ele>
        <time>2015-09-09T07:54:54Z</time>
      </trkpt>
      <trkpt lat="42.2553" lon="8.91635">
        <ele>1789.15</ele>
        <time>2015-09-09T07:55:09Z</time>
      </trkpt>
      <trkpt lat="42.25533" lon="8.91649">
        <ele>1788.19</ele>
        <time>2015-09-09T07:55:27Z</time>
      </trkpt>
      <trkpt lat="42.25535" lon="8.91666">
        <ele>1788.19</ele>
        <time>2015-09-09T07:55:42Z</time>
      </trkpt>
      <trkpt lat="42.25537" lon="8.91678">
        <ele>1789.63</ele>
        <time>2015-09-09T07:55:53Z</time>
      </trkpt>
      <trkpt lat="42.25541" lon="8.91692">
        <ele>1791.07</ele>
        <time>2015-09-09T07:56:09Z</time>
      </trkpt>
      <trkpt lat="42.2554" lon="8.91707">
        <ele>1792.52</ele>
        <time>2015-09-09T07:56:25Z</time>
      </trkpt>
      <trkpt lat="42.25537" lon="8.91727">
        <ele>1793.96</ele>
        <time>2015-09-09T07:56:43Z</time>
      </trkpt>
      <trkpt lat="42.25536" lon="8.91741">
        <ele>1794.92</ele>
        <time>2015-09-09T07:57:00Z</time>
      </trkpt>
      <trkpt lat="42.25541" lon="8.91745">
        <ele>1796.84</ele>
        <time>2015-09-09T07:57:18Z</time>
      </trkpt>
      <trkpt lat="42.25543" lon="8.91743">
        <ele>1799.73</ele>
        <time>2015-09-09T07:57:27Z</time>
      </trkpt>
      <trkpt lat="42.25545" lon="8.91746">
        <ele>1800.21</ele>
        <time>2015-09-09T07:57:43Z</time>
      </trkpt>
      <trkpt lat="42.25547" lon="8.91754">
        <ele>1803.09</ele>
        <time>2015-09-09T07:57:57Z</time>
      </trkpt>
      <trkpt lat="42.25551" lon="8.91758">
        <ele>1805.01</ele>
        <time>2015-09-09T07:58:12Z</time>
      </trkpt>
      <trkpt lat="42.25554" lon="8.91762">
        <ele>1806.94</ele>
        <time>2015-09-09T07:58:30Z</time>
      </trkpt>
      <trkpt lat="42.25559" lon="8.9176">
        <ele>1808.86</ele>
        <time>2015-09-09T07:58:48Z</time>
      </trkpt>
      <trkpt lat="42.25562" lon="8.9177">
        <ele>1809.82</ele>
        <time>2015-09-09T07:59:04Z</time>
      </trkpt>
      <trkpt lat="42.25566" lon="8.91776">
        <ele>1812.22</ele>
        <time>2015-09-09T07:59:24Z</time>
      </trkpt>
      <trkpt lat="42.25566" lon="8.91783">
        <ele>1813.66</ele>
        <time>2015-09-09T07:59:42Z</time>
      </trkpt>
      <trkpt lat="42.25561" lon="8.91795">
        <ele>1815.59</ele>
        <time>2015-09-09T07:59:58Z</time>
      </trkpt>
      <trkpt lat="42.25567" lon="8.91803">
        <ele>1818.95</ele>
        <time>2015-09-09T08:00:16Z</time>
      </trkpt>
      <trkpt lat="42.25577" lon="8.91809">
        <ele>1820.39</ele>
        <time>2015-09-09T08:00:32Z</time>
      </trkpt>
      <trkpt lat="42.25571" lon="8.91814">
        <ele>1822.32</ele>
        <time>2015-09-09T08:00:48Z</time>
      </trkpt>
      <trkpt lat="42.25565" lon="8.91819">
        <ele>1822.8</ele>
        <time>2015-09-09T08:00:56Z</time>
      </trkpt>
      <trkpt lat="42.25562" lon="8.91836">
        <ele>1823.76</ele>
        <time>2015-09-09T08:01:16Z</time>
      </trkpt>
      <trkpt lat="42.25565" lon="8.91853">
        <ele>1825.2</ele>
        <time>2015-09-09T08:01:35Z</time>
      </trkpt>
      <trkpt lat="42.25566" lon="8.91868">
        <ele>1826.16</ele>
        <time>2015-09-09T08:01:53Z</time>
      </trkpt>
      <trkpt lat="42.25565" lon="8.91875">
        <ele>1827.12</ele>
        <time>2015-09-09T08:01:59Z</time>
      </trkpt>
      <trkpt lat="42.25565" lon="8.91897">
        <ele>1828.08</ele>
        <time>2015-09-09T08:02:18Z</time>
      </trkpt>
      <trkpt lat="42.25561" lon="8.91912">
        <ele>1828.08</ele>
        <time>2015-09-09T08:02:34Z</time>
      </trkpt>
      <trkpt lat="42.25564" lon="8.91927">
        <ele>1828.56</ele>
        <time>2015-09-09T08:02:51Z</time>
      </trkpt>
      <trkpt lat="42.25562" lon="8.91942">
        <ele>1830.49</ele>
        <time>2015-09-09T08:03:09Z</time>
      </trkpt>
      <trkpt lat="42.25559" lon="8.91964">
        <ele>1831.93</ele>
        <time>2015-09-09T08:03:29Z</time>
      </trkpt>
      <trkpt lat="42.25556" lon="8.91977">
        <ele>1832.41</ele>
        <time>2015-09-09T08:03:44Z</time>
      </trkpt>
      <trkpt lat="42.25557" lon="8.9199">
        <ele>1833.85</ele>
        <time>2015-09-09T08:04:00Z</time>
      </trkpt>
      <trkpt lat="42.25556" lon="8.91999">
        <ele>1832.41</ele>
        <time>2015-09-09T08:04:14Z</time>
      </trkpt>
      <trkpt lat="42.25554" lon="8.92011">
        <ele>1831.45</ele>
        <time>2015-09-09T08:04:30Z</time>
      </trkpt>
      <trkpt lat="42.25552" lon="8.92026">
        <ele>1830.49</ele>
        <time>2015-09-09T08:04:45Z</time>
      </trkpt>
      <trkpt lat="42.25546" lon="8.92042">
        <ele>1830.49</ele>
        <time>2015-09-09T08:05:02Z</time>
      </trkpt>
      <trkpt lat="42.25547" lon="8.92058">
        <ele>1830.01</ele>
        <time>2015-09-09T08:05:19Z</time>
      </trkpt>
      <trkpt lat="42.25546" lon="8.92073">
        <ele>1830.01</ele>
        <time>2015-09-09T08:05:36Z</time>
      </trkpt>
      <trkpt lat="42.25541" lon="8.92089">
        <ele>1832.89</ele>
        <time>2015-09-09T08:05:53Z</time>
      </trkpt>
      <trkpt lat="42.25535" lon="8.92107">
        <ele>1834.33</ele>
        <time>2015-09-09T08:06:11Z</time>
      </trkpt>
      <trkpt lat="42.25528" lon="8.92121">
        <ele>1836.26</ele>
        <time>2015-09-09T08:06:31Z</time>
      </trkpt>
      <trkpt lat="42.2552" lon="8.92131">
        <ele>1837.22</ele>
        <time>2015-09-09T08:06:47Z</time>
      </trkpt>
      <trkpt lat="42.25519" lon="8.92133">
        <ele>1836.26</ele>
        <time>2015-09-09T08:06:49Z</time>
      </trkpt>
      <trkpt lat="42.25514" lon="8.92146">
        <ele>1836.26</ele>
        <time>2015-09-09T08:07:06Z</time>
      </trkpt>
      <trkpt lat="42.25507" lon="8.92158">
        <ele>1836.74</ele>
        <time>2015-09-09T08:07:23Z</time>
      </trkpt>
      <trkpt lat="42.255" lon="8.92168">
        <ele>1838.18</ele>
        <time>2015-09-09T08:07:41Z</time>
      </trkpt>
      <trkpt lat="42.25494" lon="8.92181">
        <ele>1838.66</ele>
        <time>2015-09-09T08:07:58Z</time>
      </trkpt>
      <trkpt lat="42.25488" lon="8.92197">
        <ele>1840.1</ele>
        <time>2015-09-09T08:08:15Z</time>
      </trkpt>
      <trkpt lat="42.25486" lon="8.92214">
        <ele>1841.06</ele>
        <time>2015-09-09T08:08:34Z</time>
      </trkpt>
      <trkpt lat="42.25483" lon="8.92233">
        <ele>1841.54</ele>
        <time>2015-09-09T08:08:51Z</time>
      </trkpt>
      <trkpt lat="42.25478" lon="8.92248">
        <ele>1842.5</ele>
        <time>2015-09-09T08:09:07Z</time>
      </trkpt>
      <trkpt lat="42.25475" lon="8.9226">
        <ele>1842.98</ele>
        <time>2015-09-09T08:09:24Z</time>
      </trkpt>
      <trkpt lat="42.2547" lon="8.92274">
        <ele>1843.95</ele>
        <time>2015-09-09T08:09:42Z</time>
      </trkpt>
      <trkpt lat="42.25463" lon="8.92291">
        <ele>1845.39</ele>
        <time>2015-09-09T08:10:02Z</time>
      </trkpt>
      <trkpt lat="42.25459" lon="8.92304">
        <ele>1846.35</ele>
        <time>2015-09-09T08:10:17Z</time>
      </trkpt>
      <trkpt lat="42.25456" lon="8.92323">
        <ele>1847.31</ele>
        <time>2015-09-09T08:10:37Z</time>
      </trkpt>
      <trkpt lat="42.25453" lon="8.92339">
        <ele>1848.75</ele>
        <time>2015-09-09T08:10:54Z</time>
      </trkpt>
      <trkpt lat="42.2545" lon="8.92356">
        <ele>1850.19</ele>
        <time>2015-09-09T08:11:13Z</time>
      </trkpt>
      <trkpt lat="42.25444" lon="8.92374">
        <ele>1852.12</ele>
        <time>2015-09-09T08:11:31Z</time>
      </trkpt>
      <trkpt lat="42.25437" lon="8.92397">
        <ele>1853.08</ele>
        <time>2015-09-09T08:11:50Z</time>
      </trkpt>
      <trkpt lat="42.25436" lon="8.92416">
        <ele>1856.44</ele>
        <time>2015-09-09T08:12:08Z</time>
      </trkpt>
      <trkpt lat="42.25434" lon="8.92437">
        <ele>1857.4</ele>
        <time>2015-09-09T08:12:28Z</time>
      </trkpt>
      <trkpt lat="42.2543" lon="8.92455">
        <ele>1859.33</ele>
        <time>2015-09-09T08:12:46Z</time>
      </trkpt>
      <trkpt lat="42.25427" lon="8.92476">
        <ele>1860.77</ele>
        <time>2015-09-09T08:13:05Z</time>
      </trkpt>
      <trkpt lat="42.25425" lon="8.92488">
        <ele>1861.73</ele>
        <time>2015-09-09T08:13:16Z</time>
      </trkpt>
      <trkpt lat="42.25422" lon="8.92499">
        <ele>1862.69</ele>
        <time>2015-09-09T08:13:27Z</time>
      </trkpt>
      <trkpt lat="42.25418" lon="8.92517">
        <ele>1866.54</ele>
        <time>2015-09-09T08:13:48Z</time>
      </trkpt>
      <trkpt lat="42.25418" lon="8.92535">
        <ele>1868.94</ele>
        <time>2015-09-09T08:14:08Z</time>
      </trkpt>
      <trkpt lat="42.25417" lon="8.92544">
        <ele>1870.38</ele>
        <time>2015-09-09T08:14:24Z</time>
      </trkpt>
      <trkpt lat="42.25422" lon="8.92562">
        <ele>1872.3</ele>
        <time>2015-09-09T08:14:43Z</time>
      </trkpt>
      <trkpt lat="42.25423" lon="8.92579">
        <ele>1873.27</ele>
        <time>2015-09-09T08:14:58Z</time>
      </trkpt>
      <trkpt lat="42.25424" lon="8.926">
        <ele>1875.19</ele>
        <time>2015-09-09T08:15:19Z</time>
      </trkpt>
      <trkpt lat="42.25428" lon="8.92622">
        <ele>1876.63</ele>
        <time>2015-09-09T08:15:38Z</time>
      </trkpt>
      <trkpt lat="42.25429" lon="8.92636">
        <ele>1877.59</ele>
        <time>2015-09-09T08:15:56Z</time>
      </trkpt>
      <trkpt lat="42.2543" lon="8.92641">
        <ele>1878.07</ele>
        <time>2015-09-09T08:16:12Z</time>
      </trkpt>
      <trkpt lat="42.2543" lon="8.92639">
        <ele>1876.15</ele>
        <time>2015-09-09T08:16:30Z</time>
      </trkpt>
      <trkpt lat="42.2543" lon="8.92639">
        <ele>1877.59</ele>
        <time>2015-09-09T08:16:33Z</time>
      </trkpt>
      <trkpt lat="42.25431" lon="8.92639">
        <ele>1877.59</ele>
        <time>2015-09-09T08:16:53Z</time>
      </trkpt>
      <trkpt lat="42.2543" lon="8.92641">
        <ele>1878.07</ele>
        <time>2015-09-09T08:17:13Z</time>
      </trkpt>
      <trkpt lat="42.2543" lon="8.92641">
        <ele>1879.03</ele>
        <time>2015-09-09T08:17:19Z</time>
      </trkpt>
      <trkpt lat="42.2543" lon="8.92642">
        <ele>1877.59</ele>
        <time>2015-09-09T08:17:22Z</time>
      </trkpt>
      <trkpt lat="42.25423" lon="8.92646">
        <ele>1877.59</ele>
        <time>2015-09-09T08:17:42Z</time>
      </trkpt>
      <trkpt lat="42.25417" lon="8.92646">
        <ele>1879.03</ele>
        <time>2015-09-09T08:17:50Z</time>
      </trkpt>
      <trkpt lat="42.25416" lon="8.92646">
        <ele>1879.51</ele>
        <time>2015-09-09T08:18:13Z</time>
      </trkpt>
      <trkpt lat="42.25418" lon="8.92642">
        <ele>1878.07</ele>
        <time>2015-09-09T08:18:48Z</time>
      </trkpt>
      <trkpt lat="42.25424" lon="8.92636">
        <ele>1877.59</ele>
        <time>2015-09-09T08:19:06Z</time>
      </trkpt>
      <trkpt lat="42.2543" lon="8.92639">
        <ele>1877.11</ele>
        <time>2015-09-09T08:19:22Z</time>
      </trkpt>
      <trkpt lat="42.25431" lon="8.92638">
        <ele>1878.55</ele>
        <time>2015-09-09T08:19:46Z</time>
      </trkpt>
      <trkpt lat="42.2543" lon="8.92638">
        <ele>1878.55</ele>
        <time>2015-09-09T08:20:13Z</time>
      </trkpt>
      <trkpt lat="42.2543" lon="8.92638">
        <ele>1878.55</ele>
        <time>2015-09-09T08:20:40Z</time>
      </trkpt>
      <trkpt lat="42.25429" lon="8.92639">
        <ele>1878.55</ele>
        <time>2015-09-09T08:21:10Z</time>
      </trkpt>
      <trkpt lat="42.2543" lon="8.92639">
        <ele>1878.55</ele>
        <time>2015-09-09T08:21:35Z</time>
      </trkpt>
      <trkpt lat="42.2543" lon="8.9264">
        <ele>1878.55</ele>
        <time>2015-09-09T08:21:51Z</time>
      </trkpt>
      <trkpt lat="42.2543" lon="8.92642">
        <ele>1879.03</ele>
        <time>2015-09-09T08:22:12Z</time>
      </trkpt>
      <trkpt lat="42.2543" lon="8.92641">
        <ele>1879.51</ele>
        <time>2015-09-09T08:22:33Z</time>
      </trkpt>
      <trkpt lat="42.2543" lon="8.92641">
        <ele>1878.55</ele>
        <time>2015-09-09T08:23:01Z</time>
      </trkpt>
      <trkpt lat="42.25431" lon="8.9264">
        <ele>1880</ele>
        <time>2015-09-09T08:23:17Z</time>
      </trkpt>
      <trkpt lat="42.25431" lon="8.9264">
        <ele>1879.51</ele>
        <time>2015-09-09T08:23:44Z</time>
      </trkpt>
      <trkpt lat="42.25431" lon="8.92641">
        <ele>1879.51</ele>
        <time>2015-09-09T08:24:28Z</time>
      </trkpt>
      <trkpt lat="42.25431" lon="8.92639">
        <ele>1879.51</ele>
        <time>2015-09-09T08:25:02Z</time>
      </trkpt>
      <trkpt lat="42.2543" lon="8.9264">
        <ele>1879.03</ele>
        <time>2015-09-09T08:25:18Z</time>
      </trkpt>
      <trkpt lat="42.25429" lon="8.92656">
        <ele>1879.03</ele>
        <time>2015-09-09T08:25:34Z</time>
      </trkpt>
      <trkpt lat="42.25429" lon="8.9266">
        <ele>1878.55</ele>
        <time>2015-09-09T08:25:38Z</time>
      </trkpt>
      <trkpt lat="42.25431" lon="8.9268">
        <ele>1876.15</ele>
        <time>2015-09-09T08:25:56Z</time>
      </trkpt>
      <trkpt lat="42.2543" lon="8.92698">
        <ele>1874.71</ele>
        <time>2015-09-09T08:26:09Z</time>
      </trkpt>
      <trkpt lat="42.25432" lon="8.92727">
        <ele>1871.34</ele>
        <time>2015-09-09T08:26:30Z</time>
      </trkpt>
      <trkpt lat="42.25438" lon="8.92747">
        <ele>1868.46</ele>
        <time>2015-09-09T08:26:46Z</time>
      </trkpt>
      <trkpt lat="42.25438" lon="8.92751">
        <ele>1867.98</ele>
        <time>2015-09-09T08:26:50Z</time>
      </trkpt>
      <trkpt lat="42.25447" lon="8.92769">
        <ele>1865.09</ele>
        <time>2015-09-09T08:27:07Z</time>
      </trkpt>
      <trkpt lat="42.25453" lon="8.92788">
        <ele>1862.21</ele>
        <time>2015-09-09T08:27:23Z</time>
      </trkpt>
      <trkpt lat="42.25455" lon="8.92792">
        <ele>1860.77</ele>
        <time>2015-09-09T08:27:27Z</time>
      </trkpt>
      <trkpt lat="42.25454" lon="8.92801">
        <ele>1856.92</ele>
        <time>2015-09-09T08:27:36Z</time>
      </trkpt>
      <trkpt lat="42.25454" lon="8.92802">
        <ele>1862.69</ele>
        <time>2015-09-09T08:27:37Z</time>
      </trkpt>
      <trkpt lat="42.25454" lon="8.92803">
        <ele>1859.33</ele>
        <time>2015-09-09T08:27:38Z</time>
      </trkpt>
      <trkpt lat="42.25459" lon="8.92817">
        <ele>1857.4</ele>
        <time>2015-09-09T08:27:53Z</time>
      </trkpt>
      <trkpt lat="42.25461" lon="8.92822">
        <ele>1856.44</ele>
        <time>2015-09-09T08:27:57Z</time>
      </trkpt>
      <trkpt lat="42.25466" lon="8.92851">
        <ele>1853.56</ele>
        <time>2015-09-09T08:28:13Z</time>
      </trkpt>
      <trkpt lat="42.25468" lon="8.92873">
        <ele>1850.68</ele>
        <time>2015-09-09T08:28:25Z</time>
      </trkpt>
      <trkpt lat="42.25471" lon="8.92878">
        <ele>1849.71</ele>
        <time>2015-09-09T08:28:29Z</time>
      </trkpt>
      <trkpt lat="42.25472" lon="8.92881">
        <ele>1849.71</ele>
        <time>2015-09-09T08:28:31Z</time>
      </trkpt>
      <trkpt lat="42.25472" lon="8.92893">
        <ele>1849.23</ele>
        <time>2015-09-09T08:28:39Z</time>
      </trkpt>
      <trkpt lat="42.25475" lon="8.92923">
        <ele>1848.27</ele>
        <time>2015-09-09T08:28:56Z</time>
      </trkpt>
      <trkpt lat="42.25478" lon="8.92938">
        <ele>1847.79</ele>
        <time>2015-09-09T08:29:06Z</time>
      </trkpt>
      <trkpt lat="42.25481" lon="8.92971">
        <ele>1845.87</ele>
        <time>2015-09-09T08:29:26Z</time>
      </trkpt>
      <trkpt lat="42.25484" lon="8.92999">
        <ele>1844.91</ele>
        <time>2015-09-09T08:29:46Z</time>
      </trkpt>
      <trkpt lat="42.25482" lon="8.93019">
        <ele>1846.35</ele>
        <time>2015-09-09T08:30:03Z</time>
      </trkpt>
      <trkpt lat="42.25481" lon="8.93019">
        <ele>1846.83</ele>
        <time>2015-09-09T08:30:17Z</time>
      </trkpt>
      <trkpt lat="42.25483" lon="8.9302">
        <ele>1846.83</ele>
        <time>2015-09-09T08:30:42Z</time>
      </trkpt>
      <trkpt lat="42.25483" lon="8.93028">
        <ele>1846.83</ele>
        <time>2015-09-09T08:31:16Z</time>
      </trkpt>
      <trkpt lat="42.25484" lon="8.93031">
        <ele>1846.83</ele>
        <time>2015-09-09T08:31:18Z</time>
      </trkpt>
      <trkpt lat="42.25485" lon="8.93034">
        <ele>1846.83</ele>
        <time>2015-09-09T08:31:20Z</time>
      </trkpt>
      <trkpt lat="42.25484" lon="8.93068">
        <ele>1845.39</ele>
        <time>2015-09-09T08:31:39Z</time>
      </trkpt>
      <trkpt lat="42.25482" lon="8.93094">
        <ele>1844.43</ele>
        <time>2015-09-09T08:31:57Z</time>
      </trkpt>
      <trkpt lat="42.2548" lon="8.93121">
        <ele>1844.43</ele>
        <time>2015-09-09T08:32:15Z</time>
      </trkpt>
      <trkpt lat="42.25476" lon="8.93147">
        <ele>1843.95</ele>
        <time>2015-09-09T08:32:34Z</time>
      </trkpt>
      <trkpt lat="42.25479" lon="8.93166">
        <ele>1842.5</ele>
        <time>2015-09-09T08:32:50Z</time>
      </trkpt>
      <trkpt lat="42.25489" lon="8.93191">
        <ele>1842.5</ele>
        <time>2015-09-09T08:33:08Z</time>
      </trkpt>
      <trkpt lat="42.2549" lon="8.93196">
        <ele>1842.02</ele>
        <time>2015-09-09T08:33:12Z</time>
      </trkpt>
      <trkpt lat="42.25492" lon="8.93208">
        <ele>1842.02</ele>
        <time>2015-09-09T08:33:21Z</time>
      </trkpt>
      <trkpt lat="42.25501" lon="8.93229">
        <ele>1842.02</ele>
        <time>2015-09-09T08:33:39Z</time>
      </trkpt>
      <trkpt lat="42.25505" lon="8.93234">
        <ele>1841.54</ele>
        <time>2015-09-09T08:33:45Z</time>
      </trkpt>
      <trkpt lat="42.25506" lon="8.93237">
        <ele>1841.54</ele>
        <time>2015-09-09T08:33:47Z</time>
      </trkpt>
      <trkpt lat="42.2551" lon="8.93251">
        <ele>1841.54</ele>
        <time>2015-09-09T08:33:58Z</time>
      </trkpt>
      <trkpt lat="42.2551" lon="8.93255">
        <ele>1841.54</ele>
        <time>2015-09-09T08:34:01Z</time>
      </trkpt>
      <trkpt lat="42.25514" lon="8.93275">
        <ele>1841.06</ele>
        <time>2015-09-09T08:34:17Z</time>
      </trkpt>
      <trkpt lat="42.25514" lon="8.93278">
        <ele>1841.06</ele>
        <time>2015-09-09T08:34:20Z</time>
      </trkpt>
      <trkpt lat="42.25513" lon="8.93298">
        <ele>1841.06</ele>
        <time>2015-09-09T08:34:37Z</time>
      </trkpt>
      <trkpt lat="42.25515" lon="8.93309">
        <ele>1839.62</ele>
        <time>2015-09-09T08:34:54Z</time>
      </trkpt>
      <trkpt lat="42.25511" lon="8.93328">
        <ele>1838.66</ele>
        <time>2015-09-09T08:35:12Z</time>
      </trkpt>
      <trkpt lat="42.25509" lon="8.93341">
        <ele>1837.7</ele>
        <time>2015-09-09T08:35:25Z</time>
      </trkpt>
      <trkpt lat="42.25505" lon="8.93361">
        <ele>1836.74</ele>
        <time>2015-09-09T08:35:42Z</time>
      </trkpt>
      <trkpt lat="42.25504" lon="8.93366">
        <ele>1836.26</ele>
        <time>2015-09-09T08:35:46Z</time>
      </trkpt>
      <trkpt lat="42.25503" lon="8.93373">
        <ele>1835.77</ele>
        <time>2015-09-09T08:36:04Z</time>
      </trkpt>
      <trkpt lat="42.25507" lon="8.93377">
        <ele>1834.81</ele>
        <time>2015-09-09T08:36:31Z</time>
      </trkpt>
      <trkpt lat="42.2551" lon="8.9339">
        <ele>1832.41</ele>
        <time>2015-09-09T08:36:49Z</time>
      </trkpt>
      <trkpt lat="42.25511" lon="8.934">
        <ele>1830.49</ele>
        <time>2015-09-09T08:37:02Z</time>
      </trkpt>
      <trkpt lat="42.25513" lon="8.93407">
        <ele>1828.08</ele>
        <time>2015-09-09T08:37:17Z</time>
      </trkpt>
      <trkpt lat="42.2552" lon="8.93412">
        <ele>1825.2</ele>
        <time>2015-09-09T08:37:33Z</time>
      </trkpt>
      <trkpt lat="42.25528" lon="8.93415">
        <ele>1823.28</ele>
        <time>2015-09-09T08:37:48Z</time>
      </trkpt>
      <trkpt lat="42.25536" lon="8.9342">
        <ele>1820.39</ele>
        <time>2015-09-09T08:38:04Z</time>
      </trkpt>
      <trkpt lat="42.25539" lon="8.93427">
        <ele>1818.47</ele>
        <time>2015-09-09T08:38:18Z</time>
      </trkpt>
      <trkpt lat="42.25548" lon="8.93427">
        <ele>1816.55</ele>
        <time>2015-09-09T08:38:35Z</time>
      </trkpt>
      <trkpt lat="42.25554" lon="8.93431">
        <ele>1814.63</ele>
        <time>2015-09-09T08:38:52Z</time>
      </trkpt>
      <trkpt lat="42.2556" lon="8.93436">
        <ele>1812.7</ele>
        <time>2015-09-09T08:39:07Z</time>
      </trkpt>
      <trkpt lat="42.25557" lon="8.93445">
        <ele>1811.74</ele>
        <time>2015-09-09T08:39:22Z</time>
      </trkpt>
      <trkpt lat="42.25551" lon="8.9346">
        <ele>1809.82</ele>
        <time>2015-09-09T08:39:41Z</time>
      </trkpt>
      <trkpt lat="42.25549" lon="8.93468">
        <ele>1808.86</ele>
        <time>2015-09-09T08:39:55Z</time>
      </trkpt>
      <trkpt lat="42.25544" lon="8.93478">
        <ele>1806.94</ele>
        <time>2015-09-09T08:40:12Z</time>
      </trkpt>
      <trkpt lat="42.25541" lon="8.93487">
        <ele>1805.97</ele>
        <time>2015-09-09T08:40:26Z</time>
      </trkpt>
      <trkpt lat="42.25539" lon="8.93497">
        <ele>1805.01</ele>
        <time>2015-09-09T08:40:41Z</time>
      </trkpt>
      <trkpt lat="42.25542" lon="8.93507">
        <ele>1803.57</ele>
        <time>2015-09-09T08:40:57Z</time>
      </trkpt>
      <trkpt lat="42.25547" lon="8.93516">
        <ele>1801.17</ele>
        <time>2015-09-09T08:41:13Z</time>
      </trkpt>
      <trkpt lat="42.25545" lon="8.93526">
        <ele>1799.24</ele>
        <time>2015-09-09T08:41:29Z</time>
      </trkpt>
      <trkpt lat="42.2554" lon="8.93537">
        <ele>1797.8</ele>
        <time>2015-09-09T08:41:46Z</time>
      </trkpt>
      <trkpt lat="42.25538" lon="8.93547">
        <ele>1795.88</ele>
        <time>2015-09-09T08:42:04Z</time>
      </trkpt>
      <trkpt lat="42.25543" lon="8.9355">
        <ele>1794.44</ele>
        <time>2015-09-09T08:42:17Z</time>
      </trkpt>
      <trkpt lat="42.2555" lon="8.93554">
        <ele>1793</ele>
        <time>2015-09-09T08:42:31Z</time>
      </trkpt>
      <trkpt lat="42.25551" lon="8.93563">
        <ele>1791.55</ele>
        <time>2015-09-09T08:42:46Z</time>
      </trkpt>
      <trkpt lat="42.25551" lon="8.93564">
        <ele>1791.55</ele>
        <time>2015-09-09T08:42:47Z</time>
      </trkpt>
      <trkpt lat="42.2555" lon="8.93577">
        <ele>1790.11</ele>
        <time>2015-09-09T08:43:03Z</time>
      </trkpt>
      <trkpt lat="42.25551" lon="8.93582">
        <ele>1789.15</ele>
        <time>2015-09-09T08:43:08Z</time>
      </trkpt>
      <trkpt lat="42.25552" lon="8.93587">
        <ele>1783.38</ele>
        <time>2015-09-09T08:43:16Z</time>
      </trkpt>
      <trkpt lat="42.25552" lon="8.93588">
        <ele>1793</ele>
        <time>2015-09-09T08:43:17Z</time>
      </trkpt>
      <trkpt lat="42.25552" lon="8.93588">
        <ele>1788.67</ele>
        <time>2015-09-09T08:43:18Z</time>
      </trkpt>
      <trkpt lat="42.25554" lon="8.936">
        <ele>1787.71</ele>
        <time>2015-09-09T08:43:37Z</time>
      </trkpt>
      <trkpt lat="42.2556" lon="8.93613">
        <ele>1785.31</ele>
        <time>2015-09-09T08:43:51Z</time>
      </trkpt>
      <trkpt lat="42.25563" lon="8.93624">
        <ele>1783.38</ele>
        <time>2015-09-09T08:44:04Z</time>
      </trkpt>
      <trkpt lat="42.25568" lon="8.93632">
        <ele>1781.46</ele>
        <time>2015-09-09T08:44:15Z</time>
      </trkpt>
      <trkpt lat="42.25569" lon="8.93642">
        <ele>1779.54</ele>
        <time>2015-09-09T08:44:24Z</time>
      </trkpt>
      <trkpt lat="42.25581" lon="8.93657">
        <ele>1777.13</ele>
        <time>2015-09-09T08:44:40Z</time>
      </trkpt>
      <trkpt lat="42.25582" lon="8.9366">
        <ele>1776.65</ele>
        <time>2015-09-09T08:44:42Z</time>
      </trkpt>
      <trkpt lat="42.25588" lon="8.93663">
        <ele>1776.17</ele>
        <time>2015-09-09T08:44:49Z</time>
      </trkpt>
      <trkpt lat="42.25596" lon="8.93675">
        <ele>1774.25</ele>
        <time>2015-09-09T08:45:03Z</time>
      </trkpt>
      <trkpt lat="42.25602" lon="8.9369">
        <ele>1771.37</ele>
        <time>2015-09-09T08:45:20Z</time>
      </trkpt>
      <trkpt lat="42.25603" lon="8.93691">
        <ele>1770.89</ele>
        <time>2015-09-09T08:45:22Z</time>
      </trkpt>
      <trkpt lat="42.25614" lon="8.93697">
        <ele>1768.48</ele>
        <time>2015-09-09T08:45:38Z</time>
      </trkpt>
      <trkpt lat="42.25615" lon="8.93698">
        <ele>1768</ele>
        <time>2015-09-09T08:46:02Z</time>
      </trkpt>
      <trkpt lat="42.25619" lon="8.937">
        <ele>1767.52</ele>
        <time>2015-09-09T08:46:08Z</time>
      </trkpt>
      <trkpt lat="42.25626" lon="8.9371">
        <ele>1766.08</ele>
        <time>2015-09-09T08:46:18Z</time>
      </trkpt>
      <trkpt lat="42.25634" lon="8.93729">
        <ele>1763.2</ele>
        <time>2015-09-09T08:46:36Z</time>
      </trkpt>
      <trkpt lat="42.25634" lon="8.93731">
        <ele>1763.2</ele>
        <time>2015-09-09T08:46:38Z</time>
      </trkpt>
      <trkpt lat="42.25646" lon="8.93737">
        <ele>1760.31</ele>
        <time>2015-09-09T08:46:54Z</time>
      </trkpt>
      <trkpt lat="42.25651" lon="8.93737">
        <ele>1759.35</ele>
        <time>2015-09-09T08:46:58Z</time>
      </trkpt>
      <trkpt lat="42.25654" lon="8.93741">
        <ele>1758.39</ele>
        <time>2015-09-09T08:47:02Z</time>
      </trkpt>
      <trkpt lat="42.25659" lon="8.93746">
        <ele>1757.43</ele>
        <time>2015-09-09T08:47:07Z</time>
      </trkpt>
      <trkpt lat="42.25668" lon="8.93751">
        <ele>1754.06</ele>
        <time>2015-09-09T08:47:20Z</time>
      </trkpt>
      <trkpt lat="42.25678" lon="8.9376">
        <ele>1751.66</ele>
        <time>2015-09-09T08:47:37Z</time>
      </trkpt>
      <trkpt lat="42.25678" lon="8.93765">
        <ele>1750.7</ele>
        <time>2015-09-09T08:47:42Z</time>
      </trkpt>
      <trkpt lat="42.25677" lon="8.93773">
        <ele>1750.22</ele>
        <time>2015-09-09T08:47:47Z</time>
      </trkpt>
      <trkpt lat="42.25674" lon="8.93799">
        <ele>1748.78</ele>
        <time>2015-09-09T08:48:07Z</time>
      </trkpt>
      <trkpt lat="42.25675" lon="8.938">
        <ele>1748.78</ele>
        <time>2015-09-09T08:48:09Z</time>
      </trkpt>
      <trkpt lat="42.25676" lon="8.93809">
        <ele>1748.29</ele>
        <time>2015-09-09T08:48:16Z</time>
      </trkpt>
      <trkpt lat="42.25677" lon="8.93813">
        <ele>1747.81</ele>
        <time>2015-09-09T08:48:19Z</time>
      </trkpt>
      <trkpt lat="42.25678" lon="8.93822">
        <ele>1747.33</ele>
        <time>2015-09-09T08:48:25Z</time>
      </trkpt>
      <trkpt lat="42.25676" lon="8.93843">
        <ele>1746.37</ele>
        <time>2015-09-09T08:48:42Z</time>
      </trkpt>
      <trkpt lat="42.25681" lon="8.93865">
        <ele>1746.37</ele>
        <time>2015-09-09T08:48:58Z</time>
      </trkpt>
      <trkpt lat="42.25681" lon="8.93867">
        <ele>1746.37</ele>
        <time>2015-09-09T08:49:00Z</time>
      </trkpt>
      <trkpt lat="42.25685" lon="8.93879">
        <ele>1747.33</ele>
        <time>2015-09-09T08:49:09Z</time>
      </trkpt>
      <trkpt lat="42.25693" lon="8.93903">
        <ele>1747.33</ele>
        <time>2015-09-09T08:49:28Z</time>
      </trkpt>
      <trkpt lat="42.25697" lon="8.9391">
        <ele>1747.33</ele>
        <time>2015-09-09T08:49:38Z</time>
      </trkpt>
      <trkpt lat="42.25697" lon="8.93911">
        <ele>1747.33</ele>
        <time>2015-09-09T08:49:40Z</time>
      </trkpt>
      <trkpt lat="42.25702" lon="8.93922">
        <ele>1747.81</ele>
        <time>2015-09-09T08:49:51Z</time>
      </trkpt>
      <trkpt lat="42.25689" lon="8.93941">
        <ele>1746.85</ele>
        <time>2015-09-09T08:50:09Z</time>
      </trkpt>
      <trkpt lat="42.25689" lon="8.93942">
        <ele>1746.85</ele>
        <time>2015-09-09T08:50:10Z</time>
      </trkpt>
      <trkpt lat="42.25686" lon="8.93947">
        <ele>1746.85</ele>
        <time>2015-09-09T08:50:14Z</time>
      </trkpt>
      <trkpt lat="42.25684" lon="8.93951">
        <ele>1746.85</ele>
        <time>2015-09-09T08:50:18Z</time>
      </trkpt>
      <trkpt lat="42.25673" lon="8.93971">
        <ele>1746.85</ele>
        <time>2015-09-09T08:50:36Z</time>
      </trkpt>
      <trkpt lat="42.25672" lon="8.93974">
        <ele>1746.85</ele>
        <time>2015-09-09T08:50:38Z</time>
      </trkpt>
      <trkpt lat="42.25668" lon="8.93985">
        <ele>1746.85</ele>
        <time>2015-09-09T08:50:47Z</time>
      </trkpt>
      <trkpt lat="42.25667" lon="8.93998">
        <ele>1746.85</ele>
        <time>2015-09-09T08:50:56Z</time>
      </trkpt>
      <trkpt lat="42.25662" lon="8.9402">
        <ele>1747.81</ele>
        <time>2015-09-09T08:51:13Z</time>
      </trkpt>
      <trkpt lat="42.25661" lon="8.94022">
        <ele>1747.81</ele>
        <time>2015-09-09T08:51:14Z</time>
      </trkpt>
      <trkpt lat="42.25657" lon="8.94047">
        <ele>1747.81</ele>
        <time>2015-09-09T08:51:32Z</time>
      </trkpt>
      <trkpt lat="42.25649" lon="8.94061">
        <ele>1747.81</ele>
        <time>2015-09-09T08:51:47Z</time>
      </trkpt>
      <trkpt lat="42.25642" lon="8.94088">
        <ele>1746.37</ele>
        <time>2015-09-09T08:52:07Z</time>
      </trkpt>
      <trkpt lat="42.25641" lon="8.94095">
        <ele>1746.37</ele>
        <time>2015-09-09T08:52:12Z</time>
      </trkpt>
      <trkpt lat="42.25639" lon="8.94102">
        <ele>1746.37</ele>
        <time>2015-09-09T08:52:17Z</time>
      </trkpt>
      <trkpt lat="42.25637" lon="8.94106">
        <ele>1746.37</ele>
        <time>2015-09-09T08:52:21Z</time>
      </trkpt>
      <trkpt lat="42.25631" lon="8.94121">
        <ele>1746.37</ele>
        <time>2015-09-09T08:52:32Z</time>
      </trkpt>
      <trkpt lat="42.25619" lon="8.94143">
        <ele>1746.37</ele>
        <time>2015-09-09T08:52:51Z</time>
      </trkpt>
      <trkpt lat="42.25605" lon="8.9416">
        <ele>1746.37</ele>
        <time>2015-09-09T08:53:09Z</time>
      </trkpt>
      <trkpt lat="42.25594" lon="8.94169">
        <ele>1745.41</ele>
        <time>2015-09-09T08:53:27Z</time>
      </trkpt>
      <trkpt lat="42.25592" lon="8.94172">
        <ele>1745.89</ele>
        <time>2015-09-09T08:53:46Z</time>
      </trkpt>
      <trkpt lat="42.25585" lon="8.94179">
        <ele>1745.41</ele>
        <time>2015-09-09T08:53:59Z</time>
      </trkpt>
      <trkpt lat="42.25583" lon="8.9418">
        <ele>1745.41</ele>
        <time>2015-09-09T08:54:01Z</time>
      </trkpt>
      <trkpt lat="42.25579" lon="8.94182">
        <ele>1746.85</ele>
        <time>2015-09-09T08:54:05Z</time>
      </trkpt>
      <trkpt lat="42.25559" lon="8.94187">
        <ele>1747.33</ele>
        <time>2015-09-09T08:54:25Z</time>
      </trkpt>
      <trkpt lat="42.25558" lon="8.94186">
        <ele>1743.97</ele>
        <time>2015-09-09T08:54:28Z</time>
      </trkpt>
      <trkpt lat="42.25558" lon="8.94186">
        <ele>1743.97</ele>
        <time>2015-09-09T08:54:29Z</time>
      </trkpt>
      <trkpt lat="42.25556" lon="8.94186">
        <ele>1747.33</ele>
        <time>2015-09-09T08:54:32Z</time>
      </trkpt>
      <trkpt lat="42.25552" lon="8.94187">
        <ele>1747.33</ele>
        <time>2015-09-09T08:54:36Z</time>
      </trkpt>
      <trkpt lat="42.25542" lon="8.9419">
        <ele>1747.33</ele>
        <time>2015-09-09T08:54:47Z</time>
      </trkpt>
      <trkpt lat="42.25536" lon="8.94191">
        <ele>1747.33</ele>
        <time>2015-09-09T08:54:53Z</time>
      </trkpt>
      <trkpt lat="42.25534" lon="8.94192">
        <ele>1745.89</ele>
        <time>2015-09-09T08:54:55Z</time>
      </trkpt>
      <trkpt lat="42.25518" lon="8.94199">
        <ele>1745.89</ele>
        <time>2015-09-09T08:55:15Z</time>
      </trkpt>
      <trkpt lat="42.25505" lon="8.9421">
        <ele>1745.89</ele>
        <time>2015-09-09T08:55:37Z</time>
      </trkpt>
      <trkpt lat="42.25503" lon="8.94222">
        <ele>1748.29</ele>
        <time>2015-09-09T08:55:54Z</time>
      </trkpt>
      <trkpt lat="42.25499" lon="8.94224">
        <ele>1748.29</ele>
        <time>2015-09-09T08:56:10Z</time>
      </trkpt>
      <trkpt lat="42.25496" lon="8.94222">
        <ele>1747.33</ele>
        <time>2015-09-09T08:56:18Z</time>
      </trkpt>
      <trkpt lat="42.25495" lon="8.94221">
        <ele>1747.33</ele>
        <time>2015-09-09T08:56:39Z</time>
      </trkpt>
      <trkpt lat="42.25496" lon="8.94221">
        <ele>1747.81</ele>
        <time>2015-09-09T08:56:55Z</time>
      </trkpt>
      <trkpt lat="42.25495" lon="8.94222">
        <ele>1746.37</ele>
        <time>2015-09-09T08:57:10Z</time>
      </trkpt>
      <trkpt lat="42.25496" lon="8.94221">
        <ele>1747.81</ele>
        <time>2015-09-09T08:57:30Z</time>
      </trkpt>
      <trkpt lat="42.25495" lon="8.94221">
        <ele>1745.89</ele>
        <time>2015-09-09T08:57:55Z</time>
      </trkpt>
      <trkpt lat="42.25496" lon="8.94223">
        <ele>1747.81</ele>
        <time>2015-09-09T08:58:20Z</time>
      </trkpt>
      <trkpt lat="42.25495" lon="8.94222">
        <ele>1747.81</ele>
        <time>2015-09-09T08:58:56Z</time>
      </trkpt>
      <trkpt lat="42.25495" lon="8.94221">
        <ele>1747.81</ele>
        <time>2015-09-09T08:59:31Z</time>
      </trkpt>
      <trkpt lat="42.25494" lon="8.94221">
        <ele>1746.37</ele>
        <time>2015-09-09T08:59:34Z</time>
      </trkpt>
      <trkpt lat="42.25493" lon="8.94221">
        <ele>1746.37</ele>
        <time>2015-09-09T09:00:07Z</time>
      </trkpt>
      <trkpt lat="42.25496" lon="8.94222">
        <ele>1747.33</ele>
        <time>2015-09-09T09:00:28Z</time>
      </trkpt>
      <trkpt lat="42.25496" lon="8.94222">
        <ele>1747.33</ele>
        <time>2015-09-09T09:00:58Z</time>
      </trkpt>
      <trkpt lat="42.25496" lon="8.94222">
        <ele>1746.37</ele>
        <time>2015-09-09T09:01:34Z</time>
      </trkpt>
      <trkpt lat="42.25496" lon="8.94221">
        <ele>1746.37</ele>
        <time>2015-09-09T09:02:05Z</time>
      </trkpt>
      <trkpt lat="42.25496" lon="8.94221">
        <ele>1746.85</ele>
        <time>2015-09-09T09:02:37Z</time>
      </trkpt>
      <trkpt lat="42.25497" lon="8.94221">
        <ele>1747.81</ele>
        <time>2015-09-09T09:03:10Z</time>
      </trkpt>
      <trkpt lat="42.25497" lon="8.94221">
        <ele>1747.81</ele>
        <time>2015-09-09T09:03:43Z</time>
      </trkpt>
      <trkpt lat="42.25496" lon="8.94221">
        <ele>1747.33</ele>
        <time>2015-09-09T09:04:18Z</time>
      </trkpt>
      <trkpt lat="42.25495" lon="8.94222">
        <ele>1747.33</ele>
        <time>2015-09-09T09:05:01Z</time>
      </trkpt>
      <trkpt lat="42.25496" lon="8.94222">
        <ele>1747.33</ele>
        <time>2015-09-09T09:05:45Z</time>
      </trkpt>
      <trkpt lat="42.25495" lon="8.9422">
        <ele>1746.85</ele>
        <time>2015-09-09T09:06:22Z</time>
      </trkpt>
      <trkpt lat="42.25494" lon="8.94222">
        <ele>1746.85</ele>
        <time>2015-09-09T09:06:53Z</time>
      </trkpt>
      <trkpt lat="42.25495" lon="8.94222">
        <ele>1747.33</ele>
        <time>2015-09-09T09:07:25Z</time>
      </trkpt>
      <trkpt lat="42.25496" lon="8.94221">
        <ele>1747.33</ele>
        <time>2015-09-09T09:07:59Z</time>
      </trkpt>
      <trkpt lat="42.25496" lon="8.94222">
        <ele>1746.37</ele>
        <time>2015-09-09T09:08:28Z</time>
      </trkpt>
      <trkpt lat="42.25496" lon="8.94222">
        <ele>1746.37</ele>
        <time>2015-09-09T09:08:29Z</time>
      </trkpt>
      <trkpt lat="42.25497" lon="8.94222">
        <ele>1746.37</ele>
        <time>2015-09-09T09:09:03Z</time>
      </trkpt>
      <trkpt lat="42.25496" lon="8.94222">
        <ele>1745.89</ele>
        <time>2015-09-09T09:09:15Z</time>
      </trkpt>
      <trkpt lat="42.25497" lon="8.94221">
        <ele>1745.89</ele>
        <time>2015-09-09T09:09:46Z</time>
      </trkpt>
      <trkpt lat="42.25497" lon="8.9422">
        <ele>1745.89</ele>
        <time>2015-09-09T09:10:22Z</time>
      </trkpt>
      <trkpt lat="42.25496" lon="8.94221">
        <ele>1745.89</ele>
        <time>2015-09-09T09:11:04Z</time>
      </trkpt>
      <trkpt lat="42.25496" lon="8.94221">
        <ele>1745.89</ele>
        <time>2015-09-09T09:11:40Z</time>
      </trkpt>
      <trkpt lat="42.25496" lon="8.9422">
        <ele>1745.89</ele>
        <time>2015-09-09T09:12:15Z</time>
      </trkpt>
      <trkpt lat="42.25495" lon="8.94221">
        <ele>1745.89</ele>
        <time>2015-09-09T09:12:56Z</time>
      </trkpt>
      <trkpt lat="42.25496" lon="8.94221">
        <ele>1745.89</ele>
        <time>2015-09-09T09:13:31Z</time>
      </trkpt>
      <trkpt lat="42.25498" lon="8.94221">
        <ele>1745.89</ele>
        <time>2015-09-09T09:14:01Z</time>
      </trkpt>
      <trkpt lat="42.25495" lon="8.94224">
        <ele>1745.89</ele>
        <time>2015-09-09T09:14:31Z</time>
      </trkpt>
      <trkpt lat="42.25493" lon="8.94223">
        <ele>1745.89</ele>
        <time>2015-09-09T09:15:01Z</time>
      </trkpt>
      <trkpt lat="42.25495" lon="8.94222">
        <ele>1745.89</ele>
        <time>2015-09-09T09:15:40Z</time>
      </trkpt>
      <trkpt lat="42.25494" lon="8.94221">
        <ele>1745.89</ele>
        <time>2015-09-09T09:16:05Z</time>
      </trkpt>
      <trkpt lat="42.25495" lon="8.94221">
        <ele>1745.41</ele>
        <time>2015-09-09T09:16:36Z</time>
      </trkpt>
      <trkpt lat="42.25495" lon="8.94221">
        <ele>1745.41</ele>
        <time>2015-09-09T09:17:00Z</time>
      </trkpt>
      <trkpt lat="42.25495" lon="8.9422">
        <ele>1745.41</ele>
        <time>2015-09-09T09:17:35Z</time>
      </trkpt>
      <trkpt lat="42.25494" lon="8.94219">
        <ele>1745.89</ele>
        <time>2015-09-09T09:17:59Z</time>
      </trkpt>
      <trkpt lat="42.25496" lon="8.94222">
        <ele>1745.89</ele>
        <time>2015-09-09T09:18:19Z</time>
      </trkpt>
      <trkpt lat="42.25496" lon="8.94221">
        <ele>1745.89</ele>
        <time>2015-09-09T09:18:50Z</time>
      </trkpt>
      <trkpt lat="42.25496" lon="8.94222">
        <ele>1745.89</ele>
        <time>2015-09-09T09:19:20Z</time>
      </trkpt>
      <trkpt lat="42.25496" lon="8.94222">
        <ele>1745.89</ele>
        <time>2015-09-09T09:19:51Z</time>
      </trkpt>
      <trkpt lat="42.25495" lon="8.94222">
        <ele>1745.89</ele>
        <time>2015-09-09T09:20:17Z</time>
      </trkpt>
      <trkpt lat="42.25494" lon="8.94222">
        <ele>1745.89</ele>
        <time>2015-09-09T09:20:35Z</time>
      </trkpt>
      <trkpt lat="42.25495" lon="8.94224">
        <ele>1747.33</ele>
        <time>2015-09-09T09:20:52Z</time>
      </trkpt>
      <trkpt lat="42.25497" lon="8.94226">
        <ele>1747.33</ele>
        <time>2015-09-09T09:21:19Z</time>
      </trkpt>
      <trkpt lat="42.25497" lon="8.94223">
        <ele>1747.81</ele>
        <time>2015-09-09T09:21:44Z</time>
      </trkpt>
      <trkpt lat="42.25495" lon="8.94222">
        <ele>1747.33</ele>
        <time>2015-09-09T09:22:11Z</time>
      </trkpt>
      <trkpt lat="42.25495" lon="8.94221">
        <ele>1747.33</ele>
        <time>2015-09-09T09:22:38Z</time>
      </trkpt>
      <trkpt lat="42.25494" lon="8.94222">
        <ele>1747.33</ele>
        <time>2015-09-09T09:22:57Z</time>
      </trkpt>
      <trkpt lat="42.25495" lon="8.9422">
        <ele>1747.33</ele>
        <time>2015-09-09T09:23:22Z</time>
      </trkpt>
      <trkpt lat="42.25495" lon="8.94217">
        <ele>1747.33</ele>
        <time>2015-09-09T09:23:40Z</time>
      </trkpt>
      <trkpt lat="42.25493" lon="8.94216">
        <ele>1747.33</ele>
        <time>2015-09-09T09:23:53Z</time>
      </trkpt>
      <trkpt lat="42.2549" lon="8.9421">
        <ele>1746.37</ele>
        <time>2015-09-09T09:24:12Z</time>
      </trkpt>
      <trkpt lat="42.25488" lon="8.94209">
        <ele>1745.89</ele>
        <time>2015-09-09T09:24:36Z</time>
      </trkpt>
      <trkpt lat="42.25494" lon="8.94216">
        <ele>1747.33</ele>
        <time>2015-09-09T09:24:51Z</time>
      </trkpt>
      <trkpt lat="42.25496" lon="8.94223">
        <ele>1747.33</ele>
        <time>2015-09-09T09:25:07Z</time>
      </trkpt>
      <trkpt lat="42.25496" lon="8.94224">
        <ele>1747.81</ele>
        <time>2015-09-09T09:25:22Z</time>
      </trkpt>
      <trkpt lat="42.25496" lon="8.94222">
        <ele>1747.81</ele>
        <time>2015-09-09T09:25:44Z</time>
      </trkpt>
      <trkpt lat="42.25497" lon="8.94225">
        <ele>1746.85</ele>
        <time>2015-09-09T09:25:56Z</time>
      </trkpt>
      <trkpt lat="42.25498" lon="8.94228">
        <ele>1748.29</ele>
        <time>2015-09-09T09:25:58Z</time>
      </trkpt>
      <trkpt lat="42.25496" lon="8.94223">
        <ele>1748.78</ele>
        <time>2015-09-09T09:26:25Z</time>
      </trkpt>
      <trkpt lat="42.2549" lon="8.94232">
        <ele>1748.78</ele>
        <time>2015-09-09T09:26:39Z</time>
      </trkpt>
      <trkpt lat="42.2549" lon="8.94235">
        <ele>1747.33</ele>
        <time>2015-09-09T09:26:42Z</time>
      </trkpt>
      <trkpt lat="42.2549" lon="8.94237">
        <ele>1747.33</ele>
        <time>2015-09-09T09:26:44Z</time>
      </trkpt>
      <trkpt lat="42.25489" lon="8.94243">
        <ele>1747.33</ele>
        <time>2015-09-09T09:26:49Z</time>
      </trkpt>
      <trkpt lat="42.2548" lon="8.94253">
        <ele>1747.33</ele>
        <time>2015-09-09T09:27:04Z</time>
      </trkpt>
      <trkpt lat="42.25477" lon="8.94256">
        <ele>1747.33</ele>
        <time>2015-09-09T09:27:09Z</time>
      </trkpt>
      <trkpt lat="42.25474" lon="8.94258">
        <ele>1747.33</ele>
        <time>2015-09-09T09:27:13Z</time>
      </trkpt>
      <trkpt lat="42.25472" lon="8.9426">
        <ele>1747.33</ele>
        <time>2015-09-09T09:27:15Z</time>
      </trkpt>
      <trkpt lat="42.25466" lon="8.94266">
        <ele>1747.33</ele>
        <time>2015-09-09T09:27:33Z</time>
      </trkpt>
      <trkpt lat="42.25456" lon="8.94276">
        <ele>1747.33</ele>
        <time>2015-09-09T09:27:49Z</time>
      </trkpt>
      <trkpt lat="42.25449" lon="8.94291">
        <ele>1748.78</ele>
        <time>2015-09-09T09:28:04Z</time>
      </trkpt>
      <trkpt lat="42.25442" lon="8.94299">
        <ele>1749.26</ele>
        <time>2015-09-09T09:28:14Z</time>
      </trkpt>
      <trkpt lat="42.25436" lon="8.94307">
        <ele>1749.26</ele>
        <time>2015-09-09T09:28:23Z</time>
      </trkpt>
      <trkpt lat="42.25432" lon="8.94323">
        <ele>1749.26</ele>
        <time>2015-09-09T09:28:38Z</time>
      </trkpt>
      <trkpt lat="42.25428" lon="8.94336">
        <ele>1749.26</ele>
        <time>2015-09-09T09:28:49Z</time>
      </trkpt>
      <trkpt lat="42.25422" lon="8.94358">
        <ele>1747.81</ele>
        <time>2015-09-09T09:29:07Z</time>
      </trkpt>
      <trkpt lat="42.25414" lon="8.94373">
        <ele>1747.81</ele>
        <time>2015-09-09T09:29:22Z</time>
      </trkpt>
      <trkpt lat="42.25411" lon="8.94376">
        <ele>1747.81</ele>
        <time>2015-09-09T09:29:33Z</time>
      </trkpt>
      <trkpt lat="42.25404" lon="8.94387">
        <ele>1747.81</ele>
        <time>2015-09-09T09:29:47Z</time>
      </trkpt>
      <trkpt lat="42.25404" lon="8.94388">
        <ele>1747.81</ele>
        <time>2015-09-09T09:29:48Z</time>
      </trkpt>
      <trkpt lat="42.25402" lon="8.94392">
        <ele>1747.81</ele>
        <time>2015-09-09T09:29:51Z</time>
      </trkpt>
      <trkpt lat="42.25398" lon="8.94404">
        <ele>1747.81</ele>
        <time>2015-09-09T09:30:03Z</time>
      </trkpt>
      <trkpt lat="42.25391" lon="8.9441">
        <ele>1747.33</ele>
        <time>2015-09-09T09:30:18Z</time>
      </trkpt>
      <trkpt lat="42.25385" lon="8.94419">
        <ele>1747.33</ele>
        <time>2015-09-09T09:30:35Z</time>
      </trkpt>
      <trkpt lat="42.25386" lon="8.9442">
        <ele>1747.81</ele>
        <time>2015-09-09T09:30:59Z</time>
      </trkpt>
      <trkpt lat="42.25388" lon="8.94421">
        <ele>1747.81</ele>
        <time>2015-09-09T09:31:04Z</time>
      </trkpt>
      <trkpt lat="42.25388" lon="8.94425">
        <ele>1747.81</ele>
        <time>2015-09-09T09:31:08Z</time>
      </trkpt>
      <trkpt lat="42.25385" lon="8.94435">
        <ele>1747.81</ele>
        <time>2015-09-09T09:31:16Z</time>
      </trkpt>
      <trkpt lat="42.25384" lon="8.94438">
        <ele>1747.81</ele>
        <time>2015-09-09T09:31:19Z</time>
      </trkpt>
      <trkpt lat="42.25383" lon="8.9444">
        <ele>1747.81</ele>
        <time>2015-09-09T09:31:21Z</time>
      </trkpt>
      <trkpt lat="42.25379" lon="8.94449">
        <ele>1748.29</ele>
        <time>2015-09-09T09:31:30Z</time>
      </trkpt>
      <trkpt lat="42.25367" lon="8.9447">
        <ele>1748.78</ele>
        <time>2015-09-09T09:31:49Z</time>
      </trkpt>
      <trkpt lat="42.25361" lon="8.94484">
        <ele>1748.78</ele>
        <time>2015-09-09T09:32:00Z</time>
      </trkpt>
      <trkpt lat="42.25359" lon="8.94509">
        <ele>1748.78</ele>
        <time>2015-09-09T09:32:17Z</time>
      </trkpt>
      <trkpt lat="42.25359" lon="8.94514">
        <ele>1748.78</ele>
        <time>2015-09-09T09:32:20Z</time>
      </trkpt>
      <trkpt lat="42.25357" lon="8.94524">
        <ele>1748.78</ele>
        <time>2015-09-09T09:32:27Z</time>
      </trkpt>
      <trkpt lat="42.25356" lon="8.94529">
        <ele>1748.78</ele>
        <time>2015-09-09T09:32:31Z</time>
      </trkpt>
      <trkpt lat="42.25347" lon="8.94545">
        <ele>1748.78</ele>
        <time>2015-09-09T09:32:46Z</time>
      </trkpt>
      <trkpt lat="42.25347" lon="8.94549">
        <ele>1748.78</ele>
        <time>2015-09-09T09:32:49Z</time>
      </trkpt>
      <trkpt lat="42.25346" lon="8.94552">
        <ele>1748.78</ele>
        <time>2015-09-09T09:32:52Z</time>
      </trkpt>
      <trkpt lat="42.25344" lon="8.94556">
        <ele>1747.33</ele>
        <time>2015-09-09T09:32:55Z</time>
      </trkpt>
      <trkpt lat="42.25344" lon="8.94562">
        <ele>1747.33</ele>
        <time>2015-09-09T09:32:59Z</time>
      </trkpt>
      <trkpt lat="42.25342" lon="8.94567">
        <ele>1747.33</ele>
        <time>2015-09-09T09:33:03Z</time>
      </trkpt>
      <trkpt lat="42.25338" lon="8.94572">
        <ele>1746.85</ele>
        <time>2015-09-09T09:33:08Z</time>
      </trkpt>
      <trkpt lat="42.25333" lon="8.94579">
        <ele>1746.85</ele>
        <time>2015-09-09T09:33:14Z</time>
      </trkpt>
      <trkpt lat="42.25327" lon="8.94586">
        <ele>1746.85</ele>
        <time>2015-09-09T09:33:22Z</time>
      </trkpt>
      <trkpt lat="42.25323" lon="8.94587">
        <ele>1746.85</ele>
        <time>2015-09-09T09:33:28Z</time>
      </trkpt>
      <trkpt lat="42.25319" lon="8.94587">
        <ele>1746.85</ele>
        <time>2015-09-09T09:33:32Z</time>
      </trkpt>
      <trkpt lat="42.25311" lon="8.94595">
        <ele>1746.85</ele>
        <time>2015-09-09T09:33:42Z</time>
      </trkpt>
      <trkpt lat="42.25303" lon="8.94608">
        <ele>1746.37</ele>
        <time>2015-09-09T09:33:56Z</time>
      </trkpt>
      <trkpt lat="42.25302" lon="8.94611">
        <ele>1746.37</ele>
        <time>2015-09-09T09:33:58Z</time>
      </trkpt>
      <trkpt lat="42.25297" lon="8.94622">
        <ele>1746.37</ele>
        <time>2015-09-09T09:34:08Z</time>
      </trkpt>
      <trkpt lat="42.25296" lon="8.94625">
        <ele>1746.37</ele>
        <time>2015-09-09T09:34:11Z</time>
      </trkpt>
      <trkpt lat="42.25295" lon="8.94629">
        <ele>1746.37</ele>
        <time>2015-09-09T09:34:14Z</time>
      </trkpt>
      <trkpt lat="42.25294" lon="8.94636">
        <ele>1746.37</ele>
        <time>2015-09-09T09:34:19Z</time>
      </trkpt>
      <trkpt lat="42.25289" lon="8.94656">
        <ele>1746.37</ele>
        <time>2015-09-09T09:34:36Z</time>
      </trkpt>
      <trkpt lat="42.25284" lon="8.94669">
        <ele>1747.33</ele>
        <time>2015-09-09T09:34:47Z</time>
      </trkpt>
      <trkpt lat="42.25273" lon="8.94689">
        <ele>1747.33</ele>
        <time>2015-09-09T09:35:06Z</time>
      </trkpt>
      <trkpt lat="42.2527" lon="8.94705">
        <ele>1747.33</ele>
        <time>2015-09-09T09:35:16Z</time>
      </trkpt>
      <trkpt lat="42.25269" lon="8.94711">
        <ele>1747.81</ele>
        <time>2015-09-09T09:35:21Z</time>
      </trkpt>
      <trkpt lat="42.25268" lon="8.94714">
        <ele>1747.81</ele>
        <time>2015-09-09T09:35:23Z</time>
      </trkpt>
      <trkpt lat="42.25267" lon="8.94724">
        <ele>1747.81</ele>
        <time>2015-09-09T09:35:30Z</time>
      </trkpt>
      <trkpt lat="42.25261" lon="8.9474">
        <ele>1747.81</ele>
        <time>2015-09-09T09:35:43Z</time>
      </trkpt>
      <trkpt lat="42.25258" lon="8.94748">
        <ele>1747.81</ele>
        <time>2015-09-09T09:35:49Z</time>
      </trkpt>
      <trkpt lat="42.25252" lon="8.94777">
        <ele>1747.81</ele>
        <time>2015-09-09T09:36:09Z</time>
      </trkpt>
      <trkpt lat="42.25253" lon="8.94799">
        <ele>1747.81</ele>
        <time>2015-09-09T09:36:25Z</time>
      </trkpt>
      <trkpt lat="42.25253" lon="8.94806">
        <ele>1746.85</ele>
        <time>2015-09-09T09:36:30Z</time>
      </trkpt>
      <trkpt lat="42.25254" lon="8.94814">
        <ele>1746.85</ele>
        <time>2015-09-09T09:36:36Z</time>
      </trkpt>
      <trkpt lat="42.25254" lon="8.94819">
        <ele>1746.85</ele>
        <time>2015-09-09T09:36:40Z</time>
      </trkpt>
      <trkpt lat="42.25254" lon="8.94823">
        <ele>1746.85</ele>
        <time>2015-09-09T09:36:43Z</time>
      </trkpt>
      <trkpt lat="42.25255" lon="8.94834">
        <ele>1746.85</ele>
        <time>2015-09-09T09:36:51Z</time>
      </trkpt>
      <trkpt lat="42.25256" lon="8.94839">
        <ele>1746.85</ele>
        <time>2015-09-09T09:36:55Z</time>
      </trkpt>
      <trkpt lat="42.25255" lon="8.94843">
        <ele>1746.85</ele>
        <time>2015-09-09T09:36:58Z</time>
      </trkpt>
      <trkpt lat="42.25256" lon="8.94868">
        <ele>1746.85</ele>
        <time>2015-09-09T09:37:16Z</time>
      </trkpt>
      <trkpt lat="42.25256" lon="8.94875">
        <ele>1746.85</ele>
        <time>2015-09-09T09:37:22Z</time>
      </trkpt>
      <trkpt lat="42.25256" lon="8.94878">
        <ele>1746.85</ele>
        <time>2015-09-09T09:37:24Z</time>
      </trkpt>
      <trkpt lat="42.25256" lon="8.94886">
        <ele>1746.85</ele>
        <time>2015-09-09T09:37:30Z</time>
      </trkpt>
      <trkpt lat="42.25258" lon="8.94894">
        <ele>1746.85</ele>
        <time>2015-09-09T09:37:36Z</time>
      </trkpt>
      <trkpt lat="42.25266" lon="8.94916">
        <ele>1746.85</ele>
        <time>2015-09-09T09:37:54Z</time>
      </trkpt>
      <trkpt lat="42.25271" lon="8.94931">
        <ele>1746.37</ele>
        <time>2015-09-09T09:38:06Z</time>
      </trkpt>
      <trkpt lat="42.25274" lon="8.94941">
        <ele>1745.89</ele>
        <time>2015-09-09T09:38:15Z</time>
      </trkpt>
      <trkpt lat="42.25287" lon="8.94962">
        <ele>1746.37</ele>
        <time>2015-09-09T09:38:33Z</time>
      </trkpt>
      <trkpt lat="42.2529" lon="8.94972">
        <ele>1746.37</ele>
        <time>2015-09-09T09:38:42Z</time>
      </trkpt>
      <trkpt lat="42.25296" lon="8.94986">
        <ele>1746.37</ele>
        <time>2015-09-09T09:38:53Z</time>
      </trkpt>
      <trkpt lat="42.25297" lon="8.95">
        <ele>1746.37</ele>
        <time>2015-09-09T09:39:11Z</time>
      </trkpt>
      <trkpt lat="42.25297" lon="8.95">
        <ele>1746.37</ele>
        <time>2015-09-09T09:39:32Z</time>
      </trkpt>
      <trkpt lat="42.25297" lon="8.95">
        <ele>1746.37</ele>
        <time>2015-09-09T09:39:33Z</time>
      </trkpt>
      <trkpt lat="42.25299" lon="8.95012">
        <ele>1746.37</ele>
        <time>2015-09-09T09:39:41Z</time>
      </trkpt>
      <trkpt lat="42.253" lon="8.95016">
        <ele>1746.37</ele>
        <time>2015-09-09T09:39:44Z</time>
      </trkpt>
      <trkpt lat="42.25299" lon="8.95019">
        <ele>1746.37</ele>
        <time>2015-09-09T09:39:46Z</time>
      </trkpt>
      <trkpt lat="42.25299" lon="8.95026">
        <ele>1746.37</ele>
        <time>2015-09-09T09:39:52Z</time>
      </trkpt>
      <trkpt lat="42.25301" lon="8.95029">
        <ele>1746.37</ele>
        <time>2015-09-09T09:39:55Z</time>
      </trkpt>
      <trkpt lat="42.25301" lon="8.95036">
        <ele>1746.37</ele>
        <time>2015-09-09T09:39:59Z</time>
      </trkpt>
      <trkpt lat="42.25302" lon="8.9504">
        <ele>1746.37</ele>
        <time>2015-09-09T09:40:02Z</time>
      </trkpt>
      <trkpt lat="42.25304" lon="8.95063">
        <ele>1746.37</ele>
        <time>2015-09-09T09:40:20Z</time>
      </trkpt>
      <trkpt lat="42.25306" lon="8.95074">
        <ele>1746.37</ele>
        <time>2015-09-09T09:40:29Z</time>
      </trkpt>
      <trkpt lat="42.25307" lon="8.95078">
        <ele>1747.33</ele>
        <time>2015-09-09T09:40:32Z</time>
      </trkpt>
      <trkpt lat="42.25309" lon="8.95083">
        <ele>1747.33</ele>
        <time>2015-09-09T09:40:37Z</time>
      </trkpt>
      <trkpt lat="42.25309" lon="8.95086">
        <ele>1747.33</ele>
        <time>2015-09-09T09:40:39Z</time>
      </trkpt>
      <trkpt lat="42.25314" lon="8.95097">
        <ele>1747.33</ele>
        <time>2015-09-09T09:40:48Z</time>
      </trkpt>
      <trkpt lat="42.25322" lon="8.95115">
        <ele>1747.33</ele>
        <time>2015-09-09T09:41:04Z</time>
      </trkpt>
      <trkpt lat="42.25322" lon="8.95119">
        <ele>1747.33</ele>
        <time>2015-09-09T09:41:07Z</time>
      </trkpt>
      <trkpt lat="42.25324" lon="8.95129">
        <ele>1747.33</ele>
        <time>2015-09-09T09:41:15Z</time>
      </trkpt>
      <trkpt lat="42.25326" lon="8.95135">
        <ele>1746.37</ele>
        <time>2015-09-09T09:41:20Z</time>
      </trkpt>
      <trkpt lat="42.25324" lon="8.95145">
        <ele>1746.37</ele>
        <time>2015-09-09T09:41:28Z</time>
      </trkpt>
      <trkpt lat="42.25325" lon="8.95163">
        <ele>1746.37</ele>
        <time>2015-09-09T09:41:42Z</time>
      </trkpt>
      <trkpt lat="42.25324" lon="8.95172">
        <ele>1747.81</ele>
        <time>2015-09-09T09:41:49Z</time>
      </trkpt>
      <trkpt lat="42.25324" lon="8.95183">
        <ele>1747.81</ele>
        <time>2015-09-09T09:42:07Z</time>
      </trkpt>
      <trkpt lat="42.25324" lon="8.95188">
        <ele>1747.81</ele>
        <time>2015-09-09T09:42:34Z</time>
      </trkpt>
      <trkpt lat="42.25324" lon="8.95192">
        <ele>1747.81</ele>
        <time>2015-09-09T09:42:38Z</time>
      </trkpt>
      <trkpt lat="42.25327" lon="8.95211">
        <ele>1747.81</ele>
        <time>2015-09-09T09:42:55Z</time>
      </trkpt>
      <trkpt lat="42.25329" lon="8.95219">
        <ele>1747.81</ele>
        <time>2015-09-09T09:43:06Z</time>
      </trkpt>
      <trkpt lat="42.25328" lon="8.95222">
        <ele>1747.81</ele>
        <time>2015-09-09T09:43:09Z</time>
      </trkpt>
      <trkpt lat="42.25324" lon="8.95243">
        <ele>1747.81</ele>
        <time>2015-09-09T09:43:24Z</time>
      </trkpt>
      <trkpt lat="42.25326" lon="8.95266">
        <ele>1747.81</ele>
        <time>2015-09-09T09:43:41Z</time>
      </trkpt>
      <trkpt lat="42.25327" lon="8.95276">
        <ele>1747.81</ele>
        <time>2015-09-09T09:43:48Z</time>
      </trkpt>
      <trkpt lat="42.25328" lon="8.9528">
        <ele>1747.81</ele>
        <time>2015-09-09T09:43:51Z</time>
      </trkpt>
      <trkpt lat="42.2533" lon="8.95303">
        <ele>1747.81</ele>
        <time>2015-09-09T09:44:07Z</time>
      </trkpt>
      <trkpt lat="42.25332" lon="8.95312">
        <ele>1747.81</ele>
        <time>2015-09-09T09:44:14Z</time>
      </trkpt>
      <trkpt lat="42.25341" lon="8.95339">
        <ele>1747.81</ele>
        <time>2015-09-09T09:44:35Z</time>
      </trkpt>
      <trkpt lat="42.25342" lon="8.9534">
        <ele>1747.81</ele>
        <time>2015-09-09T09:44:36Z</time>
      </trkpt>
      <trkpt lat="42.25347" lon="8.95349">
        <ele>1746.85</ele>
        <time>2015-09-09T09:44:44Z</time>
      </trkpt>
      <trkpt lat="42.25348" lon="8.95351">
        <ele>1746.85</ele>
        <time>2015-09-09T09:44:46Z</time>
      </trkpt>
      <trkpt lat="42.25357" lon="8.95372">
        <ele>1746.85</ele>
        <time>2015-09-09T09:45:04Z</time>
      </trkpt>
      <trkpt lat="42.25364" lon="8.95388">
        <ele>1746.85</ele>
        <time>2015-09-09T09:45:18Z</time>
      </trkpt>
      <trkpt lat="42.2537" lon="8.95399">
        <ele>1746.85</ele>
        <time>2015-09-09T09:45:29Z</time>
      </trkpt>
      <trkpt lat="42.25372" lon="8.95405">
        <ele>1746.85</ele>
        <time>2015-09-09T09:45:33Z</time>
      </trkpt>
      <trkpt lat="42.25385" lon="8.95425">
        <ele>1747.81</ele>
        <time>2015-09-09T09:45:51Z</time>
      </trkpt>
      <trkpt lat="42.25395" lon="8.95443">
        <ele>1748.29</ele>
        <time>2015-09-09T09:46:09Z</time>
      </trkpt>
      <trkpt lat="42.25399" lon="8.95456">
        <ele>1748.29</ele>
        <time>2015-09-09T09:46:19Z</time>
      </trkpt>
      <trkpt lat="42.25399" lon="8.9546">
        <ele>1748.29</ele>
        <time>2015-09-09T09:46:22Z</time>
      </trkpt>
      <trkpt lat="42.25409" lon="8.95484">
        <ele>1748.29</ele>
        <time>2015-09-09T09:46:43Z</time>
      </trkpt>
      <trkpt lat="42.25416" lon="8.95496">
        <ele>1748.78</ele>
        <time>2015-09-09T09:46:58Z</time>
      </trkpt>
      <trkpt lat="42.25418" lon="8.95506">
        <ele>1748.78</ele>
        <time>2015-09-09T09:47:06Z</time>
      </trkpt>
      <trkpt lat="42.2543" lon="8.95526">
        <ele>1748.78</ele>
        <time>2015-09-09T09:47:24Z</time>
      </trkpt>
      <trkpt lat="42.2544" lon="8.95546">
        <ele>1748.78</ele>
        <time>2015-09-09T09:47:42Z</time>
      </trkpt>
      <trkpt lat="42.25441" lon="8.95554">
        <ele>1748.78</ele>
        <time>2015-09-09T09:47:48Z</time>
      </trkpt>
      <trkpt lat="42.25452" lon="8.95576">
        <ele>1748.78</ele>
        <time>2015-09-09T09:48:08Z</time>
      </trkpt>
      <trkpt lat="42.25461" lon="8.95592">
        <ele>1749.26</ele>
        <time>2015-09-09T09:48:25Z</time>
      </trkpt>
      <trkpt lat="42.2547" lon="8.95605">
        <ele>1749.26</ele>
        <time>2015-09-09T09:48:38Z</time>
      </trkpt>
      <trkpt lat="42.25482" lon="8.95625">
        <ele>1749.26</ele>
        <time>2015-09-09T09:48:57Z</time>
      </trkpt>
      <trkpt lat="42.25483" lon="8.95628">
        <ele>1749.26</ele>
        <time>2015-09-09T09:49:00Z</time>
      </trkpt>
      <trkpt lat="42.25477" lon="8.95637">
        <ele>1748.29</ele>
        <time>2015-09-09T09:49:12Z</time>
      </trkpt>
      <trkpt lat="42.25467" lon="8.95648">
        <ele>1744.93</ele>
        <time>2015-09-09T09:49:29Z</time>
      </trkpt>
      <trkpt lat="42.25462" lon="8.95662">
        <ele>1743.01</ele>
        <time>2015-09-09T09:49:45Z</time>
      </trkpt>
      <trkpt lat="42.25455" lon="8.95674">
        <ele>1740.12</ele>
        <time>2015-09-09T09:50:03Z</time>
      </trkpt>
      <trkpt lat="42.25455" lon="8.95676">
        <ele>1740.12</ele>
        <time>2015-09-09T09:50:05Z</time>
      </trkpt>
      <trkpt lat="42.25446" lon="8.95689">
        <ele>1738.2</ele>
        <time>2015-09-09T09:50:22Z</time>
      </trkpt>
      <trkpt lat="42.2544" lon="8.95696">
        <ele>1737.24</ele>
        <time>2015-09-09T09:50:32Z</time>
      </trkpt>
      <trkpt lat="42.25438" lon="8.95697">
        <ele>1737.24</ele>
        <time>2015-09-09T09:50:34Z</time>
      </trkpt>
      <trkpt lat="42.25433" lon="8.95705">
        <ele>1736.76</ele>
        <time>2015-09-09T09:50:43Z</time>
      </trkpt>
      <trkpt lat="42.25431" lon="8.95709">
        <ele>1736.28</ele>
        <time>2015-09-09T09:50:47Z</time>
      </trkpt>
      <trkpt lat="42.25428" lon="8.95713">
        <ele>1735.8</ele>
        <time>2015-09-09T09:50:51Z</time>
      </trkpt>
      <trkpt lat="42.25427" lon="8.95716">
        <ele>1735.8</ele>
        <time>2015-09-09T09:50:53Z</time>
      </trkpt>
      <trkpt lat="42.25415" lon="8.9573">
        <ele>1734.36</ele>
        <time>2015-09-09T09:51:10Z</time>
      </trkpt>
      <trkpt lat="42.25414" lon="8.95734">
        <ele>1733.88</ele>
        <time>2015-09-09T09:51:13Z</time>
      </trkpt>
      <trkpt lat="42.25408" lon="8.95739">
        <ele>1733.39</ele>
        <time>2015-09-09T09:51:20Z</time>
      </trkpt>
      <trkpt lat="42.25392" lon="8.95745">
        <ele>1731.95</ele>
        <time>2015-09-09T09:51:40Z</time>
      </trkpt>
      <trkpt lat="42.25388" lon="8.95753">
        <ele>1730.99</ele>
        <time>2015-09-09T09:51:55Z</time>
      </trkpt>
      <trkpt lat="42.25377" lon="8.95755">
        <ele>1731.95</ele>
        <time>2015-09-09T09:52:11Z</time>
      </trkpt>
      <trkpt lat="42.25367" lon="8.95755">
        <ele>1735.32</ele>
        <time>2015-09-09T09:52:25Z</time>
      </trkpt>
      <trkpt lat="42.25358" lon="8.95762">
        <ele>1733.39</ele>
        <time>2015-09-09T09:52:40Z</time>
      </trkpt>
      <trkpt lat="42.25357" lon="8.95763">
        <ele>1733.39</ele>
        <time>2015-09-09T09:52:42Z</time>
      </trkpt>
      <trkpt lat="42.25353" lon="8.95765">
        <ele>1734.84</ele>
        <time>2015-09-09T09:52:47Z</time>
      </trkpt>
      <trkpt lat="42.25345" lon="8.95776">
        <ele>1733.39</ele>
        <time>2015-09-09T09:53:01Z</time>
      </trkpt>
      <trkpt lat="42.25332" lon="8.9579">
        <ele>1732.91</ele>
        <time>2015-09-09T09:53:19Z</time>
      </trkpt>
      <trkpt lat="42.25329" lon="8.95795">
        <ele>1733.39</ele>
        <time>2015-09-09T09:53:25Z</time>
      </trkpt>
      <trkpt lat="42.25318" lon="8.9581">
        <ele>1733.39</ele>
        <time>2015-09-09T09:53:41Z</time>
      </trkpt>
      <trkpt lat="42.25314" lon="8.95813">
        <ele>1732.91</ele>
        <time>2015-09-09T09:53:46Z</time>
      </trkpt>
      <trkpt lat="42.25313" lon="8.95815">
        <ele>1733.39</ele>
        <time>2015-09-09T09:53:49Z</time>
      </trkpt>
      <trkpt lat="42.25305" lon="8.95833">
        <ele>1732.91</ele>
        <time>2015-09-09T09:54:08Z</time>
      </trkpt>
      <trkpt lat="42.25299" lon="8.95843">
        <ele>1732.91</ele>
        <time>2015-09-09T09:54:20Z</time>
      </trkpt>
      <trkpt lat="42.25292" lon="8.95852">
        <ele>1734.36</ele>
        <time>2015-09-09T09:54:30Z</time>
      </trkpt>
      <trkpt lat="42.25286" lon="8.95862">
        <ele>1734.84</ele>
        <time>2015-09-09T09:54:42Z</time>
      </trkpt>
      <trkpt lat="42.25279" lon="8.95882">
        <ele>1734.84</ele>
        <time>2015-09-09T09:55:00Z</time>
      </trkpt>
      <trkpt lat="42.25278" lon="8.95885">
        <ele>1733.39</ele>
        <time>2015-09-09T09:55:03Z</time>
      </trkpt>
      <trkpt lat="42.25272" lon="8.95897">
        <ele>1732.91</ele>
        <time>2015-09-09T09:55:14Z</time>
      </trkpt>
      <trkpt lat="42.25264" lon="8.95912">
        <ele>1730.99</ele>
        <time>2015-09-09T09:55:32Z</time>
      </trkpt>
      <trkpt lat="42.25254" lon="8.95918">
        <ele>1730.51</ele>
        <time>2015-09-09T09:55:48Z</time>
      </trkpt>
      <trkpt lat="42.25249" lon="8.95929">
        <ele>1729.55</ele>
        <time>2015-09-09T09:55:59Z</time>
      </trkpt>
      <trkpt lat="42.25242" lon="8.95936">
        <ele>1729.07</ele>
        <time>2015-09-09T09:56:08Z</time>
      </trkpt>
      <trkpt lat="42.25231" lon="8.95949">
        <ele>1728.11</ele>
        <time>2015-09-09T09:56:24Z</time>
      </trkpt>
      <trkpt lat="42.25219" lon="8.9596">
        <ele>1728.11</ele>
        <time>2015-09-09T09:56:40Z</time>
      </trkpt>
      <trkpt lat="42.25205" lon="8.95975">
        <ele>1727.63</ele>
        <time>2015-09-09T09:56:57Z</time>
      </trkpt>
      <trkpt lat="42.25196" lon="8.95988">
        <ele>1727.15</ele>
        <time>2015-09-09T09:57:13Z</time>
      </trkpt>
      <trkpt lat="42.25193" lon="8.9599">
        <ele>1727.15</ele>
        <time>2015-09-09T09:57:16Z</time>
      </trkpt>
      <trkpt lat="42.25182" lon="8.95998">
        <ele>1728.11</ele>
        <time>2015-09-09T09:57:31Z</time>
      </trkpt>
      <trkpt lat="42.25169" lon="8.96009">
        <ele>1728.11</ele>
        <time>2015-09-09T09:57:47Z</time>
      </trkpt>
      <trkpt lat="42.25158" lon="8.96021">
        <ele>1727.15</ele>
        <time>2015-09-09T09:58:03Z</time>
      </trkpt>
      <trkpt lat="42.25155" lon="8.96023">
        <ele>1726.67</ele>
        <time>2015-09-09T09:58:07Z</time>
      </trkpt>
      <trkpt lat="42.25141" lon="8.96032">
        <ele>1723.78</ele>
        <time>2015-09-09T09:58:27Z</time>
      </trkpt>
      <trkpt lat="42.25135" lon="8.96049">
        <ele>1721.86</ele>
        <time>2015-09-09T09:58:44Z</time>
      </trkpt>
      <trkpt lat="42.25132" lon="8.96053">
        <ele>1721.38</ele>
        <time>2015-09-09T09:58:49Z</time>
      </trkpt>
      <trkpt lat="42.2513" lon="8.96064">
        <ele>1720.42</ele>
        <time>2015-09-09T09:59:04Z</time>
      </trkpt>
      <trkpt lat="42.25123" lon="8.96079">
        <ele>1718.97</ele>
        <time>2015-09-09T09:59:21Z</time>
      </trkpt>
      <trkpt lat="42.25115" lon="8.96094">
        <ele>1717.53</ele>
        <time>2015-09-09T09:59:38Z</time>
      </trkpt>
      <trkpt lat="42.25109" lon="8.96103">
        <ele>1717.05</ele>
        <time>2015-09-09T09:59:46Z</time>
      </trkpt>
      <trkpt lat="42.25099" lon="8.96116">
        <ele>1715.13</ele>
        <time>2015-09-09T10:00:05Z</time>
      </trkpt>
      <trkpt lat="42.25098" lon="8.96123">
        <ele>1714.17</ele>
        <time>2015-09-09T10:00:13Z</time>
      </trkpt>
      <trkpt lat="42.25095" lon="8.9613">
        <ele>1713.69</ele>
        <time>2015-09-09T10:00:22Z</time>
      </trkpt>
      <trkpt lat="42.25088" lon="8.96141">
        <ele>1711.28</ele>
        <time>2015-09-09T10:00:38Z</time>
      </trkpt>
      <trkpt lat="42.25085" lon="8.96151">
        <ele>1708.4</ele>
        <time>2015-09-09T10:00:54Z</time>
      </trkpt>
      <trkpt lat="42.25077" lon="8.96161">
        <ele>1706.48</ele>
        <time>2015-09-09T10:01:11Z</time>
      </trkpt>
      <trkpt lat="42.25077" lon="8.96161">
        <ele>1706.48</ele>
        <time>2015-09-09T10:01:12Z</time>
      </trkpt>
      <trkpt lat="42.2507" lon="8.96164">
        <ele>1705.04</ele>
        <time>2015-09-09T10:01:21Z</time>
      </trkpt>
      <trkpt lat="42.25068" lon="8.96168">
        <ele>1704.55</ele>
        <time>2015-09-09T10:01:25Z</time>
      </trkpt>
      <trkpt lat="42.25063" lon="8.96179">
        <ele>1703.11</ele>
        <time>2015-09-09T10:01:37Z</time>
      </trkpt>
      <trkpt lat="42.25051" lon="8.96184">
        <ele>1700.71</ele>
        <time>2015-09-09T10:01:55Z</time>
      </trkpt>
      <trkpt lat="42.25045" lon="8.96192">
        <ele>1698.79</ele>
        <time>2015-09-09T10:02:10Z</time>
      </trkpt>
      <trkpt lat="42.25041" lon="8.96203">
        <ele>1696.86</ele>
        <time>2015-09-09T10:02:23Z</time>
      </trkpt>
      <trkpt lat="42.2503" lon="8.96204">
        <ele>1694.94</ele>
        <time>2015-09-09T10:02:40Z</time>
      </trkpt>
      <trkpt lat="42.25024" lon="8.96206">
        <ele>1693.02</ele>
        <time>2015-09-09T10:02:56Z</time>
      </trkpt>
      <trkpt lat="42.25017" lon="8.9621">
        <ele>1692.06</ele>
        <time>2015-09-09T10:03:12Z</time>
      </trkpt>
      <trkpt lat="42.2501" lon="8.96215">
        <ele>1690.14</ele>
        <time>2015-09-09T10:03:26Z</time>
      </trkpt>
      <trkpt lat="42.25004" lon="8.96216">
        <ele>1688.21</ele>
        <time>2015-09-09T10:03:40Z</time>
      </trkpt>
      <trkpt lat="42.24993" lon="8.96213">
        <ele>1686.29</ele>
        <time>2015-09-09T10:03:56Z</time>
      </trkpt>
      <trkpt lat="42.24981" lon="8.96213">
        <ele>1683.89</ele>
        <time>2015-09-09T10:04:15Z</time>
      </trkpt>
      <trkpt lat="42.24974" lon="8.9622">
        <ele>1681.96</ele>
        <time>2015-09-09T10:04:31Z</time>
      </trkpt>
      <trkpt lat="42.24968" lon="8.96214">
        <ele>1681</ele>
        <time>2015-09-09T10:04:43Z</time>
      </trkpt>
      <trkpt lat="42.24961" lon="8.96211">
        <ele>1679.08</ele>
        <time>2015-09-09T10:04:57Z</time>
      </trkpt>
      <trkpt lat="42.24951" lon="8.96201">
        <ele>1677.16</ele>
        <time>2015-09-09T10:05:15Z</time>
      </trkpt>
      <trkpt lat="42.24945" lon="8.96191">
        <ele>1675.72</ele>
        <time>2015-09-09T10:05:34Z</time>
      </trkpt>
      <trkpt lat="42.24937" lon="8.96187">
        <ele>1674.75</ele>
        <time>2015-09-09T10:05:51Z</time>
      </trkpt>
      <trkpt lat="42.24932" lon="8.96189">
        <ele>1672.35</ele>
        <time>2015-09-09T10:06:06Z</time>
      </trkpt>
      <trkpt lat="42.24924" lon="8.96189">
        <ele>1670.43</ele>
        <time>2015-09-09T10:06:22Z</time>
      </trkpt>
      <trkpt lat="42.24915" lon="8.96194">
        <ele>1669.47</ele>
        <time>2015-09-09T10:06:38Z</time>
      </trkpt>
      <trkpt lat="42.24909" lon="8.9619">
        <ele>1668.02</ele>
        <time>2015-09-09T10:06:52Z</time>
      </trkpt>
      <trkpt lat="42.24903" lon="8.96188">
        <ele>1666.58</ele>
        <time>2015-09-09T10:07:06Z</time>
      </trkpt>
      <trkpt lat="42.24898" lon="8.96183">
        <ele>1666.1</ele>
        <time>2015-09-09T10:07:15Z</time>
      </trkpt>
      <trkpt lat="42.24894" lon="8.96179">
        <ele>1666.1</ele>
        <time>2015-09-09T10:07:21Z</time>
      </trkpt>
      <trkpt lat="42.24885" lon="8.96177">
        <ele>1665.62</ele>
        <time>2015-09-09T10:07:37Z</time>
      </trkpt>
      <trkpt lat="42.24878" lon="8.96178">
        <ele>1664.18</ele>
        <time>2015-09-09T10:07:51Z</time>
      </trkpt>
      <trkpt lat="42.2487" lon="8.96177">
        <ele>1662.26</ele>
        <time>2015-09-09T10:08:07Z</time>
      </trkpt>
      <trkpt lat="42.24865" lon="8.96182">
        <ele>1661.3</ele>
        <time>2015-09-09T10:08:24Z</time>
      </trkpt>
      <trkpt lat="42.24856" lon="8.96187">
        <ele>1659.37</ele>
        <time>2015-09-09T10:08:40Z</time>
      </trkpt>
      <trkpt lat="42.24847" lon="8.96179">
        <ele>1657.45</ele>
        <time>2015-09-09T10:08:59Z</time>
      </trkpt>
      <trkpt lat="42.24837" lon="8.96176">
        <ele>1657.45</ele>
        <time>2015-09-09T10:09:13Z</time>
      </trkpt>
      <trkpt lat="42.24828" lon="8.96178">
        <ele>1656.01</ele>
        <time>2015-09-09T10:09:28Z</time>
      </trkpt>
      <trkpt lat="42.24824" lon="8.96185">
        <ele>1654.57</ele>
        <time>2015-09-09T10:09:43Z</time>
      </trkpt>
      <trkpt lat="42.24818" lon="8.96191">
        <ele>1653.12</ele>
        <time>2015-09-09T10:10:00Z</time>
      </trkpt>
      <trkpt lat="42.24807" lon="8.96199">
        <ele>1652.16</ele>
        <time>2015-09-09T10:10:17Z</time>
      </trkpt>
      <trkpt lat="42.24801" lon="8.96207">
        <ele>1651.2</ele>
        <time>2015-09-09T10:10:33Z</time>
      </trkpt>
      <trkpt lat="42.24795" lon="8.96215">
        <ele>1648.32</ele>
        <time>2015-09-09T10:10:48Z</time>
      </trkpt>
      <trkpt lat="42.24796" lon="8.96223">
        <ele>1647.36</ele>
        <time>2015-09-09T10:10:56Z</time>
      </trkpt>
      <trkpt lat="42.24789" lon="8.96226">
        <ele>1645.43</ele>
        <time>2015-09-09T10:11:12Z</time>
      </trkpt>
      <trkpt lat="42.24783" lon="8.96221">
        <ele>1643.99</ele>
        <time>2015-09-09T10:11:30Z</time>
      </trkpt>
      <trkpt lat="42.24781" lon="8.96221">
        <ele>1643.51</ele>
        <time>2015-09-09T10:11:36Z</time>
      </trkpt>
      <trkpt lat="42.24776" lon="8.96232">
        <ele>1641.59</ele>
        <time>2015-09-09T10:11:51Z</time>
      </trkpt>
      <trkpt lat="42.24767" lon="8.96231">
        <ele>1640.15</ele>
        <time>2015-09-09T10:12:07Z</time>
      </trkpt>
      <trkpt lat="42.24759" lon="8.9624">
        <ele>1638.22</ele>
        <time>2015-09-09T10:12:23Z</time>
      </trkpt>
      <trkpt lat="42.2475" lon="8.96246">
        <ele>1636.78</ele>
        <time>2015-09-09T10:12:39Z</time>
      </trkpt>
      <trkpt lat="42.2474" lon="8.9626">
        <ele>1635.34</ele>
        <time>2015-09-09T10:12:56Z</time>
      </trkpt>
      <trkpt lat="42.24739" lon="8.96261">
        <ele>1635.34</ele>
        <time>2015-09-09T10:12:58Z</time>
      </trkpt>
      <trkpt lat="42.24729" lon="8.96266">
        <ele>1634.86</ele>
        <time>2015-09-09T10:13:15Z</time>
      </trkpt>
      <trkpt lat="42.24722" lon="8.96266">
        <ele>1633.9</ele>
        <time>2015-09-09T10:13:30Z</time>
      </trkpt>
      <trkpt lat="42.24714" lon="8.96266">
        <ele>1632.94</ele>
        <time>2015-09-09T10:13:44Z</time>
      </trkpt>
      <trkpt lat="42.24712" lon="8.96264">
        <ele>1632.94</ele>
        <time>2015-09-09T10:14:04Z</time>
      </trkpt>
      <trkpt lat="42.2471" lon="8.96268">
        <ele>1632.46</ele>
        <time>2015-09-09T10:14:21Z</time>
      </trkpt>
      <trkpt lat="42.24708" lon="8.9627">
        <ele>1632.46</ele>
        <time>2015-09-09T10:14:24Z</time>
      </trkpt>
      <trkpt lat="42.24695" lon="8.96273">
        <ele>1631.98</ele>
        <time>2015-09-09T10:14:41Z</time>
      </trkpt>
      <trkpt lat="42.24695" lon="8.96273">
        <ele>1631.98</ele>
        <time>2015-09-09T10:14:42Z</time>
      </trkpt>
      <trkpt lat="42.24683" lon="8.96279">
        <ele>1630.53</ele>
        <time>2015-09-09T10:14:58Z</time>
      </trkpt>
      <trkpt lat="42.24673" lon="8.96282">
        <ele>1628.13</ele>
        <time>2015-09-09T10:15:14Z</time>
      </trkpt>
      <trkpt lat="42.24668" lon="8.96289">
        <ele>1626.69</ele>
        <time>2015-09-09T10:15:29Z</time>
      </trkpt>
      <trkpt lat="42.24661" lon="8.96294">
        <ele>1625.73</ele>
        <time>2015-09-09T10:15:41Z</time>
      </trkpt>
      <trkpt lat="42.24655" lon="8.96306">
        <ele>1625.25</ele>
        <time>2015-09-09T10:15:53Z</time>
      </trkpt>
      <trkpt lat="42.24647" lon="8.96324">
        <ele>1623.8</ele>
        <time>2015-09-09T10:16:10Z</time>
      </trkpt>
      <trkpt lat="42.24644" lon="8.96334">
        <ele>1623.32</ele>
        <time>2015-09-09T10:16:19Z</time>
      </trkpt>
      <trkpt lat="42.24642" lon="8.96337">
        <ele>1623.32</ele>
        <time>2015-09-09T10:16:22Z</time>
      </trkpt>
      <trkpt lat="42.2464" lon="8.9634">
        <ele>1623.32</ele>
        <time>2015-09-09T10:16:25Z</time>
      </trkpt>
      <trkpt lat="42.24638" lon="8.96343">
        <ele>1622.84</ele>
        <time>2015-09-09T10:16:29Z</time>
      </trkpt>
      <trkpt lat="42.24637" lon="8.96351">
        <ele>1622.84</ele>
        <time>2015-09-09T10:16:36Z</time>
      </trkpt>
      <trkpt lat="42.24625" lon="8.96362">
        <ele>1621.4</ele>
        <time>2015-09-09T10:16:54Z</time>
      </trkpt>
      <trkpt lat="42.24615" lon="8.96375">
        <ele>1620.44</ele>
        <time>2015-09-09T10:17:11Z</time>
      </trkpt>
      <trkpt lat="42.24614" lon="8.96375">
        <ele>1620.44</ele>
        <time>2015-09-09T10:17:12Z</time>
      </trkpt>
      <trkpt lat="42.24608" lon="8.96381">
        <ele>1619.48</ele>
        <time>2015-09-09T10:17:29Z</time>
      </trkpt>
      <trkpt lat="42.24604" lon="8.96389">
        <ele>1618.04</ele>
        <time>2015-09-09T10:17:42Z</time>
      </trkpt>
      <trkpt lat="42.24599" lon="8.96406">
        <ele>1617.56</ele>
        <time>2015-09-09T10:17:58Z</time>
      </trkpt>
      <trkpt lat="42.24591" lon="8.96417">
        <ele>1616.59</ele>
        <time>2015-09-09T10:18:14Z</time>
      </trkpt>
      <trkpt lat="42.24584" lon="8.96426">
        <ele>1615.63</ele>
        <time>2015-09-09T10:18:28Z</time>
      </trkpt>
      <trkpt lat="42.24574" lon="8.96443">
        <ele>1615.15</ele>
        <time>2015-09-09T10:18:46Z</time>
      </trkpt>
      <trkpt lat="42.24565" lon="8.96457">
        <ele>1612.75</ele>
        <time>2015-09-09T10:19:03Z</time>
      </trkpt>
      <trkpt lat="42.24556" lon="8.96462">
        <ele>1611.31</ele>
        <time>2015-09-09T10:19:17Z</time>
      </trkpt>
      <trkpt lat="42.24554" lon="8.96469">
        <ele>1610.83</ele>
        <time>2015-09-09T10:19:22Z</time>
      </trkpt>
      <trkpt lat="42.24551" lon="8.96491">
        <ele>1610.35</ele>
        <time>2015-09-09T10:19:42Z</time>
      </trkpt>
      <trkpt lat="42.24544" lon="8.96499">
        <ele>1609.86</ele>
        <time>2015-09-09T10:19:58Z</time>
      </trkpt>
      <trkpt lat="42.24544" lon="8.96513">
        <ele>1608.9</ele>
        <time>2015-09-09T10:20:14Z</time>
      </trkpt>
      <trkpt lat="42.24542" lon="8.96527">
        <ele>1609.86</ele>
        <time>2015-09-09T10:20:27Z</time>
      </trkpt>
      <trkpt lat="42.24536" lon="8.96536">
        <ele>1609.86</ele>
        <time>2015-09-09T10:20:38Z</time>
      </trkpt>
      <trkpt lat="42.24533" lon="8.96538">
        <ele>1608.9</ele>
        <time>2015-09-09T10:20:41Z</time>
      </trkpt>
      <trkpt lat="42.24529" lon="8.96539">
        <ele>1608.9</ele>
        <time>2015-09-09T10:20:58Z</time>
      </trkpt>
      <trkpt lat="42.24531" lon="8.96542">
        <ele>1608.9</ele>
        <time>2015-09-09T10:21:24Z</time>
      </trkpt>
      <trkpt lat="42.24533" lon="8.96544">
        <ele>1608.9</ele>
        <time>2015-09-09T10:21:45Z</time>
      </trkpt>
      <trkpt lat="42.24531" lon="8.96539">
        <ele>1608.42</ele>
        <time>2015-09-09T10:22:07Z</time>
      </trkpt>
      <trkpt lat="42.2453" lon="8.96537">
        <ele>1608.42</ele>
        <time>2015-09-09T10:22:22Z</time>
      </trkpt>
      <trkpt lat="42.24532" lon="8.96535">
        <ele>1608.42</ele>
        <time>2015-09-09T10:22:54Z</time>
      </trkpt>
      <trkpt lat="42.24534" lon="8.96538">
        <ele>1608.42</ele>
        <time>2015-09-09T10:23:11Z</time>
      </trkpt>
      <trkpt lat="42.24534" lon="8.96541">
        <ele>1608.42</ele>
        <time>2015-09-09T10:23:31Z</time>
      </trkpt>
      <trkpt lat="42.24532" lon="8.96541">
        <ele>1608.42</ele>
        <time>2015-09-09T10:23:50Z</time>
      </trkpt>
      <trkpt lat="42.2453" lon="8.96545">
        <ele>1607.94</ele>
        <time>2015-09-09T10:24:17Z</time>
      </trkpt>
      <trkpt lat="42.24529" lon="8.96543">
        <ele>1607.94</ele>
        <time>2015-09-09T10:24:41Z</time>
      </trkpt>
      <trkpt lat="42.24528" lon="8.96542">
        <ele>1607.94</ele>
        <time>2015-09-09T10:25:00Z</time>
      </trkpt>
      <trkpt lat="42.24529" lon="8.96542">
        <ele>1607.46</ele>
        <time>2015-09-09T10:25:26Z</time>
      </trkpt>
      <trkpt lat="42.24531" lon="8.96543">
        <ele>1607.46</ele>
        <time>2015-09-09T10:25:44Z</time>
      </trkpt>
      <trkpt lat="42.2453" lon="8.96549">
        <ele>1607.46</ele>
        <time>2015-09-09T10:25:59Z</time>
      </trkpt>
      <trkpt lat="42.24527" lon="8.96553">
        <ele>1607.46</ele>
        <time>2015-09-09T10:26:04Z</time>
      </trkpt>
      <trkpt lat="42.24525" lon="8.96557">
        <ele>1607.46</ele>
        <time>2015-09-09T10:26:08Z</time>
      </trkpt>
      <trkpt lat="42.24514" lon="8.96561">
        <ele>1606.98</ele>
        <time>2015-09-09T10:26:18Z</time>
      </trkpt>
      <trkpt lat="42.24498" lon="8.96569">
        <ele>1606.5</ele>
        <time>2015-09-09T10:26:35Z</time>
      </trkpt>
      <trkpt lat="42.24479" lon="8.96584">
        <ele>1605.54</ele>
        <time>2015-09-09T10:26:56Z</time>
      </trkpt>
      <trkpt lat="42.24474" lon="8.96589">
        <ele>1605.54</ele>
        <time>2015-09-09T10:27:05Z</time>
      </trkpt>
      <trkpt lat="42.24458" lon="8.96604">
        <ele>1604.58</ele>
        <time>2015-09-09T10:27:24Z</time>
      </trkpt>
      <trkpt lat="42.24446" lon="8.96618">
        <ele>1604.1</ele>
        <time>2015-09-09T10:27:40Z</time>
      </trkpt>
      <trkpt lat="42.24442" lon="8.96621">
        <ele>1603.62</ele>
        <time>2015-09-09T10:27:45Z</time>
      </trkpt>
      <trkpt lat="42.2444" lon="8.96639">
        <ele>1603.14</ele>
        <time>2015-09-09T10:28:03Z</time>
      </trkpt>
      <trkpt lat="42.24429" lon="8.9665">
        <ele>1603.14</ele>
        <time>2015-09-09T10:28:18Z</time>
      </trkpt>
      <trkpt lat="42.24428" lon="8.96652">
        <ele>1603.14</ele>
        <time>2015-09-09T10:28:20Z</time>
      </trkpt>
      <trkpt lat="42.24425" lon="8.96658">
        <ele>1603.14</ele>
        <time>2015-09-09T10:28:26Z</time>
      </trkpt>
      <trkpt lat="42.24423" lon="8.96659">
        <ele>1603.14</ele>
        <time>2015-09-09T10:28:28Z</time>
      </trkpt>
      <trkpt lat="42.2441" lon="8.96668">
        <ele>1604.58</ele>
        <time>2015-09-09T10:28:43Z</time>
      </trkpt>
      <trkpt lat="42.24409" lon="8.96672">
        <ele>1604.58</ele>
        <time>2015-09-09T10:28:46Z</time>
      </trkpt>
      <trkpt lat="42.24405" lon="8.96673">
        <ele>1604.58</ele>
        <time>2015-09-09T10:28:49Z</time>
      </trkpt>
      <trkpt lat="42.24393" lon="8.96682">
        <ele>1604.58</ele>
        <time>2015-09-09T10:29:04Z</time>
      </trkpt>
      <trkpt lat="42.24382" lon="8.96698">
        <ele>1604.1</ele>
        <time>2015-09-09T10:29:21Z</time>
      </trkpt>
      <trkpt lat="42.24376" lon="8.96711">
        <ele>1604.1</ele>
        <time>2015-09-09T10:29:32Z</time>
      </trkpt>
      <trkpt lat="42.24377" lon="8.96716">
        <ele>1604.1</ele>
        <time>2015-09-09T10:29:36Z</time>
      </trkpt>
      <trkpt lat="42.24366" lon="8.96736">
        <ele>1604.1</ele>
        <time>2015-09-09T10:29:53Z</time>
      </trkpt>
      <trkpt lat="42.2436" lon="8.96752">
        <ele>1604.1</ele>
        <time>2015-09-09T10:30:04Z</time>
      </trkpt>
      <trkpt lat="42.2436" lon="8.96757">
        <ele>1604.1</ele>
        <time>2015-09-09T10:30:07Z</time>
      </trkpt>
      <trkpt lat="42.24346" lon="8.96778">
        <ele>1603.14</ele>
        <time>2015-09-09T10:30:27Z</time>
      </trkpt>
      <trkpt lat="42.24332" lon="8.96795">
        <ele>1603.14</ele>
        <time>2015-09-09T10:30:45Z</time>
      </trkpt>
      <trkpt lat="42.24319" lon="8.96808">
        <ele>1602.66</ele>
        <time>2015-09-09T10:31:03Z</time>
      </trkpt>
      <trkpt lat="42.24313" lon="8.96816">
        <ele>1602.17</ele>
        <time>2015-09-09T10:31:16Z</time>
      </trkpt>
      <trkpt lat="42.24304" lon="8.96819">
        <ele>1601.69</ele>
        <time>2015-09-09T10:31:30Z</time>
      </trkpt>
      <trkpt lat="42.24291" lon="8.96819">
        <ele>1601.69</ele>
        <time>2015-09-09T10:31:46Z</time>
      </trkpt>
      <trkpt lat="42.24282" lon="8.96833">
        <ele>1601.21</ele>
        <time>2015-09-09T10:32:02Z</time>
      </trkpt>
      <trkpt lat="42.24274" lon="8.96851">
        <ele>1600.73</ele>
        <time>2015-09-09T10:32:22Z</time>
      </trkpt>
      <trkpt lat="42.24259" lon="8.9687">
        <ele>1601.69</ele>
        <time>2015-09-09T10:32:40Z</time>
      </trkpt>
      <trkpt lat="42.24257" lon="8.96872">
        <ele>1601.69</ele>
        <time>2015-09-09T10:32:43Z</time>
      </trkpt>
      <trkpt lat="42.24249" lon="8.96881">
        <ele>1602.66</ele>
        <time>2015-09-09T10:32:58Z</time>
      </trkpt>
      <trkpt lat="42.24242" lon="8.96893">
        <ele>1603.14</ele>
        <time>2015-09-09T10:33:15Z</time>
      </trkpt>
      <trkpt lat="42.24234" lon="8.96904">
        <ele>1603.14</ele>
        <time>2015-09-09T10:33:31Z</time>
      </trkpt>
      <trkpt lat="42.2423" lon="8.9692">
        <ele>1601.69</ele>
        <time>2015-09-09T10:33:47Z</time>
      </trkpt>
      <trkpt lat="42.24222" lon="8.96935">
        <ele>1601.21</ele>
        <time>2015-09-09T10:34:05Z</time>
      </trkpt>
      <trkpt lat="42.24217" lon="8.96944">
        <ele>1602.17</ele>
        <time>2015-09-09T10:34:15Z</time>
      </trkpt>
      <trkpt lat="42.24209" lon="8.9696">
        <ele>1603.14</ele>
        <time>2015-09-09T10:34:31Z</time>
      </trkpt>
      <trkpt lat="42.24202" lon="8.96971">
        <ele>1604.1</ele>
        <time>2015-09-09T10:34:46Z</time>
      </trkpt>
      <trkpt lat="42.24194" lon="8.9699">
        <ele>1605.54</ele>
        <time>2015-09-09T10:35:06Z</time>
      </trkpt>
      <trkpt lat="42.24188" lon="8.97007">
        <ele>1606.02</ele>
        <time>2015-09-09T10:35:22Z</time>
      </trkpt>
      <trkpt lat="42.24185" lon="8.97011">
        <ele>1605.54</ele>
        <time>2015-09-09T10:35:47Z</time>
      </trkpt>
      <trkpt lat="42.24181" lon="8.97019">
        <ele>1605.54</ele>
        <time>2015-09-09T10:36:07Z</time>
      </trkpt>
      <trkpt lat="42.2417" lon="8.97026">
        <ele>1604.58</ele>
        <time>2015-09-09T10:36:23Z</time>
      </trkpt>
      <trkpt lat="42.24159" lon="8.97033">
        <ele>1603.62</ele>
        <time>2015-09-09T10:36:37Z</time>
      </trkpt>
      <trkpt lat="42.24153" lon="8.97048">
        <ele>1603.14</ele>
        <time>2015-09-09T10:36:51Z</time>
      </trkpt>
      <trkpt lat="42.24147" lon="8.9706">
        <ele>1602.66</ele>
        <time>2015-09-09T10:37:06Z</time>
      </trkpt>
      <trkpt lat="42.24147" lon="8.97065">
        <ele>1602.17</ele>
        <time>2015-09-09T10:37:30Z</time>
      </trkpt>
      <trkpt lat="42.24136" lon="8.97072">
        <ele>1604.1</ele>
        <time>2015-09-09T10:37:47Z</time>
      </trkpt>
      <trkpt lat="42.24124" lon="8.97088">
        <ele>1604.1</ele>
        <time>2015-09-09T10:38:06Z</time>
      </trkpt>
      <trkpt lat="42.24117" lon="8.97098">
        <ele>1604.1</ele>
        <time>2015-09-09T10:38:21Z</time>
      </trkpt>
      <trkpt lat="42.24106" lon="8.97105">
        <ele>1602.66</ele>
        <time>2015-09-09T10:38:36Z</time>
      </trkpt>
      <trkpt lat="42.24097" lon="8.97118">
        <ele>1601.21</ele>
        <time>2015-09-09T10:38:52Z</time>
      </trkpt>
      <trkpt lat="42.24086" lon="8.97128">
        <ele>1600.73</ele>
        <time>2015-09-09T10:39:08Z</time>
      </trkpt>
      <trkpt lat="42.24076" lon="8.97138">
        <ele>1600.73</ele>
        <time>2015-09-09T10:39:25Z</time>
      </trkpt>
      <trkpt lat="42.24064" lon="8.97155">
        <ele>1599.29</ele>
        <time>2015-09-09T10:39:42Z</time>
      </trkpt>
      <trkpt lat="42.24054" lon="8.97161">
        <ele>1599.29</ele>
        <time>2015-09-09T10:39:57Z</time>
      </trkpt>
      <trkpt lat="42.24047" lon="8.9717">
        <ele>1599.29</ele>
        <time>2015-09-09T10:40:12Z</time>
      </trkpt>
      <trkpt lat="42.24041" lon="8.97179">
        <ele>1600.25</ele>
        <time>2015-09-09T10:40:23Z</time>
      </trkpt>
      <trkpt lat="42.24033" lon="8.97187">
        <ele>1601.21</ele>
        <time>2015-09-09T10:40:38Z</time>
      </trkpt>
      <trkpt lat="42.24023" lon="8.972">
        <ele>1602.17</ele>
        <time>2015-09-09T10:40:54Z</time>
      </trkpt>
      <trkpt lat="42.24014" lon="8.97209">
        <ele>1603.62</ele>
        <time>2015-09-09T10:41:11Z</time>
      </trkpt>
      <trkpt lat="42.24007" lon="8.97219">
        <ele>1603.62</ele>
        <time>2015-09-09T10:41:26Z</time>
      </trkpt>
      <trkpt lat="42.24006" lon="8.97221">
        <ele>1603.62</ele>
        <time>2015-09-09T10:41:28Z</time>
      </trkpt>
      <trkpt lat="42.24005" lon="8.97222">
        <ele>1603.62</ele>
        <time>2015-09-09T10:41:30Z</time>
      </trkpt>
      <trkpt lat="42.23998" lon="8.97234">
        <ele>1603.62</ele>
        <time>2015-09-09T10:41:45Z</time>
      </trkpt>
      <trkpt lat="42.23989" lon="8.97248">
        <ele>1603.62</ele>
        <time>2015-09-09T10:42:01Z</time>
      </trkpt>
      <trkpt lat="42.23979" lon="8.97259">
        <ele>1603.62</ele>
        <time>2015-09-09T10:42:16Z</time>
      </trkpt>
      <trkpt lat="42.23972" lon="8.9727">
        <ele>1603.62</ele>
        <time>2015-09-09T10:42:31Z</time>
      </trkpt>
      <trkpt lat="42.23971" lon="8.97277">
        <ele>1603.62</ele>
        <time>2015-09-09T10:42:47Z</time>
      </trkpt>
      <trkpt lat="42.23964" lon="8.97284">
        <ele>1602.66</ele>
        <time>2015-09-09T10:43:08Z</time>
      </trkpt>
      <trkpt lat="42.23949" lon="8.97297">
        <ele>1602.17</ele>
        <time>2015-09-09T10:43:26Z</time>
      </trkpt>
      <trkpt lat="42.23939" lon="8.97301">
        <ele>1601.69</ele>
        <time>2015-09-09T10:43:37Z</time>
      </trkpt>
      <trkpt lat="42.23929" lon="8.97311">
        <ele>1600.73</ele>
        <time>2015-09-09T10:43:50Z</time>
      </trkpt>
      <trkpt lat="42.23915" lon="8.97323">
        <ele>1600.25</ele>
        <time>2015-09-09T10:44:07Z</time>
      </trkpt>
      <trkpt lat="42.23909" lon="8.97328">
        <ele>1600.25</ele>
        <time>2015-09-09T10:44:16Z</time>
      </trkpt>
      <trkpt lat="42.23896" lon="8.97341">
        <ele>1601.21</ele>
        <time>2015-09-09T10:44:33Z</time>
      </trkpt>
      <trkpt lat="42.23885" lon="8.97355">
        <ele>1601.21</ele>
        <time>2015-09-09T10:44:49Z</time>
      </trkpt>
      <trkpt lat="42.2388" lon="8.97358">
        <ele>1601.21</ele>
        <time>2015-09-09T10:44:54Z</time>
      </trkpt>
      <trkpt lat="42.23868" lon="8.97362">
        <ele>1601.21</ele>
        <time>2015-09-09T10:45:05Z</time>
      </trkpt>
      <trkpt lat="42.23864" lon="8.97366">
        <ele>1601.21</ele>
        <time>2015-09-09T10:45:10Z</time>
      </trkpt>
      <trkpt lat="42.23854" lon="8.97373">
        <ele>1601.21</ele>
        <time>2015-09-09T10:45:22Z</time>
      </trkpt>
      <trkpt lat="42.23851" lon="8.97373">
        <ele>1601.21</ele>
        <time>2015-09-09T10:45:25Z</time>
      </trkpt>
      <trkpt lat="42.23844" lon="8.97378">
        <ele>1601.21</ele>
        <time>2015-09-09T10:45:33Z</time>
      </trkpt>
      <trkpt lat="42.23836" lon="8.97384">
        <ele>1601.21</ele>
        <time>2015-09-09T10:45:42Z</time>
      </trkpt>
      <trkpt lat="42.23833" lon="8.97387">
        <ele>1601.21</ele>
        <time>2015-09-09T10:45:47Z</time>
      </trkpt>
      <trkpt lat="42.2382" lon="8.97397">
        <ele>1601.69</ele>
        <time>2015-09-09T10:46:04Z</time>
      </trkpt>
      <trkpt lat="42.23815" lon="8.97403">
        <ele>1602.17</ele>
        <time>2015-09-09T10:46:12Z</time>
      </trkpt>
      <trkpt lat="42.23814" lon="8.97405">
        <ele>1602.17</ele>
        <time>2015-09-09T10:46:14Z</time>
      </trkpt>
      <trkpt lat="42.238" lon="8.97416">
        <ele>1602.17</ele>
        <time>2015-09-09T10:46:30Z</time>
      </trkpt>
      <trkpt lat="42.23796" lon="8.97417">
        <ele>1602.17</ele>
        <time>2015-09-09T10:46:34Z</time>
      </trkpt>
      <trkpt lat="42.2379" lon="8.97421">
        <ele>1602.17</ele>
        <time>2015-09-09T10:46:43Z</time>
      </trkpt>
      <trkpt lat="42.23786" lon="8.97422">
        <ele>1602.66</ele>
        <time>2015-09-09T10:46:46Z</time>
      </trkpt>
      <trkpt lat="42.23769" lon="8.97434">
        <ele>1602.66</ele>
        <time>2015-09-09T10:47:05Z</time>
      </trkpt>
      <trkpt lat="42.23754" lon="8.97449">
        <ele>1602.66</ele>
        <time>2015-09-09T10:47:25Z</time>
      </trkpt>
      <trkpt lat="42.23747" lon="8.97455">
        <ele>1603.62</ele>
        <time>2015-09-09T10:47:39Z</time>
      </trkpt>
      <trkpt lat="42.23737" lon="8.97464">
        <ele>1604.58</ele>
        <time>2015-09-09T10:47:56Z</time>
      </trkpt>
      <trkpt lat="42.23726" lon="8.97465">
        <ele>1605.54</ele>
        <time>2015-09-09T10:48:10Z</time>
      </trkpt>
      <trkpt lat="42.23724" lon="8.97459">
        <ele>1606.02</ele>
        <time>2015-09-09T10:48:18Z</time>
      </trkpt>
      <trkpt lat="42.23718" lon="8.97449">
        <ele>1604.58</ele>
        <time>2015-09-09T10:48:30Z</time>
      </trkpt>
      <trkpt lat="42.23715" lon="8.97441">
        <ele>1604.58</ele>
        <time>2015-09-09T10:48:44Z</time>
      </trkpt>
      <trkpt lat="42.23712" lon="8.97438">
        <ele>1604.1</ele>
        <time>2015-09-09T10:49:09Z</time>
      </trkpt>
      <trkpt lat="42.23706" lon="8.97434">
        <ele>1602.17</ele>
        <time>2015-09-09T10:49:26Z</time>
      </trkpt>
      <trkpt lat="42.23701" lon="8.97429">
        <ele>1600.73</ele>
        <time>2015-09-09T10:49:41Z</time>
      </trkpt>
      <trkpt lat="42.23691" lon="8.97429">
        <ele>1598.33</ele>
        <time>2015-09-09T10:49:59Z</time>
      </trkpt>
      <trkpt lat="42.23684" lon="8.9743">
        <ele>1597.37</ele>
        <time>2015-09-09T10:50:15Z</time>
      </trkpt>
      <trkpt lat="42.23681" lon="8.97431">
        <ele>1596.89</ele>
        <time>2015-09-09T10:50:30Z</time>
      </trkpt>
      <trkpt lat="42.23678" lon="8.97428">
        <ele>1596.89</ele>
        <time>2015-09-09T10:50:49Z</time>
      </trkpt>
      <trkpt lat="42.23677" lon="8.97426">
        <ele>1596.89</ele>
        <time>2015-09-09T10:51:11Z</time>
      </trkpt>
      <trkpt lat="42.23677" lon="8.97426">
        <ele>1596.89</ele>
        <time>2015-09-09T10:51:31Z</time>
      </trkpt>
      <trkpt lat="42.23675" lon="8.97427">
        <ele>1597.37</ele>
        <time>2015-09-09T10:51:47Z</time>
      </trkpt>
      <trkpt lat="42.23672" lon="8.97426">
        <ele>1597.37</ele>
        <time>2015-09-09T10:52:18Z</time>
      </trkpt>
      <trkpt lat="42.23674" lon="8.97427">
        <ele>1596.89</ele>
        <time>2015-09-09T10:52:45Z</time>
      </trkpt>
      <trkpt lat="42.23674" lon="8.97427">
        <ele>1596.89</ele>
        <time>2015-09-09T10:53:11Z</time>
      </trkpt>
      <trkpt lat="42.23674" lon="8.97425">
        <ele>1597.85</ele>
        <time>2015-09-09T10:53:41Z</time>
      </trkpt>
      <trkpt lat="42.23678" lon="8.97425">
        <ele>1597.85</ele>
        <time>2015-09-09T10:54:04Z</time>
      </trkpt>
      <trkpt lat="42.23675" lon="8.97422">
        <ele>1597.85</ele>
        <time>2015-09-09T10:54:22Z</time>
      </trkpt>
      <trkpt lat="42.23674" lon="8.97423">
        <ele>1597.85</ele>
        <time>2015-09-09T10:54:40Z</time>
      </trkpt>
      <trkpt lat="42.23672" lon="8.97421">
        <ele>1597.85</ele>
        <time>2015-09-09T10:55:19Z</time>
      </trkpt>
      <trkpt lat="42.23672" lon="8.9742">
        <ele>1597.85</ele>
        <time>2015-09-09T10:56:13Z</time>
      </trkpt>
      <trkpt lat="42.2368" lon="8.97425">
        <ele>1597.85</ele>
        <time>2015-09-09T10:56:50Z</time>
      </trkpt>
      <trkpt lat="42.23674" lon="8.97423">
        <ele>1597.85</ele>
        <time>2015-09-09T10:57:28Z</time>
      </trkpt>
      <trkpt lat="42.23675" lon="8.97424">
        <ele>1597.85</ele>
        <time>2015-09-09T10:58:00Z</time>
      </trkpt>
      <trkpt lat="42.23675" lon="8.97424">
        <ele>1597.85</ele>
        <time>2015-09-09T10:58:32Z</time>
      </trkpt>
      <trkpt lat="42.23677" lon="8.97425">
        <ele>1597.85</ele>
        <time>2015-09-09T10:58:58Z</time>
      </trkpt>
      <trkpt lat="42.23677" lon="8.97427">
        <ele>1597.85</ele>
        <time>2015-09-09T10:59:29Z</time>
      </trkpt>
      <trkpt lat="42.23676" lon="8.97426">
        <ele>1597.85</ele>
        <time>2015-09-09T11:00:03Z</time>
      </trkpt>
      <trkpt lat="42.23672" lon="8.97423">
        <ele>1596.89</ele>
        <time>2015-09-09T11:00:34Z</time>
      </trkpt>
      <trkpt lat="42.23673" lon="8.97424">
        <ele>1596.89</ele>
        <time>2015-09-09T11:01:14Z</time>
      </trkpt>
      <trkpt lat="42.23674" lon="8.97422">
        <ele>1596.89</ele>
        <time>2015-09-09T11:01:49Z</time>
      </trkpt>
      <trkpt lat="42.23674" lon="8.97422">
        <ele>1596.41</ele>
        <time>2015-09-09T11:02:21Z</time>
      </trkpt>
      <trkpt lat="42.23673" lon="8.97422">
        <ele>1596.41</ele>
        <time>2015-09-09T11:03:11Z</time>
      </trkpt>
      <trkpt lat="42.23673" lon="8.97424">
        <ele>1596.41</ele>
        <time>2015-09-09T11:03:50Z</time>
      </trkpt>
      <trkpt lat="42.23674" lon="8.97421">
        <ele>1596.41</ele>
        <time>2015-09-09T11:04:34Z</time>
      </trkpt>
      <trkpt lat="42.23674" lon="8.97423">
        <ele>1596.41</ele>
        <time>2015-09-09T11:05:13Z</time>
      </trkpt>
      <trkpt lat="42.23674" lon="8.97423">
        <ele>1597.37</ele>
        <time>2015-09-09T11:05:57Z</time>
      </trkpt>
      <trkpt lat="42.23675" lon="8.97422">
        <ele>1597.37</ele>
        <time>2015-09-09T11:06:26Z</time>
      </trkpt>
      <trkpt lat="42.23678" lon="8.97421">
        <ele>1597.37</ele>
        <time>2015-09-09T11:06:49Z</time>
      </trkpt>
      <trkpt lat="42.23679" lon="8.97422">
        <ele>1597.85</ele>
        <time>2015-09-09T11:07:05Z</time>
      </trkpt>
      <trkpt lat="42.2368" lon="8.97421">
        <ele>1597.85</ele>
        <time>2015-09-09T11:07:28Z</time>
      </trkpt>
      <trkpt lat="42.23682" lon="8.9742">
        <ele>1597.85</ele>
        <time>2015-09-09T11:07:53Z</time>
      </trkpt>
      <trkpt lat="42.2368" lon="8.97421">
        <ele>1597.85</ele>
        <time>2015-09-09T11:08:25Z</time>
      </trkpt>
      <trkpt lat="42.23678" lon="8.9742">
        <ele>1597.85</ele>
        <time>2015-09-09T11:08:58Z</time>
      </trkpt>
      <trkpt lat="42.23679" lon="8.9742">
        <ele>1597.85</ele>
        <time>2015-09-09T11:09:30Z</time>
      </trkpt>
      <trkpt lat="42.23681" lon="8.97419">
        <ele>1597.37</ele>
        <time>2015-09-09T11:10:08Z</time>
      </trkpt>
      <trkpt lat="42.2368" lon="8.97421">
        <ele>1597.37</ele>
        <time>2015-09-09T11:10:38Z</time>
      </trkpt>
      <trkpt lat="42.23679" lon="8.97422">
        <ele>1597.37</ele>
        <time>2015-09-09T11:11:14Z</time>
      </trkpt>
      <trkpt lat="42.23678" lon="8.97424">
        <ele>1597.37</ele>
        <time>2015-09-09T11:11:41Z</time>
      </trkpt>
      <trkpt lat="42.23677" lon="8.97425">
        <ele>1596.89</ele>
        <time>2015-09-09T11:11:57Z</time>
      </trkpt>
      <trkpt lat="42.23674" lon="8.97427">
        <ele>1598.33</ele>
        <time>2015-09-09T11:12:15Z</time>
      </trkpt>
      <trkpt lat="42.23675" lon="8.97427">
        <ele>1596.89</ele>
        <time>2015-09-09T11:12:17Z</time>
      </trkpt>
      <trkpt lat="42.23676" lon="8.97427">
        <ele>1596.89</ele>
        <time>2015-09-09T11:12:40Z</time>
      </trkpt>
      <trkpt lat="42.23677" lon="8.97426">
        <ele>1596.89</ele>
        <time>2015-09-09T11:13:01Z</time>
      </trkpt>
      <trkpt lat="42.23677" lon="8.9743">
        <ele>1596.41</ele>
        <time>2015-09-09T11:13:09Z</time>
      </trkpt>
      <trkpt lat="42.23671" lon="8.97436">
        <ele>1594.96</ele>
        <time>2015-09-09T11:13:20Z</time>
      </trkpt>
      <trkpt lat="42.23664" lon="8.97437">
        <ele>1593.52</ele>
        <time>2015-09-09T11:13:27Z</time>
      </trkpt>
      <trkpt lat="42.23651" lon="8.97439">
        <ele>1589.68</ele>
        <time>2015-09-09T11:13:45Z</time>
      </trkpt>
      <trkpt lat="42.23646" lon="8.97441">
        <ele>1586.79</ele>
        <time>2015-09-09T11:13:53Z</time>
      </trkpt>
      <trkpt lat="42.23635" lon="8.97459">
        <ele>1584.87</ele>
        <time>2015-09-09T11:14:10Z</time>
      </trkpt>
      <trkpt lat="42.2363" lon="8.97464">
        <ele>1583.91</ele>
        <time>2015-09-09T11:14:15Z</time>
      </trkpt>
      <trkpt lat="42.23627" lon="8.97464">
        <ele>1582.47</ele>
        <time>2015-09-09T11:14:18Z</time>
      </trkpt>
      <trkpt lat="42.23623" lon="8.97465">
        <ele>1581.51</ele>
        <time>2015-09-09T11:14:23Z</time>
      </trkpt>
      <trkpt lat="42.23613" lon="8.97478">
        <ele>1577.66</ele>
        <time>2015-09-09T11:14:36Z</time>
      </trkpt>
      <trkpt lat="42.23606" lon="8.97478">
        <ele>1576.22</ele>
        <time>2015-09-09T11:14:46Z</time>
      </trkpt>
      <trkpt lat="42.23594" lon="8.97476">
        <ele>1574.3</ele>
        <time>2015-09-09T11:15:03Z</time>
      </trkpt>
      <trkpt lat="42.23587" lon="8.97479">
        <ele>1572.37</ele>
        <time>2015-09-09T11:15:16Z</time>
      </trkpt>
      <trkpt lat="42.23578" lon="8.97478">
        <ele>1569.97</ele>
        <time>2015-09-09T11:15:31Z</time>
      </trkpt>
      <trkpt lat="42.23568" lon="8.97482">
        <ele>1568.05</ele>
        <time>2015-09-09T11:15:46Z</time>
      </trkpt>
      <trkpt lat="42.23558" lon="8.97486">
        <ele>1566.12</ele>
        <time>2015-09-09T11:16:00Z</time>
      </trkpt>
      <trkpt lat="42.23553" lon="8.97486">
        <ele>1565.64</ele>
        <time>2015-09-09T11:16:08Z</time>
      </trkpt>
      <trkpt lat="42.23542" lon="8.97496">
        <ele>1563.72</ele>
        <time>2015-09-09T11:16:24Z</time>
      </trkpt>
      <trkpt lat="42.23531" lon="8.97501">
        <ele>1560.84</ele>
        <time>2015-09-09T11:16:41Z</time>
      </trkpt>
      <trkpt lat="42.23529" lon="8.97502">
        <ele>1559.88</ele>
        <time>2015-09-09T11:16:43Z</time>
      </trkpt>
      <trkpt lat="42.23515" lon="8.97512">
        <ele>1556.03</ele>
        <time>2015-09-09T11:17:02Z</time>
      </trkpt>
      <trkpt lat="42.23502" lon="8.97529">
        <ele>1553.63</ele>
        <time>2015-09-09T11:17:21Z</time>
      </trkpt>
      <trkpt lat="42.23501" lon="8.97532">
        <ele>1553.63</ele>
        <time>2015-09-09T11:17:24Z</time>
      </trkpt>
      <trkpt lat="42.23481" lon="8.97542">
        <ele>1550.74</ele>
        <time>2015-09-09T11:17:43Z</time>
      </trkpt>
      <trkpt lat="42.23459" lon="8.97551">
        <ele>1549.3</ele>
        <time>2015-09-09T11:18:01Z</time>
      </trkpt>
      <trkpt lat="42.23454" lon="8.9755">
        <ele>1549.3</ele>
        <time>2015-09-09T11:18:05Z</time>
      </trkpt>
      <trkpt lat="42.23448" lon="8.97552">
        <ele>1549.3</ele>
        <time>2015-09-09T11:18:10Z</time>
      </trkpt>
      <trkpt lat="42.23446" lon="8.97555">
        <ele>1548.82</ele>
        <time>2015-09-09T11:18:13Z</time>
      </trkpt>
      <trkpt lat="42.23428" lon="8.97569">
        <ele>1546.9</ele>
        <time>2015-09-09T11:18:32Z</time>
      </trkpt>
      <trkpt lat="42.23418" lon="8.97578">
        <ele>1545.94</ele>
        <time>2015-09-09T11:18:46Z</time>
      </trkpt>
      <trkpt lat="42.23417" lon="8.97579">
        <ele>1545.94</ele>
        <time>2015-09-09T11:18:47Z</time>
      </trkpt>
      <trkpt lat="42.23407" lon="8.9758">
        <ele>1547.38</ele>
        <time>2015-09-09T11:18:56Z</time>
      </trkpt>
      <trkpt lat="42.23397" lon="8.97583">
        <ele>1547.38</ele>
        <time>2015-09-09T11:19:06Z</time>
      </trkpt>
      <trkpt lat="42.2339" lon="8.97588">
        <ele>1546.9</ele>
        <time>2015-09-09T11:19:12Z</time>
      </trkpt>
      <trkpt lat="42.23384" lon="8.97591">
        <ele>1547.38</ele>
        <time>2015-09-09T11:19:19Z</time>
      </trkpt>
      <trkpt lat="42.23366" lon="8.97601">
        <ele>1545.94</ele>
        <time>2015-09-09T11:19:37Z</time>
      </trkpt>
      <trkpt lat="42.23353" lon="8.97611">
        <ele>1545.94</ele>
        <time>2015-09-09T11:19:50Z</time>
      </trkpt>
      <trkpt lat="42.23333" lon="8.97616">
        <ele>1545.94</ele>
        <time>2015-09-09T11:20:08Z</time>
      </trkpt>
      <trkpt lat="42.23313" lon="8.97622">
        <ele>1545.94</ele>
        <time>2015-09-09T11:20:26Z</time>
      </trkpt>
      <trkpt lat="42.23303" lon="8.97623">
        <ele>1545.94</ele>
        <time>2015-09-09T11:20:34Z</time>
      </trkpt>
      <trkpt lat="42.23283" lon="8.9763">
        <ele>1545.46</ele>
        <time>2015-09-09T11:20:52Z</time>
      </trkpt>
      <trkpt lat="42.23273" lon="8.97631">
        <ele>1545.46</ele>
        <time>2015-09-09T11:21:00Z</time>
      </trkpt>
      <trkpt lat="42.23258" lon="8.97637">
        <ele>1545.46</ele>
        <time>2015-09-09T11:21:13Z</time>
      </trkpt>
      <trkpt lat="42.23253" lon="8.97639">
        <ele>1545.46</ele>
        <time>2015-09-09T11:21:19Z</time>
      </trkpt>
      <trkpt lat="42.23233" lon="8.97646">
        <ele>1545.46</ele>
        <time>2015-09-09T11:21:37Z</time>
      </trkpt>
      <trkpt lat="42.23221" lon="8.97653">
        <ele>1545.46</ele>
        <time>2015-09-09T11:21:49Z</time>
      </trkpt>
      <trkpt lat="42.23205" lon="8.97664">
        <ele>1545.46</ele>
        <time>2015-09-09T11:22:05Z</time>
      </trkpt>
      <trkpt lat="42.23188" lon="8.97679">
        <ele>1545.46</ele>
        <time>2015-09-09T11:22:23Z</time>
      </trkpt>
      <trkpt lat="42.2317" lon="8.97693">
        <ele>1545.46</ele>
        <time>2015-09-09T11:22:40Z</time>
      </trkpt>
      <trkpt lat="42.2316" lon="8.97702">
        <ele>1545.46</ele>
        <time>2015-09-09T11:22:54Z</time>
      </trkpt>
      <trkpt lat="42.23157" lon="8.97708">
        <ele>1545.46</ele>
        <time>2015-09-09T11:22:59Z</time>
      </trkpt>
      <trkpt lat="42.23155" lon="8.9771">
        <ele>1545.46</ele>
        <time>2015-09-09T11:23:02Z</time>
      </trkpt>
      <trkpt lat="42.23152" lon="8.97714">
        <ele>1545.46</ele>
        <time>2015-09-09T11:23:06Z</time>
      </trkpt>
      <trkpt lat="42.23142" lon="8.97719">
        <ele>1545.46</ele>
        <time>2015-09-09T11:23:16Z</time>
      </trkpt>
      <trkpt lat="42.23138" lon="8.97719">
        <ele>1546.42</ele>
        <time>2015-09-09T11:23:20Z</time>
      </trkpt>
      <trkpt lat="42.23119" lon="8.97724">
        <ele>1547.38</ele>
        <time>2015-09-09T11:23:37Z</time>
      </trkpt>
      <trkpt lat="42.23101" lon="8.97732">
        <ele>1547.86</ele>
        <time>2015-09-09T11:23:54Z</time>
      </trkpt>
      <trkpt lat="42.23083" lon="8.97741">
        <ele>1548.82</ele>
        <time>2015-09-09T11:24:13Z</time>
      </trkpt>
      <trkpt lat="42.23078" lon="8.97745">
        <ele>1548.82</ele>
        <time>2015-09-09T11:24:18Z</time>
      </trkpt>
      <trkpt lat="42.23075" lon="8.97747">
        <ele>1548.82</ele>
        <time>2015-09-09T11:24:22Z</time>
      </trkpt>
      <trkpt lat="42.23055" lon="8.97758">
        <ele>1548.82</ele>
        <time>2015-09-09T11:24:41Z</time>
      </trkpt>
      <trkpt lat="42.23052" lon="8.97759">
        <ele>1548.82</ele>
        <time>2015-09-09T11:24:44Z</time>
      </trkpt>
      <trkpt lat="42.2305" lon="8.97761">
        <ele>1548.82</ele>
        <time>2015-09-09T11:24:46Z</time>
      </trkpt>
      <trkpt lat="42.23045" lon="8.97762">
        <ele>1548.82</ele>
        <time>2015-09-09T11:24:51Z</time>
      </trkpt>
      <trkpt lat="42.23041" lon="8.97766">
        <ele>1549.3</ele>
        <time>2015-09-09T11:24:55Z</time>
      </trkpt>
      <trkpt lat="42.23034" lon="8.97771">
        <ele>1549.3</ele>
        <time>2015-09-09T11:25:01Z</time>
      </trkpt>
      <trkpt lat="42.23013" lon="8.97775">
        <ele>1549.3</ele>
        <time>2015-09-09T11:25:19Z</time>
      </trkpt>
      <trkpt lat="42.22988" lon="8.97771">
        <ele>1549.3</ele>
        <time>2015-09-09T11:25:40Z</time>
      </trkpt>
      <trkpt lat="42.22968" lon="8.97771">
        <ele>1548.34</ele>
        <time>2015-09-09T11:25:58Z</time>
      </trkpt>
      <trkpt lat="42.2295" lon="8.97769">
        <ele>1548.34</ele>
        <time>2015-09-09T11:26:13Z</time>
      </trkpt>
      <trkpt lat="42.22928" lon="8.97771">
        <ele>1548.34</ele>
        <time>2015-09-09T11:26:31Z</time>
      </trkpt>
      <trkpt lat="42.22915" lon="8.97774">
        <ele>1548.34</ele>
        <time>2015-09-09T11:26:43Z</time>
      </trkpt>
      <trkpt lat="42.22905" lon="8.97775">
        <ele>1549.3</ele>
        <time>2015-09-09T11:26:51Z</time>
      </trkpt>
      <trkpt lat="42.22885" lon="8.97776">
        <ele>1549.3</ele>
        <time>2015-09-09T11:27:09Z</time>
      </trkpt>
      <trkpt lat="42.22863" lon="8.97782">
        <ele>1549.3</ele>
        <time>2015-09-09T11:27:29Z</time>
      </trkpt>
      <trkpt lat="42.22845" lon="8.97786">
        <ele>1549.3</ele>
        <time>2015-09-09T11:27:45Z</time>
      </trkpt>
      <trkpt lat="42.22834" lon="8.97785">
        <ele>1549.3</ele>
        <time>2015-09-09T11:27:54Z</time>
      </trkpt>
      <trkpt lat="42.22827" lon="8.97785">
        <ele>1549.78</ele>
        <time>2015-09-09T11:28:00Z</time>
      </trkpt>
      <trkpt lat="42.22808" lon="8.97782">
        <ele>1549.78</ele>
        <time>2015-09-09T11:28:17Z</time>
      </trkpt>
      <trkpt lat="42.228" lon="8.97781">
        <ele>1549.78</ele>
        <time>2015-09-09T11:28:24Z</time>
      </trkpt>
      <trkpt lat="42.22796" lon="8.97781">
        <ele>1549.78</ele>
        <time>2015-09-09T11:28:28Z</time>
      </trkpt>
      <trkpt lat="42.2279" lon="8.97781">
        <ele>1550.26</ele>
        <time>2015-09-09T11:28:34Z</time>
      </trkpt>
      <trkpt lat="42.22775" lon="8.97777">
        <ele>1551.22</ele>
        <time>2015-09-09T11:28:52Z</time>
      </trkpt>
      <trkpt lat="42.22766" lon="8.97788">
        <ele>1552.67</ele>
        <time>2015-09-09T11:29:08Z</time>
      </trkpt>
      <trkpt lat="42.22755" lon="8.9779">
        <ele>1554.11</ele>
        <time>2015-09-09T11:29:25Z</time>
      </trkpt>
      <trkpt lat="42.22745" lon="8.97793">
        <ele>1554.59</ele>
        <time>2015-09-09T11:29:37Z</time>
      </trkpt>
      <trkpt lat="42.22733" lon="8.97799">
        <ele>1555.55</ele>
        <time>2015-09-09T11:29:52Z</time>
      </trkpt>
      <trkpt lat="42.22722" lon="8.97802">
        <ele>1557.47</ele>
        <time>2015-09-09T11:30:07Z</time>
      </trkpt>
      <trkpt lat="42.22714" lon="8.97804">
        <ele>1558.92</ele>
        <time>2015-09-09T11:30:21Z</time>
      </trkpt>
      <trkpt lat="42.22708" lon="8.97814">
        <ele>1560.84</ele>
        <time>2015-09-09T11:30:37Z</time>
      </trkpt>
      <trkpt lat="42.22703" lon="8.97822">
        <ele>1563.24</ele>
        <time>2015-09-09T11:30:53Z</time>
      </trkpt>
      <trkpt lat="42.22697" lon="8.97826">
        <ele>1564.2</ele>
        <time>2015-09-09T11:31:09Z</time>
      </trkpt>
      <trkpt lat="42.22692" lon="8.97829">
        <ele>1565.64</ele>
        <time>2015-09-09T11:31:25Z</time>
      </trkpt>
      <trkpt lat="42.22683" lon="8.97831">
        <ele>1568.53</ele>
        <time>2015-09-09T11:31:43Z</time>
      </trkpt>
      <trkpt lat="42.22676" lon="8.97838">
        <ele>1570.45</ele>
        <time>2015-09-09T11:32:00Z</time>
      </trkpt>
      <trkpt lat="42.22669" lon="8.97847">
        <ele>1570.93</ele>
        <time>2015-09-09T11:32:16Z</time>
      </trkpt>
      <trkpt lat="42.22658" lon="8.97851">
        <ele>1572.37</ele>
        <time>2015-09-09T11:32:32Z</time>
      </trkpt>
      <trkpt lat="42.22645" lon="8.9785">
        <ele>1572.37</ele>
        <time>2015-09-09T11:32:48Z</time>
      </trkpt>
      <trkpt lat="42.22634" lon="8.97852">
        <ele>1572.37</ele>
        <time>2015-09-09T11:33:02Z</time>
      </trkpt>
      <trkpt lat="42.22621" lon="8.97856">
        <ele>1573.33</ele>
        <time>2015-09-09T11:33:17Z</time>
      </trkpt>
      <trkpt lat="42.22609" lon="8.97859">
        <ele>1575.26</ele>
        <time>2015-09-09T11:33:33Z</time>
      </trkpt>
      <trkpt lat="42.22603" lon="8.9787">
        <ele>1576.22</ele>
        <time>2015-09-09T11:33:48Z</time>
      </trkpt>
      <trkpt lat="42.22598" lon="8.97879">
        <ele>1577.66</ele>
        <time>2015-09-09T11:34:02Z</time>
      </trkpt>
      <trkpt lat="42.22587" lon="8.97885">
        <ele>1578.14</ele>
        <time>2015-09-09T11:34:17Z</time>
      </trkpt>
      <trkpt lat="42.22577" lon="8.97891">
        <ele>1579.58</ele>
        <time>2015-09-09T11:34:34Z</time>
      </trkpt>
      <trkpt lat="42.22568" lon="8.97896">
        <ele>1580.06</ele>
        <time>2015-09-09T11:34:46Z</time>
      </trkpt>
      <trkpt lat="42.22559" lon="8.97911">
        <ele>1580.06</ele>
        <time>2015-09-09T11:35:03Z</time>
      </trkpt>
      <trkpt lat="42.22554" lon="8.97919">
        <ele>1580.54</ele>
        <time>2015-09-09T11:35:14Z</time>
      </trkpt>
      <trkpt lat="42.22543" lon="8.97915">
        <ele>1581.03</ele>
        <time>2015-09-09T11:35:30Z</time>
      </trkpt>
      <trkpt lat="42.2253" lon="8.97913">
        <ele>1581.03</ele>
        <time>2015-09-09T11:35:45Z</time>
      </trkpt>
      <trkpt lat="42.22519" lon="8.97917">
        <ele>1581.03</ele>
        <time>2015-09-09T11:36:00Z</time>
      </trkpt>
      <trkpt lat="42.2251" lon="8.97921">
        <ele>1581.99</ele>
        <time>2015-09-09T11:36:12Z</time>
      </trkpt>
      <trkpt lat="42.22499" lon="8.97924">
        <ele>1582.47</ele>
        <time>2015-09-09T11:36:26Z</time>
      </trkpt>
      <trkpt lat="42.22499" lon="8.97924">
        <ele>1582.95</ele>
        <time>2015-09-09T11:36:27Z</time>
      </trkpt>
      <trkpt lat="42.22487" lon="8.97934">
        <ele>1583.43</ele>
        <time>2015-09-09T11:36:44Z</time>
      </trkpt>
      <trkpt lat="42.22476" lon="8.9794">
        <ele>1583.91</ele>
        <time>2015-09-09T11:36:59Z</time>
      </trkpt>
      <trkpt lat="42.22465" lon="8.97946">
        <ele>1584.39</ele>
        <time>2015-09-09T11:37:16Z</time>
      </trkpt>
      <trkpt lat="42.22455" lon="8.97947">
        <ele>1585.35</ele>
        <time>2015-09-09T11:37:31Z</time>
      </trkpt>
      <trkpt lat="42.22452" lon="8.9795">
        <ele>1585.35</ele>
        <time>2015-09-09T11:37:35Z</time>
      </trkpt>
      <trkpt lat="42.22442" lon="8.97952">
        <ele>1586.31</ele>
        <time>2015-09-09T11:37:50Z</time>
      </trkpt>
      <trkpt lat="42.22434" lon="8.97952">
        <ele>1586.31</ele>
        <time>2015-09-09T11:38:04Z</time>
      </trkpt>
      <trkpt lat="42.22424" lon="8.9796">
        <ele>1586.31</ele>
        <time>2015-09-09T11:38:20Z</time>
      </trkpt>
      <trkpt lat="42.22418" lon="8.97965">
        <ele>1586.79</ele>
        <time>2015-09-09T11:38:34Z</time>
      </trkpt>
      <trkpt lat="42.2241" lon="8.97976">
        <ele>1586.79</ele>
        <time>2015-09-09T11:38:48Z</time>
      </trkpt>
      <trkpt lat="42.22406" lon="8.97984">
        <ele>1587.27</ele>
        <time>2015-09-09T11:39:00Z</time>
      </trkpt>
      <trkpt lat="42.22401" lon="8.97981">
        <ele>1588.24</ele>
        <time>2015-09-09T11:39:13Z</time>
      </trkpt>
      <trkpt lat="42.22394" lon="8.97976">
        <ele>1586.79</ele>
        <time>2015-09-09T11:39:28Z</time>
      </trkpt>
      <trkpt lat="42.22384" lon="8.97971">
        <ele>1585.35</ele>
        <time>2015-09-09T11:39:43Z</time>
      </trkpt>
      <trkpt lat="42.22375" lon="8.97968">
        <ele>1583.91</ele>
        <time>2015-09-09T11:39:56Z</time>
      </trkpt>
      <trkpt lat="42.22363" lon="8.97966">
        <ele>1583.43</ele>
        <time>2015-09-09T11:40:12Z</time>
      </trkpt>
      <trkpt lat="42.22354" lon="8.97967">
        <ele>1582.95</ele>
        <time>2015-09-09T11:40:26Z</time>
      </trkpt>
      <trkpt lat="42.22342" lon="8.97963">
        <ele>1582.95</ele>
        <time>2015-09-09T11:40:44Z</time>
      </trkpt>
      <trkpt lat="42.22342" lon="8.97963">
        <ele>1582.95</ele>
        <time>2015-09-09T11:40:45Z</time>
      </trkpt>
      <trkpt lat="42.22329" lon="8.97965">
        <ele>1583.91</ele>
        <time>2015-09-09T11:41:04Z</time>
      </trkpt>
      <trkpt lat="42.2232" lon="8.97966">
        <ele>1584.87</ele>
        <time>2015-09-09T11:41:16Z</time>
      </trkpt>
      <trkpt lat="42.22317" lon="8.97967">
        <ele>1584.87</ele>
        <time>2015-09-09T11:41:19Z</time>
      </trkpt>
      <trkpt lat="42.22308" lon="8.97964">
        <ele>1583.43</ele>
        <time>2015-09-09T11:41:31Z</time>
      </trkpt>
      <trkpt lat="42.223" lon="8.97964">
        <ele>1581.51</ele>
        <time>2015-09-09T11:41:48Z</time>
      </trkpt>
      <trkpt lat="42.22299" lon="8.97964">
        <ele>1581.03</ele>
        <time>2015-09-09T11:41:50Z</time>
      </trkpt>
      <trkpt lat="42.2229" lon="8.9796">
        <ele>1579.1</ele>
        <time>2015-09-09T11:42:06Z</time>
      </trkpt>
      <trkpt lat="42.22279" lon="8.97961">
        <ele>1578.62</ele>
        <time>2015-09-09T11:42:21Z</time>
      </trkpt>
      <trkpt lat="42.22278" lon="8.97961">
        <ele>1578.62</ele>
        <time>2015-09-09T11:42:25Z</time>
      </trkpt>
      <trkpt lat="42.22269" lon="8.97965">
        <ele>1580.06</ele>
        <time>2015-09-09T11:42:40Z</time>
      </trkpt>
      <trkpt lat="42.22263" lon="8.97968">
        <ele>1581.03</ele>
        <time>2015-09-09T11:42:52Z</time>
      </trkpt>
      <trkpt lat="42.22254" lon="8.97969">
        <ele>1581.03</ele>
        <time>2015-09-09T11:43:05Z</time>
      </trkpt>
      <trkpt lat="42.22244" lon="8.97971">
        <ele>1581.03</ele>
        <time>2015-09-09T11:43:20Z</time>
      </trkpt>
      <trkpt lat="42.2224" lon="8.97971">
        <ele>1579.58</ele>
        <time>2015-09-09T11:43:26Z</time>
      </trkpt>
      <trkpt lat="42.22235" lon="8.97971">
        <ele>1579.58</ele>
        <time>2015-09-09T11:43:45Z</time>
      </trkpt>
      <trkpt lat="42.22228" lon="8.97973">
        <ele>1579.58</ele>
        <time>2015-09-09T11:43:57Z</time>
      </trkpt>
      <trkpt lat="42.22226" lon="8.97975">
        <ele>1581.03</ele>
        <time>2015-09-09T11:44:04Z</time>
      </trkpt>
      <trkpt lat="42.22217" lon="8.97977">
        <ele>1581.03</ele>
        <time>2015-09-09T11:44:20Z</time>
      </trkpt>
      <trkpt lat="42.22214" lon="8.97976">
        <ele>1581.03</ele>
        <time>2015-09-09T11:44:26Z</time>
      </trkpt>
      <trkpt lat="42.22209" lon="8.97979">
        <ele>1581.03</ele>
        <time>2015-09-09T11:44:39Z</time>
      </trkpt>
      <trkpt lat="42.22197" lon="8.97983">
        <ele>1582.47</ele>
        <time>2015-09-09T11:44:55Z</time>
      </trkpt>
      <trkpt lat="42.22184" lon="8.97987">
        <ele>1583.43</ele>
        <time>2015-09-09T11:45:12Z</time>
      </trkpt>
      <trkpt lat="42.22177" lon="8.97991">
        <ele>1583.91</ele>
        <time>2015-09-09T11:45:26Z</time>
      </trkpt>
      <trkpt lat="42.22165" lon="8.97994">
        <ele>1584.87</ele>
        <time>2015-09-09T11:45:42Z</time>
      </trkpt>
      <trkpt lat="42.22158" lon="8.97994">
        <ele>1583.91</ele>
        <time>2015-09-09T11:45:54Z</time>
      </trkpt>
      <trkpt lat="42.22154" lon="8.97996">
        <ele>1583.43</ele>
        <time>2015-09-09T11:46:01Z</time>
      </trkpt>
      <trkpt lat="42.22142" lon="8.98004">
        <ele>1582.95</ele>
        <time>2015-09-09T11:46:16Z</time>
      </trkpt>
      <trkpt lat="42.22137" lon="8.98008">
        <ele>1582.95</ele>
        <time>2015-09-09T11:46:27Z</time>
      </trkpt>
      <trkpt lat="42.22126" lon="8.98012">
        <ele>1582.95</ele>
        <time>2015-09-09T11:46:41Z</time>
      </trkpt>
      <trkpt lat="42.22123" lon="8.98013">
        <ele>1583.91</ele>
        <time>2015-09-09T11:46:46Z</time>
      </trkpt>
      <trkpt lat="42.22118" lon="8.9802">
        <ele>1585.35</ele>
        <time>2015-09-09T11:47:02Z</time>
      </trkpt>
      <trkpt lat="42.22109" lon="8.98028">
        <ele>1586.31</ele>
        <time>2015-09-09T11:47:15Z</time>
      </trkpt>
      <trkpt lat="42.22097" lon="8.98032">
        <ele>1585.35</ele>
        <time>2015-09-09T11:47:31Z</time>
      </trkpt>
      <trkpt lat="42.22086" lon="8.98033">
        <ele>1584.39</ele>
        <time>2015-09-09T11:47:48Z</time>
      </trkpt>
      <trkpt lat="42.22078" lon="8.98036">
        <ele>1584.39</ele>
        <time>2015-09-09T11:48:01Z</time>
      </trkpt>
      <trkpt lat="42.22076" lon="8.98037">
        <ele>1585.35</ele>
        <time>2015-09-09T11:48:05Z</time>
      </trkpt>
      <trkpt lat="42.22071" lon="8.98041">
        <ele>1587.27</ele>
        <time>2015-09-09T11:48:18Z</time>
      </trkpt>
      <trkpt lat="42.22069" lon="8.98049">
        <ele>1588.72</ele>
        <time>2015-09-09T11:48:32Z</time>
      </trkpt>
      <trkpt lat="42.22063" lon="8.98053">
        <ele>1591.12</ele>
        <time>2015-09-09T11:48:46Z</time>
      </trkpt>
      <trkpt lat="42.22055" lon="8.98056">
        <ele>1592.56</ele>
        <time>2015-09-09T11:49:00Z</time>
      </trkpt>
      <trkpt lat="42.22056" lon="8.98066">
        <ele>1594.48</ele>
        <time>2015-09-09T11:49:15Z</time>
      </trkpt>
      <trkpt lat="42.22055" lon="8.98075">
        <ele>1595.93</ele>
        <time>2015-09-09T11:49:33Z</time>
      </trkpt>
      <trkpt lat="42.22049" lon="8.98076">
        <ele>1596.41</ele>
        <time>2015-09-09T11:49:42Z</time>
      </trkpt>
      <trkpt lat="42.22049" lon="8.98076">
        <ele>1596.41</ele>
        <time>2015-09-09T11:49:43Z</time>
      </trkpt>
      <trkpt lat="42.22044" lon="8.98081">
        <ele>1597.37</ele>
        <time>2015-09-09T11:49:56Z</time>
      </trkpt>
      <trkpt lat="42.22036" lon="8.98082">
        <ele>1598.81</ele>
        <time>2015-09-09T11:50:13Z</time>
      </trkpt>
      <trkpt lat="42.22034" lon="8.98081">
        <ele>1598.81</ele>
        <time>2015-09-09T11:50:17Z</time>
      </trkpt>
      <trkpt lat="42.22032" lon="8.98079">
        <ele>1598.81</ele>
        <time>2015-09-09T11:50:19Z</time>
      </trkpt>
      <trkpt lat="42.22024" lon="8.98069">
        <ele>1598.81</ele>
        <time>2015-09-09T11:50:29Z</time>
      </trkpt>
      <trkpt lat="42.22015" lon="8.98064">
        <ele>1599.29</ele>
        <time>2015-09-09T11:50:45Z</time>
      </trkpt>
      <trkpt lat="42.22007" lon="8.98064">
        <ele>1600.73</ele>
        <time>2015-09-09T11:50:59Z</time>
      </trkpt>
      <trkpt lat="42.22003" lon="8.98067">
        <ele>1603.14</ele>
        <time>2015-09-09T11:51:13Z</time>
      </trkpt>
      <trkpt lat="42.22002" lon="8.98063">
        <ele>1603.62</ele>
        <time>2015-09-09T11:51:21Z</time>
      </trkpt>
      <trkpt lat="42.21996" lon="8.98055">
        <ele>1605.06</ele>
        <time>2015-09-09T11:51:34Z</time>
      </trkpt>
      <trkpt lat="42.2199" lon="8.98057">
        <ele>1606.5</ele>
        <time>2015-09-09T11:51:49Z</time>
      </trkpt>
      <trkpt lat="42.21989" lon="8.9805">
        <ele>1606.98</ele>
        <time>2015-09-09T11:52:04Z</time>
      </trkpt>
      <trkpt lat="42.21989" lon="8.98042">
        <ele>1606.98</ele>
        <time>2015-09-09T11:52:19Z</time>
      </trkpt>
      <trkpt lat="42.21988" lon="8.98039">
        <ele>1606.98</ele>
        <time>2015-09-09T11:52:36Z</time>
      </trkpt>
      <trkpt lat="42.21988" lon="8.98038">
        <ele>1606.98</ele>
        <time>2015-09-09T11:53:05Z</time>
      </trkpt>
      <trkpt lat="42.2199" lon="8.98039">
        <ele>1606.5</ele>
        <time>2015-09-09T11:53:37Z</time>
      </trkpt>
      <trkpt lat="42.21989" lon="8.9804">
        <ele>1606.5</ele>
        <time>2015-09-09T11:54:16Z</time>
      </trkpt>
      <trkpt lat="42.21989" lon="8.9804">
        <ele>1606.5</ele>
        <time>2015-09-09T11:54:48Z</time>
      </trkpt>
      <trkpt lat="42.2199" lon="8.98041">
        <ele>1606.5</ele>
        <time>2015-09-09T11:55:19Z</time>
      </trkpt>
      <trkpt lat="42.21991" lon="8.9804">
        <ele>1606.5</ele>
        <time>2015-09-09T11:55:44Z</time>
      </trkpt>
      <trkpt lat="42.21994" lon="8.98041">
        <ele>1606.5</ele>
        <time>2015-09-09T11:56:19Z</time>
      </trkpt>
      <trkpt lat="42.21989" lon="8.98038">
        <ele>1606.5</ele>
        <time>2015-09-09T11:56:46Z</time>
      </trkpt>
      <trkpt lat="42.21988" lon="8.98049">
        <ele>1606.5</ele>
        <time>2015-09-09T11:57:03Z</time>
      </trkpt>
      <trkpt lat="42.21984" lon="8.98057">
        <ele>1606.5</ele>
        <time>2015-09-09T11:57:18Z</time>
      </trkpt>
      <trkpt lat="42.21979" lon="8.98056">
        <ele>1606.5</ele>
        <time>2015-09-09T11:57:27Z</time>
      </trkpt>
      <trkpt lat="42.21973" lon="8.98052">
        <ele>1606.98</ele>
        <time>2015-09-09T11:57:47Z</time>
      </trkpt>
      <trkpt lat="42.21972" lon="8.98054">
        <ele>1607.46</ele>
        <time>2015-09-09T11:58:07Z</time>
      </trkpt>
      <trkpt lat="42.21969" lon="8.98056">
        <ele>1607.46</ele>
        <time>2015-09-09T11:58:26Z</time>
      </trkpt>
      <trkpt lat="42.21961" lon="8.98057">
        <ele>1608.42</ele>
        <time>2015-09-09T11:58:40Z</time>
      </trkpt>
      <trkpt lat="42.21959" lon="8.9806">
        <ele>1608.9</ele>
        <time>2015-09-09T11:58:44Z</time>
      </trkpt>
      <trkpt lat="42.21955" lon="8.98073">
        <ele>1609.86</ele>
        <time>2015-09-09T11:59:00Z</time>
      </trkpt>
      <trkpt lat="42.21956" lon="8.98074">
        <ele>1609.86</ele>
        <time>2015-09-09T11:59:20Z</time>
      </trkpt>
      <trkpt lat="42.21957" lon="8.98076">
        <ele>1609.86</ele>
        <time>2015-09-09T11:59:47Z</time>
      </trkpt>
      <trkpt lat="42.21955" lon="8.98078">
        <ele>1609.86</ele>
        <time>2015-09-09T12:00:11Z</time>
      </trkpt>
      <trkpt lat="42.21955" lon="8.98079">
        <ele>1609.86</ele>
        <time>2015-09-09T12:00:31Z</time>
      </trkpt>
      <trkpt lat="42.21956" lon="8.9808">
        <ele>1609.86</ele>
        <time>2015-09-09T12:00:54Z</time>
      </trkpt>
      <trkpt lat="42.21951" lon="8.98089">
        <ele>1609.86</ele>
        <time>2015-09-09T12:01:09Z</time>
      </trkpt>
      <trkpt lat="42.21945" lon="8.98098">
        <ele>1610.35</ele>
        <time>2015-09-09T12:01:25Z</time>
      </trkpt>
      <trkpt lat="42.21945" lon="8.98108">
        <ele>1610.83</ele>
        <time>2015-09-09T12:01:43Z</time>
      </trkpt>
      <trkpt lat="42.21942" lon="8.98113">
        <ele>1610.83</ele>
        <time>2015-09-09T12:01:58Z</time>
      </trkpt>
      <trkpt lat="42.21941" lon="8.98117">
        <ele>1610.83</ele>
        <time>2015-09-09T12:02:13Z</time>
      </trkpt>
      <trkpt lat="42.21939" lon="8.98117">
        <ele>1611.31</ele>
        <time>2015-09-09T12:02:30Z</time>
      </trkpt>
      <trkpt lat="42.21933" lon="8.98115">
        <ele>1611.79</ele>
        <time>2015-09-09T12:02:43Z</time>
      </trkpt>
      <trkpt lat="42.21932" lon="8.98119">
        <ele>1613.23</ele>
        <time>2015-09-09T12:02:59Z</time>
      </trkpt>
      <trkpt lat="42.2193" lon="8.98116">
        <ele>1613.23</ele>
        <time>2015-09-09T12:03:17Z</time>
      </trkpt>
      <trkpt lat="42.21928" lon="8.98117">
        <ele>1613.71</ele>
        <time>2015-09-09T12:03:44Z</time>
      </trkpt>
      <trkpt lat="42.21929" lon="8.98118">
        <ele>1613.71</ele>
        <time>2015-09-09T12:04:04Z</time>
      </trkpt>
      <trkpt lat="42.2193" lon="8.9812">
        <ele>1613.71</ele>
        <time>2015-09-09T12:04:27Z</time>
      </trkpt>
      <trkpt lat="42.21929" lon="8.98118">
        <ele>1613.71</ele>
        <time>2015-09-09T12:04:46Z</time>
      </trkpt>
      <trkpt lat="42.21929" lon="8.98117">
        <ele>1613.71</ele>
        <time>2015-09-09T12:05:09Z</time>
      </trkpt>
      <trkpt lat="42.21929" lon="8.98118">
        <ele>1613.71</ele>
        <time>2015-09-09T12:05:30Z</time>
      </trkpt>
      <trkpt lat="42.21929" lon="8.98119">
        <ele>1612.75</ele>
        <time>2015-09-09T12:05:54Z</time>
      </trkpt>
      <trkpt lat="42.21928" lon="8.98117">
        <ele>1612.75</ele>
        <time>2015-09-09T12:06:19Z</time>
      </trkpt>
      <trkpt lat="42.21927" lon="8.98119">
        <ele>1612.75</ele>
        <time>2015-09-09T12:06:35Z</time>
      </trkpt>
      <trkpt lat="42.21927" lon="8.9812">
        <ele>1614.19</ele>
        <time>2015-09-09T12:06:54Z</time>
      </trkpt>
      <trkpt lat="42.21928" lon="8.98119">
        <ele>1614.19</ele>
        <time>2015-09-09T12:07:24Z</time>
      </trkpt>
      <trkpt lat="42.21927" lon="8.9812">
        <ele>1614.19</ele>
        <time>2015-09-09T12:07:51Z</time>
      </trkpt>
      <trkpt lat="42.21927" lon="8.9812">
        <ele>1612.75</ele>
        <time>2015-09-09T12:07:55Z</time>
      </trkpt>
      <trkpt lat="42.21927" lon="8.98118">
        <ele>1612.75</ele>
        <time>2015-09-09T12:08:13Z</time>
      </trkpt>
      <trkpt lat="42.2193" lon="8.98122">
        <ele>1612.75</ele>
        <time>2015-09-09T12:08:29Z</time>
      </trkpt>
      <trkpt lat="42.21929" lon="8.98122">
        <ele>1610.83</ele>
        <time>2015-09-09T12:08:49Z</time>
      </trkpt>
      <trkpt lat="42.21929" lon="8.98122">
        <ele>1614.19</ele>
        <time>2015-09-09T12:08:51Z</time>
      </trkpt>
      <trkpt lat="42.21929" lon="8.98122">
        <ele>1614.19</ele>
        <time>2015-09-09T12:08:52Z</time>
      </trkpt>
      <trkpt lat="42.21928" lon="8.98121">
        <ele>1613.23</ele>
        <time>2015-09-09T12:09:10Z</time>
      </trkpt>
      <trkpt lat="42.21928" lon="8.98122">
        <ele>1613.23</ele>
        <time>2015-09-09T12:09:25Z</time>
      </trkpt>
      <trkpt lat="42.21929" lon="8.98123">
        <ele>1612.27</ele>
        <time>2015-09-09T12:09:35Z</time>
      </trkpt>
      <trkpt lat="42.21928" lon="8.98122">
        <ele>1613.71</ele>
        <time>2015-09-09T12:09:37Z</time>
      </trkpt>
      <trkpt lat="42.2193" lon="8.98116">
        <ele>1613.71</ele>
        <time>2015-09-09T12:09:53Z</time>
      </trkpt>
      <trkpt lat="42.2193" lon="8.98117">
        <ele>1613.71</ele>
        <time>2015-09-09T12:10:21Z</time>
      </trkpt>
      <trkpt lat="42.21929" lon="8.98124">
        <ele>1613.71</ele>
        <time>2015-09-09T12:10:37Z</time>
      </trkpt>
      <trkpt lat="42.2193" lon="8.98123">
        <ele>1613.71</ele>
        <time>2015-09-09T12:10:58Z</time>
      </trkpt>
      <trkpt lat="42.21931" lon="8.98122">
        <ele>1613.71</ele>
        <time>2015-09-09T12:11:22Z</time>
      </trkpt>
      <trkpt lat="42.2193" lon="8.98122">
        <ele>1613.71</ele>
        <time>2015-09-09T12:11:37Z</time>
      </trkpt>
      <trkpt lat="42.21929" lon="8.98122">
        <ele>1612.75</ele>
        <time>2015-09-09T12:11:55Z</time>
      </trkpt>
      <trkpt lat="42.21928" lon="8.9812">
        <ele>1612.27</ele>
        <time>2015-09-09T12:12:11Z</time>
      </trkpt>
      <trkpt lat="42.21929" lon="8.9812">
        <ele>1612.27</ele>
        <time>2015-09-09T12:12:37Z</time>
      </trkpt>
      <trkpt lat="42.2193" lon="8.98119">
        <ele>1612.27</ele>
        <time>2015-09-09T12:12:56Z</time>
      </trkpt>
      <trkpt lat="42.21929" lon="8.9812">
        <ele>1613.23</ele>
        <time>2015-09-09T12:13:14Z</time>
      </trkpt>
      <trkpt lat="42.21929" lon="8.98122">
        <ele>1613.71</ele>
        <time>2015-09-09T12:13:29Z</time>
      </trkpt>
      <trkpt lat="42.2193" lon="8.98124">
        <ele>1613.71</ele>
        <time>2015-09-09T12:13:42Z</time>
      </trkpt>
      <trkpt lat="42.2193" lon="8.98125">
        <ele>1613.71</ele>
        <time>2015-09-09T12:14:12Z</time>
      </trkpt>
      <trkpt lat="42.21928" lon="8.98121">
        <ele>1613.71</ele>
        <time>2015-09-09T12:14:35Z</time>
      </trkpt>
      <trkpt lat="42.21928" lon="8.98117">
        <ele>1613.71</ele>
        <time>2015-09-09T12:15:03Z</time>
      </trkpt>
      <trkpt lat="42.21929" lon="8.98116">
        <ele>1613.71</ele>
        <time>2015-09-09T12:15:18Z</time>
      </trkpt>
      <trkpt lat="42.21929" lon="8.9812">
        <ele>1612.27</ele>
        <time>2015-09-09T12:15:52Z</time>
      </trkpt>
      <trkpt lat="42.21929" lon="8.98118">
        <ele>1613.23</ele>
        <time>2015-09-09T12:16:22Z</time>
      </trkpt>
      <trkpt lat="42.2193" lon="8.98117">
        <ele>1612.27</ele>
        <time>2015-09-09T12:16:26Z</time>
      </trkpt>
    </trkseg>
  </trk>
</gpx>